[[{"header":{"parameterUnit":"m.s-1","parameterCategory":1,"la1":30.6,"la2":29.2853,"lo1":-89.7004,"lo2":-87.6739,"dy":0.0162,"dx":0.0183,"nx":112,"ny":82,"refTime":"2026-04-20T12:00:00:Z","depth":0,"parameterNumber":2,"parameterNumberName":"U-component_of_WINDS"},"data":[0.0,0.0,0.0,0.0,0.0,0.0,0.0,0.0,0.0,0.0,0.0,0.0,0.0,0.0,0.0,0.0,0.0,0.0,0.0,0.0,0.0,0.0,0.0,0.0,0.0,0.0,0.0,0.0,0.0,0.0,0.0,0.0,0.0,0.0,0.0,0.0,0.0,0.0,0.0,0.0,0.0,0.0,0.0,0.0,0.0,0.0,0.0,0.0,0.0,0.0,0.0,0.0,0.0,0.0,0.0,0.0,0.0,0.0,0.0,0.0,0.0,0.0,0.0,0.0,0.0,0.0,0.0,0.0,0.0,0.0,0.0,0.0,0.0,0.0,0.0,0.0,0.0,0.0,0.0,0.0,0.0,0.0,0.0,0.0,0.0,0.0,0.0,0.0,0.0,0.0,0.0,0.929,0.7898,0.671,0.6054,0.5759,0.5774,0.618,0.0,0.0,0.0,0.0,0.0,0.0,0.0,0.0,0.0,0.0,0.0,0.0,0.0,0.0,0.0,0.0,0.0,0.0,0.0,0.0,0.0,0.0,0.0,0.0,0.0,0.0,0.0,0.0,0.0,0.0,0.0,0.0,0.0,0.0,0.0,0.0,0.0,0.0,0.0,0.0,0.0,0.0,0.0,0.0,0.0,0.0,0.0,0.0,0.0,0.0,0.0,0.0,0.0,0.0,0.0,0.0,0.0,0.0,0.0,0.0,0.0,0.0,0.0,0.0,0.0,0.0,0.0,0.0,0.0,0.0,0.0,0.0,0.0,0.0,0.0,0.0,0.0,0.0,0.0,0.0,0.0,0.0,0.0,0.0,0.0,0.0,0.0,0.0,0.0,0.0,0.0,0.0,0.0,0.0,0.0,0.0,0.0,0.0,0.0,0.0,0.0,0.0,0.0,0.0,0.804,0.7398,0.678,0.6298,0.6018,0.5759,0.5774,0.618,0.0,0.0,0.0,0.0,0.0,0.0,0.0,0.0,0.0,0.0,0.0,0.0,0.0,0.0,0.0,0.0,0.0,0.0,0.0,0.0,0.0,0.0,0.0,0.0,0.0,0.0,0.0,0.0,0.0,0.0,0.0,0.0,0.0,0.0,0.0,0.0,0.0,0.0,0.0,0.0,0.0,0.0,0.0,0.0,0.0,0.0,0.0,0.0,0.0,0.0,0.0,0.0,0.0,0.0,0.0,0.0,0.0,0.0,0.0,0.0,0.0,0.0,0.0,0.0,0.0,0.0,0.0,0.0,0.0,0.0,0.0,0.0,0.0,0.0,0.0,0.0,0.0,0.0,0.0,0.0,0.0,0.0,0.0,0.0,0.0,0.0,0.0,0.0,0.0,0.0,0.0,0.0,0.0,0.0,0.0,0.0,0.0,0.0,0.0,0.0,0.0,0.0,0.0,0.8154,0.6948,0.6464,0.6352,0.6272,0.6159,0.5881,0.5731,0.5775,0.6035,0.0,0.0,0.0,0.0,0.0,0.0,0.0,0.0,0.0,0.0,0.0,0.0,0.0,0.0,0.0,0.0,0.0,0.0,0.0,0.0,0.0,0.0,0.0,0.0,0.0,0.0,0.0,0.0,0.0,0.0,0.0,0.0,0.0,0.0,0.0,0.0,0.0,0.0,0.0,0.0,0.0,0.0,0.0,0.0,0.0,0.0,0.0,0.0,0.0,0.0,0.0,0.0,0.0,0.0,0.0,0.0,0.0,0.0,0.0,0.0,0.0,0.0,0.0,0.0,0.0,0.0,0.0,0.0,0.0,0.0,0.0,0.0,0.0,0.0,0.0,0.0,0.0,0.0,0.0,0.0,0.0,0.0,0.0,0.0,0.0,0.0,0.0,0.0,0.0,0.0,0.0,0.0,0.0,0.0,0.0,0.0,0.0,0.0,0.0,0.0,0.0,0.0,0.7393,0.6441,0.6112,0.6212,0.63,0.63,0.5967,0.5654,0.5412,0.5868,0.0,0.0,0.0,0.0,0.0,0.0,0.0,0.0,0.0,0.0,0.0,0.0,0.0,0.0,0.0,0.0,0.0,0.0,0.0,0.0,0.0,0.0,0.0,0.0,0.0,0.0,0.0,0.0,0.0,0.0,0.0,0.0,0.0,0.0,0.0,0.0,0.0,0.0,0.0,0.0,0.0,0.0,0.0,0.0,0.0,0.0,0.0,0.0,0.0,0.0,0.0,0.0,0.0,0.0,0.0,0.0,0.0,0.0,0.0,0.0,0.0,0.0,0.0,0.0,0.0,0.0,0.0,0.0,0.0,0.0,0.0,0.0,0.0,0.0,0.0,0.0,0.0,0.0,0.0,0.0,0.0,0.0,0.0,0.0,0.0,0.0,0.0,0.0,0.0,0.0,0.0,0.0,0.0,0.0,0.0,0.0,0.0,0.0,0.0,0.0,0.0,0.0,0.7126,0.685,0.6341,0.6293,0.63,0.63,0.5879,0.5552,0.5405,0.5786,0.0,0.0,0.0,0.0,0.0,0.0,0.0,0.0,0.0,0.0,0.0,0.0,0.0,0.0,0.0,0.0,0.0,0.0,0.0,0.0,0.0,0.0,0.0,0.0,0.0,0.0,0.0,0.0,0.0,0.0,0.0,0.0,0.0,0.0,0.0,0.0,0.0,0.0,0.0,0.0,0.0,0.0,0.0,0.0,0.0,0.0,0.0,0.0,0.0,0.0,0.0,0.0,0.0,0.0,0.0,0.0,0.0,0.0,0.0,0.0,0.0,0.0,0.0,0.0,0.0,0.0,0.0,0.0,0.0,0.0,0.0,0.0,0.0,0.0,0.0,0.0,0.0,0.0,0.0,0.0,0.0,0.0,0.0,0.0,0.0,0.0,0.0,0.0,0.0,0.0,0.0,0.0,0.0,0.0,0.0,0.0,0.0,0.0,0.0,0.0,0.0,0.0,0.68,0.6413,0.0,0.6429,0.6429,0.6429,0.6001,0.5807,0.6011,0.0,0.0,0.0,0.0,0.0,0.0,0.0,0.0,0.0,0.0,0.0,0.0,0.0,0.0,0.0,0.0,0.0,0.0,0.0,0.0,0.0,0.0,0.0,0.0,0.0,0.0,0.0,0.0,0.0,0.0,0.0,0.0,0.0,0.0,0.0,0.0,0.0,0.0,0.0,0.0,0.0,0.0,0.0,0.0,0.0,0.0,0.0,0.0,0.0,0.0,0.0,0.0,0.0,0.0,0.0,0.0,0.0,0.0,0.0,0.0,0.0,0.0,0.0,0.0,0.0,0.0,0.0,0.0,0.0,0.0,0.0,0.0,0.0,0.0,0.0,0.0,0.0,0.0,0.0,0.0,0.0,0.0,0.0,0.0,0.0,0.0,0.0,0.0,0.0,0.0,0.0,0.0,0.0,0.0,0.0,0.0,0.0,0.0,0.0,0.0,0.0,0.0,0.7509,0.671,0.6213,0.0,0.6566,0.6546,0.6498,0.6076,0.5969,0.6375,0.0,0.0,0.0,0.0,0.0,0.0,0.0,0.0,0.0,0.0,0.0,0.0,0.0,0.0,0.0,0.0,0.0,0.0,0.0,0.0,0.0,0.0,0.0,0.0,0.0,0.0,0.0,0.0,0.0,0.0,0.0,0.0,0.0,0.0,0.0,0.0,0.0,0.0,0.0,0.0,0.0,0.0,0.0,0.0,0.0,0.0,0.0,0.0,0.0,0.0,0.0,0.0,0.0,0.0,0.0,0.0,0.0,0.0,0.0,0.0,0.0,0.0,0.0,0.0,0.0,0.0,0.0,0.0,0.0,0.0,0.0,0.0,0.0,0.0,0.0,0.0,0.0,0.0,0.0,0.0,0.0,0.0,0.0,0.0,0.0,0.0,0.0,0.0,0.0,0.0,0.0,0.0,0.0,0.0,0.0,0.0,0.0,0.0,0.0,0.0,0.0,0.0,0.7578,0.6872,0.6396,0.6675,0.6702,0.6641,0.6505,0.6083,0.5969,0.0,0.0,0.0,0.0,0.0,0.0,0.0,0.0,0.0,0.0,0.0,0.0,0.0,0.0,0.0,0.0,0.0,0.0,0.0,0.0,0.0,0.0,0.0,0.0,0.0,0.0,0.0,0.0,0.0,0.0,0.0,0.0,0.0,0.0,0.0,0.0,0.0,0.0,0.0,0.0,0.0,0.0,0.0,0.0,0.0,0.0,0.0,0.0,0.0,0.0,0.0,0.0,0.0,0.0,0.0,0.0,0.0,0.0,0.0,0.0,0.0,0.0,0.0,0.0,0.0,0.0,0.0,0.0,0.0,0.0,0.0,0.0,0.0,0.0,0.0,0.0,0.0,0.0,0.0,0.0,0.0,0.0,0.0,0.0,0.0,0.0,0.0,0.0,0.0,0.0,0.0,0.0,0.0,0.0,0.0,0.0,0.0,0.0,0.0,0.0,0.0,0.0,0.0,0.695,0.676,0.6647,0.6823,0.6843,0.6776,0.6647,0.622,0.6072,0.6383,0.0,0.0,0.0,0.0,0.0,0.0,0.0,0.0,0.0,0.0,0.0,0.0,0.0,0.0,0.0,0.0,0.0,0.0,0.0,0.0,0.0,0.0,0.0,0.0,0.0,0.0,0.0,0.0,0.0,0.0,0.0,0.0,0.0,0.0,0.0,0.0,0.0,0.0,0.0,0.0,0.0,0.0,0.0,0.0,0.0,0.0,0.0,0.0,0.0,0.0,0.0,0.0,0.0,0.0,0.0,0.0,0.0,0.0,0.0,0.0,0.0,0.0,0.0,0.0,0.0,0.0,0.0,0.0,0.0,0.0,0.0,0.0,0.0,0.0,0.0,0.0,0.0,0.0,0.0,0.0,0.0,0.0,0.0,0.0,0.0,0.0,0.0,0.0,0.0,0.0,0.0,0.0,0.0,0.0,0.0,0.0,0.0,0.0,0.0,0.0,0.0,0.0,0.6777,0.6771,0.683,0.6979,0.697,0.6931,0.6782,0.643,0.6297,0.6512,0.0,0.0,0.0,0.0,0.0,0.0,0.0,0.0,0.0,0.0,0.0,0.0,0.0,0.0,0.0,0.0,0.0,0.0,0.0,0.0,0.0,0.0,0.0,0.0,0.0,0.0,0.0,0.0,0.0,0.0,0.0,0.0,0.0,0.0,0.0,0.0,0.0,0.0,0.0,0.0,0.0,0.0,0.0,0.0,0.0,0.0,0.0,0.0,0.0,0.0,0.0,0.0,0.0,0.0,0.0,0.0,0.0,0.0,0.0,0.0,0.0,0.0,0.0,0.0,0.0,0.0,0.0,0.0,0.0,0.0,0.0,0.0,0.0,0.0,0.0,0.0,0.0,0.0,0.0,0.0,0.0,0.0,0.0,0.0,0.0,0.0,0.0,0.0,0.0,0.0,0.0,0.0,0.0,0.0,0.0,0.0,0.0,0.0,0.0,0.0,0.0,0.0,0.6834,0.6878,0.6985,0.7125,0.7139,0.7078,0.6938,0.6681,0.6563,0.661,0.0,0.0,0.0,0.0,0.0,0.0,0.0,0.0,0.0,0.0,0.0,0.0,0.0,0.0,0.0,0.0,0.0,0.0,0.0,0.0,0.0,0.0,0.0,0.0,0.0,0.0,0.0,0.0,0.0,0.0,0.0,0.0,0.0,0.0,0.0,0.0,0.0,0.0,0.0,0.0,0.0,0.0,0.0,0.0,0.0,0.0,0.0,0.0,0.0,0.0,0.0,0.0,0.0,0.0,0.0,0.0,0.0,0.0,0.0,0.0,1.483,0.0,0.0,0.0,0.0,0.0,0.0,0.0,0.0,0.0,0.0,0.0,0.0,0.0,0.0,0.0,0.0,0.0,0.0,0.0,0.0,0.0,0.0,0.0,0.0,0.0,0.0,0.0,0.0,0.0,0.0,0.0,0.0,0.0,0.0,0.0,0.0,0.0,0.0,0.0,0.0,0.0,0.6288,0.6695,0.7175,0.7475,0.7502,0.7371,0.7078,0.6911,0.6586,0.6033,0.0,0.0,0.0,0.0,0.0,0.0,0.0,0.0,0.0,0.0,0.0,0.0,0.0,0.0,0.0,0.0,0.0,0.0,0.0,0.0,0.0,0.0,0.0,0.0,0.0,0.0,0.0,0.0,0.0,0.0,0.0,0.0,0.0,0.0,0.0,0.0,0.0,0.0,0.0,0.0,0.0,0.0,0.0,0.0,0.0,0.0,0.0,0.0,0.0,0.0,0.0,0.0,0.0,0.0,0.0,0.0,0.0,0.0,0.0,0.0,0.0,1.4181,0.0,0.0,0.0,0.0,0.0,0.0,0.0,0.0,0.0,0.0,0.0,0.0,0.0,0.0,0.0,0.0,0.0,0.0,0.0,0.0,0.0,0.0,0.0,0.0,0.0,0.0,0.0,0.0,0.0,0.0,0.0,0.0,0.0,0.0,0.0,0.0,0.0,0.0,0.0,0.0,0.6247,0.679,0.7339,0.7577,0.7597,0.7536,0.735,0.7134,0.6782,0.6268,0.7109,0.0,0.0,0.0,0.0,0.0,0.0,0.0,0.0,0.0,0.0,0.0,0.0,0.0,0.0,0.0,0.0,0.0,0.0,0.0,0.0,0.0,0.0,0.0,0.0,0.0,0.0,0.0,0.0,0.0,0.0,0.0,0.0,0.0,0.0,0.0,0.0,0.0,0.0,0.0,0.0,0.0,0.0,0.0,0.0,0.0,0.0,0.0,0.0,0.0,0.0,0.0,0.0,0.0,1.8089,1.7986,1.7217,1.7067,1.7227,1.7473,1.5655,1.4526,1.3873,1.342,0.0,0.0,0.0,0.0,0.0,0.0,0.0,0.0,0.0,0.0,0.0,0.0,0.0,0.0,0.0,0.0,0.0,0.0,0.0,0.0,0.0,0.0,0.0,0.0,1.3035,1.2641,0.0,0.0,0.0,0.0,0.0,0.0,0.0,0.0,0.0,0.0,0.0,0.0,0.651,0.7029,0.7532,0.7658,0.7678,0.7665,0.7638,0.7377,0.7087,0.6763,0.7617,0.796,0.0,0.0,0.0,0.0,0.0,0.0,0.0,0.0,0.0,0.0,0.0,0.0,0.0,0.0,0.0,0.0,0.0,0.0,0.0,0.0,0.0,0.0,0.0,0.0,0.0,0.0,0.0,0.0,0.0,0.0,0.0,0.0,1.3316,1.3719,0.0,0.0,0.0,0.0,0.0,0.0,0.0,0.0,0.0,0.0,0.0,0.0,0.0,1.8539,1.7829,1.9434,1.9527,1.8097,1.9676,2.0305,2.0039,1.9344,1.9059,1.9053,1.7739,0.0,1.5494,1.4462,0.0,0.0,0.0,0.0,0.0,0.0,0.0,0.0,0.0,0.0,0.0,0.0,0.0,0.0,0.0,0.0,0.0,0.0,0.0,0.0,0.0,0.0,1.4384,1.3161,1.21,1.1209,0.0,1.1717,1.2465,1.1194,1.0488,0.0,0.0,0.0,0.0,0.0,0.0,0.0,0.6965,0.735,0.7814,0.7939,0.7959,0.7905,0.7794,0.7722,0.7465,0.6911,0.7493,0.8078,0.8581,0.8538,0.0,0.0,0.0,0.0,0.0,0.0,0.0,0.0,0.0,0.0,0.0,0.0,0.0,0.0,0.0,0.0,0.0,0.0,0.0,0.0,0.0,0.0,0.0,0.0,0.0,0.0,0.0,0.0,0.0,1.3861,1.4711,1.4088,1.5155,1.508,0.0,0.0,0.0,0.0,0.0,0.0,0.0,0.0,0.0,1.9499,1.9244,1.9191,1.9418,2.0658,2.0565,1.9157,2.0164,2.0193,1.9406,1.9058,1.8886,1.886,1.8333,1.7805,1.7241,1.5709,1.4682,1.4067,0.0,0.0,0.0,0.0,1.5587,1.5043,1.5983,1.5817,0.0,1.4949,0.0,0.0,0.0,0.0,0.0,0.0,0.0,0.0,0.0,0.0,1.291,1.2638,1.22,1.1751,1.1483,1.1911,1.1855,0.0,0.9905,0.954,0.8526,0.0,0.0,0.0,0.0,0.0,0.727,0.755,0.7844,0.7975,0.7988,0.7986,0.7918,0.7837,0.7675,0.7418,0.7972,0.8355,0.8464,0.9223,0.9691,0.0,0.0,0.0,0.0,0.0,0.0,0.0,0.0,0.0,0.0,0.0,0.0,0.0,0.0,0.0,0.0,0.0,0.0,0.0,0.0,0.0,0.0,0.0,0.0,0.0,0.0,0.0,0.0,1.5263,1.5757,1.491,1.6145,1.616,0.0,0.0,0.0,0.0,0.0,0.0,1.9659,1.8827,1.9058,2.0646,2.0093,2.0061,2.0666,2.1412,2.1133,1.9895,2.0166,1.9836,1.8931,1.8931,1.8931,1.8931,1.8931,1.8891,1.8691,1.6981,1.6019,1.5671,1.5656,1.5667,1.5812,1.7146,1.698,1.6256,1.7423,1.7134,1.6219,1.5896,1.5574,1.5196,1.448,0.0,0.0,0.0,0.0,1.2361,1.1798,1.1519,1.1524,1.2037,1.1894,1.161,1.1591,1.134,1.0859,0.0,0.9693,0.937,0.8487,0.0,0.0,0.0,0.0,0.794,0.7549,0.7706,0.7891,0.7975,0.7988,0.7988,0.7988,0.7912,0.7831,0.7814,0.8229,0.848,0.8479,0.9444,0.9922,0.9797,0.0,0.0,0.0,0.0,0.0,0.0,0.0,0.0,0.0,0.0,0.0,0.0,0.0,0.0,0.0,0.0,0.0,0.0,0.0,0.0,0.0,0.0,0.0,0.0,0.0,0.0,0.0,0.0,0.0,1.6955,1.6531,0.0,0.0,0.0,0.0,1.8996,1.9113,1.9623,2.0762,1.9914,2.0176,2.1767,2.2018,2.1737,2.0877,2.1234,2.0888,1.9795,1.9838,1.9939,2.0117,2.0117,2.0117,2.0117,2.0117,1.9957,1.9613,1.8116,1.7501,1.7421,1.6844,1.6616,1.6681,1.7066,1.7174,1.7163,1.7499,1.7554,1.7542,1.7782,1.7128,1.6027,1.4835,1.3845,0.0,0.0,1.205,1.2532,1.3039,1.2155,1.1195,1.1464,1.0528,0.9523,0.9377,0.9196,0.9517,0.0,1.0374,0.9622,0.9999,0.0,0.867,0.8617,0.874,0.8574,0.7863,0.7905,0.7982,0.7988,0.7988,0.7988,0.7988,0.7982,0.7939,0.7821,0.7835,0.8277,0.9193,0.8642,0.9202,1.1078,0.9965,0.0,0.0,0.0,0.0,0.0,0.0,0.0,0.0,0.0,0.0,0.0,0.0,0.0,0.0,0.0,0.0,0.0,0.0,0.0,0.0,0.0,0.0,0.0,0.0,0.0,0.0,0.0,0.0,1.6392,1.7355,0.0,1.5732,1.7297,1.844,1.8518,1.9787,2.0927,2.177,2.0918,2.0853,2.1808,2.1085,2.0628,2.0441,2.0581,2.0438,2.005,2.005,2.0227,2.0508,2.029,1.9711,1.8834,1.8631,1.7843,1.6678,1.6142,1.7045,1.8746,1.8532,1.8451,1.8465,1.8572,1.8612,1.8625,1.8719,1.8002,1.6928,1.5897,1.5175,1.4636,1.4052,1.3559,1.2937,1.1657,1.143,1.143,1.0932,1.0404,1.0025,1.0134,0.9751,0.9396,0.9342,0.9259,0.9412,1.0036,0.9455,0.8814,0.8681,0.8531,0.835,0.804,0.8172,0.8237,0.795,0.7979,0.7988,0.7988,0.7988,0.7988,0.7988,0.7988,0.7993,0.7939,0.7844,0.7956,0.8323,0.8632,0.9286,1.0409,1.0398,1.0336,0.0,0.0,0.0,0.0,0.0,0.0,0.0,0.0,0.0,0.0,0.0,0.0,0.0,0.0,0.0,0.0,0.0,0.0,0.0,0.0,0.0,0.0,0.0,0.0,0.0,0.0,1.6946,1.6915,1.7992,1.8192,1.6823,1.8362,1.9459,1.9518,2.0649,2.1558,2.2112,2.0556,1.9892,2.0479,1.9754,1.9154,1.8763,1.95,1.9537,1.8928,1.8928,1.9025,1.9259,1.9013,1.8411,1.7495,1.7307,1.653,1.5477,1.5477,1.6633,1.8398,1.8685,1.8445,1.7988,1.8564,1.8415,1.7928,1.7928,1.7142,1.5995,1.4852,1.4311,1.4016,1.3323,1.3037,1.2609,1.1152,1.0792,1.0664,0.9891,0.9716,0.9716,0.9716,0.9646,0.9591,0.9544,0.949,0.9442,0.9424,0.9043,0.8641,0.8316,0.7995,0.78,0.795,0.7705,0.7655,0.8118,0.8162,0.8162,0.8162,0.8121,0.8094,0.8094,0.8047,0.7988,0.7988,0.7871,0.7814,0.7814,0.8644,0.946,1.0246,1.1155,1.133,1.0809,0.0,0.0,0.0,0.0,0.0,0.0,0.0,0.0,0.0,0.0,0.0,0.0,0.0,0.0,0.0,0.0,0.0,0.0,0.0,0.0,0.0,0.0,0.0,1.6321,1.677,1.7542,1.8744,1.8397,1.8536,1.9856,2.0237,2.0888,2.2049,2.1564,2.1334,2.1598,1.8792,1.7368,1.7845,1.8215,1.7639,1.5916,1.805,1.8206,1.6402,1.6402,1.6412,1.6412,1.6412,1.6378,1.631,1.631,1.63,1.6233,1.6233,1.6233,1.6322,1.7226,1.6538,1.5265,1.694,1.6476,1.5047,1.4985,1.4954,1.4954,1.4891,1.4682,1.421,1.2776,1.2275,1.1866,1.0433,1.0136,1.0315,1.0315,1.0315,1.0315,1.0315,1.0136,0.9988,0.9839,0.9727,0.9555,0.937,0.9251,0.9142,0.9136,0.7735,0.7083,0.8358,0.7375,0.0,0.8263,0.8479,0.8505,0.8505,0.8383,0.8301,0.8294,0.8133,0.7995,0.7982,0.7871,0.7814,0.7814,0.8606,0.9584,1.0726,1.2027,1.2516,1.215,0.0,0.0,0.0,0.0,0.0,0.0,0.0,0.0,0.0,0.0,0.0,0.0,0.0,0.0,0.0,0.0,0.0,0.0,0.0,0.0,0.0,0.0,1.687,1.687,1.7036,1.753,1.8506,1.8646,1.8888,1.9514,1.8693,1.8252,1.859,1.7599,1.7083,1.735,1.6679,1.6438,1.6795,1.6923,1.6753,1.6278,1.6887,1.6907,1.6402,1.6402,1.6492,1.6666,1.6482,1.5812,1.4786,1.4609,1.3806,1.2624,1.2624,1.2624,1.2909,1.5676,1.6437,1.6074,1.6536,1.6437,1.581,1.456,1.4128,1.3937,1.2641,1.2106,1.1838,1.145,1.1153,1.0877,1.0461,1.0331,1.0315,1.0315,1.0315,1.0315,1.0315,1.0249,1.0209,1.0161,1.012,0.9704,0.8345,0.8002,0.7827,0.7568,0.617,0.5169,0.5392,0.6032,0.0,0.6875,0.7842,0.8505,0.8505,0.8471,0.841,0.8308,0.826,0.8113,0.7864,0.781,0.7814,0.7814,0.7938,0.8505,0.9539,1.0214,1.0692,0.0,0.0,0.0,0.0,0.0,0.0,0.0,0.0,0.0,0.0,0.0,0.0,0.0,0.0,0.0,0.0,0.0,0.0,0.0,0.0,0.0,0.0,1.635,1.6832,1.6083,1.6457,1.7068,1.7714,1.7467,1.7381,1.7654,1.7015,1.6606,1.6641,1.6091,1.5836,1.5988,1.5386,1.5143,1.5382,1.55,1.5212,1.45,1.4438,1.4481,1.4586,1.2808,1.2499,1.346,1.2421,1.1974,1.1979,1.1817,1.1184,1.0239,1.0239,0.9732,0.0,0.0,0.0,0.0,0.0,1.4215,1.4079,1.3062,1.2727,1.2418,1.0593,0.9888,0.9656,0.8829,0.8488,0.8377,0.8377,0.8296,0.8239,0.8257,0.8246,0.8236,0.8247,0.8199,0.813,0.813,0.8092,0.7716,0.6661,0.5851,0.0,0.5093,0.4215,0.3948,0.5138,0.5567,0.6167,0.7351,0.8269,0.8764,0.8682,0.8615,0.8547,0.8465,0.8423,0.0,0.0,0.0,0.8164,0.8483,0.8375,0.0,0.0,0.0,0.0,0.0,0.0,0.0,0.0,1.2272,1.1969,0.0,0.0,0.0,0.0,0.0,0.0,0.0,0.0,0.0,0.0,0.0,0.0,0.0,0.0,0.0,0.0,1.6,1.6251,1.4657,1.5296,1.6119,1.6606,1.5718,1.5167,1.5364,1.5452,1.5452,1.5319,1.5428,1.5406,1.5202,0.0,0.0,0.0,0.0,1.2698,1.1147,1.1075,1.1138,1.1338,0.7606,0.6781,0.8478,0.6631,0.6818,0.8553,0.8553,0.8553,0.8553,0.8553,0.7456,0.626,1.1056,1.1962,1.0591,1.0591,1.0591,1.0591,1.0591,0.0,0.0,0.8573,0.8009,0.769,0.596,0.5426,0.5419,0.5419,0.5413,0.5393,0.5402,0.5385,0.5403,0.5403,0.5262,0.5142,0.5142,0.505,0.4901,0.4698,0.3509,0.2472,0.2247,0.207,0.2888,0.5697,0.5309,0.5652,0.8359,0.9007,0.9158,0.8973,0.0,0.0,0.8737,0.8615,0.8539,0.8485,0.8362,0.8625,0.934,0.9267,0.9772,1.0939,1.0814,1.0787,1.087,1.0966,1.0892,1.0663,1.0121,1.0009,0.0,0.0,0.0,0.0,0.0,0.0,0.0,0.0,0.0,0.0,0.0,0.0,0.0,0.0,0.0,1.42,1.4546,1.4852,1.461,1.4079,1.4225,1.5606,1.563,1.5657,1.5909,1.4861,1.3527,1.1964,1.0707,0.9362,0.7771,0.7473,0.7351,0.7372,0.7421,0.729,0.6978,0.6949,0.6961,0.7002,0.0,0.0,0.6402,0.5988,0.6026,0.6402,0.6402,0.6402,0.6402,0.6402,0.6176,0.5907,0.696,0.7158,0.6829,0.6829,0.6829,0.6829,0.6829,0.6829,0.6781,0.6389,0.6294,0.621,0.582,0.5652,0.0,0.5566,0.5487,0.5403,0.539,0.5386,0.5383,0.5404,0.5382,0.5332,0.5332,0.5305,0.4871,0.3408,0.2879,0.2184,0.074,0.0438,0.0639,0.1232,0.3253,0.4918,0.5486,0.7783,0.9356,0.93,0.9273,0.9157,0.8885,0.8838,0.8696,0.8362,0.8315,0.8369,0.8534,0.8619,0.8721,0.8881,0.7808,0.7198,0.7051,0.6032,0.5567,0.5646,0.7535,0.8389,0.0,0.0,0.0,0.0,0.0,0.0,0.0,0.0,0.0,0.0,0.0,1.564,1.5232,0.0,1.4008,1.3153,1.3349,1.3408,1.2726,1.1428,1.146,1.4008,1.2947,1.2097,1.2289,1.0722,0.9316,0.8408,0.7616,0.6728,0.575,0.5749,0.5789,0.5789,0.5858,0.5894,0.5894,0.4938,0.499,0.6027,0.3918,0.3458,0.4415,0.3383,0.3458,0.4453,0.4453,0.4453,0.4376,0.3344,0.2883,0.2883,0.2883,0.4078,0.5801,0.5801,0.5801,0.5801,0.5801,0.5801,0.5644,0.4681,0.4337,0.4183,0.3194,0.2866,0.2801,0.2801,0.2739,0.2707,0.2689,0.2684,0.2714,0.2696,0.2713,0.2701,0.2701,0.2706,0.2437,0.1514,0.1336,0.1059,0.0163,0.0,0.0285,0.1114,0.26,0.3867,0.4608,0.6076,0.7033,0.6949,0.6944,0.6869,0.6702,0.6692,0.6623,0.6404,0.629,0.6261,0.6261,0.6256,0.6256,0.6261,0.5599,0.5237,0.5237,0.4568,0.4287,0.4376,0.4866,0.5488,0.0,0.0,0.0,0.0,0.0,0.0,0.0,0.0,1.6573,1.6538,1.5394,1.4617,1.5291,1.3946,1.2404,1.1456,1.1344,1.0986,0.9831,0.8436,0.8565,1.1328,0.9348,0.7804,0.7919,0.6539,0.5538,0.525,0.5231,0.5075,0.4707,0.4686,0.4691,0.4691,0.4787,0.4817,0.4817,0.3279,0.3377,0.5025,0.1617,0.0869,0.2445,0.075,0.0908,0.2484,0.2484,0.2484,0.2366,0.0672,0.0,0.0,0.0,0.1911,0.4662,0.4679,0.4669,0.4669,0.4669,0.4669,0.4404,0.2843,0.2351,0.2048,0.0493,0.0,0.0,0.0,0.0,0.0,0.0,0.0,0.0,0.0,0.0,0.0,0.0,0.0,0.0,0.0,0.0,0.0,0.0,0.0,0.0458,0.1812,0.2277,0.2913,0.4121,0.4552,0.4701,0.4581,0.4562,0.4578,0.4536,0.4522,0.4513,0.4513,0.4345,0.4258,0.4258,0.4145,0.4142,0.4255,0.3971,0.3885,0.4062,0.3753,0.3615,0.3599,0.2359,0.2592,1.7477,1.7243,1.7715,1.9141,1.8378,1.8058,0.0,0.0,1.6531,1.6585,1.5826,1.4486,1.2267,1.0806,0.9541,0.8301,0.6909,0.5964,0.5984,0.5936,0.6018,0.6395,0.6131,0.5898,0.5905,0.5818,0.5057,0.337,0.322,0.249,0.0756,0.065,0.0654,0.0654,0.0661,0.0666,0.0666,0.0436,0.0479,0.0718,0.0242,0.0122,0.0324,0.0122,0.0122,0.0365,0.0365,0.0365,0.0324,0.0081,0.0,0.0,0.0,0.0283,0.0644,0.063,0.0664,0.0664,0.0664,0.0664,0.0624,0.0386,0.0308,0.0269,0.0076,0.0,0.0,0.0,0.0,0.0,0.0,0.0,0.0,0.0,0.0,0.0,0.0,0.0,0.0,0.0,0.0,0.0,0.0,0.0,0.0067,0.0259,0.1542,0.2563,0.2714,0.4001,0.487,0.486,0.4868,0.4804,0.4677,0.4581,0.4513,0.4513,0.4477,0.4474,0.4474,0.4464,0.4464,0.447,0.313,0.245,0.2459,0.1127,0.0495,0.0501,0.0318,0.1038,2.0449,1.9602,0.0,0.0,1.9558,1.8911,1.8601,1.7591,1.6062,1.3949,1.2614,1.125,0.9413,0.7907,0.6814,0.0,0.5749,0.5319,0.5491,0.4583,0.3956,0.402,0.303,0.2789,0.3925,0.3044,0.2084,0.1275,0.1215,0.0844,0.0039,0.0,0.0,0.0,0.0,0.0,0.0,0.0,0.0,0.0,0.0,0.0,0.0,0.0,0.0,0.0,0.0,0.0,0.0,0.0,0.0,0.0,0.0,0.0,0.0,0.0,0.0,0.0,0.0,0.0,0.0,0.0,0.0,0.0,0.0,0.0,0.0,0.0,0.0,0.0,0.0,0.0,0.0,0.0,0.0,0.0,0.0,0.0,0.0,0.0,0.0,0.0,0.0,0.0,0.0,0.0,0.0594,0.104,0.1032,0.1634,0.2041,0.2041,0.2063,0.2019,0.1974,0.19,0.1892,0.1892,0.1892,0.1892,0.1892,0.1892,0.1892,0.1892,0.1242,0.0934,0.0909,0.0316,0.0,0.0,0.0,0.0322,2.1657,0.0,0.0,1.9704,1.9598,1.8829,1.6407,1.5274,1.3985,1.1339,0.9394,0.789,0.7006,0.5532,0.4484,0.4635,0.4234,0.3935,0.4037,0.2837,0.1978,0.2103,0.0855,0.0536,0.1952,0.0812,0.0,0.0,0.0,0.0,0.0,0.0,0.0,0.0,0.0,0.0,0.0,0.0,0.0,0.0,0.0,0.0,0.0,0.0,0.0,0.0,0.0,0.0,0.0,0.0,0.0,0.0,0.0,0.0,0.0,0.0,0.0,0.0,0.0,0.0,0.0,0.0,0.0,0.0,0.0,0.0,0.0,0.0,0.0,0.0,0.0,0.0,0.0,0.0,0.0,0.0,0.0,0.0,0.0,0.0,0.0,0.0,0.0,0.0,0.0,0.0,0.0,0.0,0.0,0.0,0.0,0.0,0.0,0.0,0.0,0.0,0.0,0.0,0.0,0.0,0.0,0.0,0.0,0.0,0.0,0.0,0.0,0.0,0.0,0.0,0.0,0.0,0.0,0.0,1.9163,1.8444,1.7915,1.7293,1.6247,1.263,0.9526,0.9549,0.7255,0.5207,0.5181,0.3853,0.2777,0.2784,0.1295,0.0177,0.0182,0.0108,0.0072,0.0072,0.0035,0.0035,0.0,0.0037,0.0,0.0,0.0,0.0,0.0,0.0,0.0,0.0,0.0,0.0,0.0,0.0,0.0,0.0,0.0,0.0,0.0,0.0,0.0,0.0,0.0,0.0,0.0,0.0,0.0,0.0,0.0,0.0,0.0,0.0,0.0,0.0,0.0,0.0,0.0,0.0,0.0,0.0,0.0,0.0,0.0,0.0,0.0,0.0,0.0,0.0,0.0,0.0,0.0,0.0,0.0,0.0,0.0,0.0,0.0,0.0,0.0,0.0,0.0,0.0,0.0,0.0,0.0,0.0,0.0,0.0,0.0,0.0,0.0,0.0,0.0,0.0,0.0,0.0,0.0,0.0,0.0,0.0,0.0,0.0,0.0,0.0,0.0,0.0,0.0,0.0,0.0,0.0,1.7483,1.6771,1.5136,1.3354,1.2258,0.9923,0.7395,0.5298,0.4076,0.3043,0.191,0.128,0.0903,0.0895,0.0386,0.0,0.0,0.0,0.0,0.0,0.0,0.0,0.0,0.0,0.0,0.0,0.0,0.0,0.0,0.0,0.0,0.0,0.0,0.0,0.0,0.0,0.0,0.0,0.0,0.0,0.0,0.0,0.0,0.0,0.0,0.0,0.0,0.0,0.0,0.0,0.0,0.0,0.0,0.0,0.0,0.0,0.0,0.0,0.0,0.0,0.0,0.0,0.0,0.0,0.0,0.0,0.0,0.0,0.0,0.0,0.0,0.0,0.0,0.0,0.0,0.0,0.0,0.0,0.0,0.0,0.0,0.0,0.0,0.0,0.0,0.0,0.0,0.0,0.0,0.0,0.0,0.0,0.0,0.0,0.0,0.0,0.0,0.0,0.0,0.0,0.0,0.0,0.0,0.0,0.0,0.0,0.0,0.0,0.0,0.0,1.7113,1.6305,1.5313,1.4044,1.2406,1.0604,0.8669,0.686,0.5028,0.2974,0.2067,0.1286,0.019,0.0,0.0,0.0,0.0,0.0,0.0,0.0,0.0,0.0,0.0,0.0,0.0,0.0,0.0,0.0,0.0,0.0,0.0,0.0,0.0,0.0,0.0,0.0,0.0,0.0,0.0,0.0,0.0,0.0,0.0,0.0,0.0,0.0,0.0,0.0,0.0,0.0,0.0,0.0,0.0,0.0,0.0,0.0,0.0,0.0,0.0,0.0,0.0,0.0,0.0,0.0,0.0,0.0,0.0,0.0,0.0,0.0,0.0,0.0,0.0,0.0,0.0,0.0,0.0,0.0,0.0,0.0,0.0,0.0,0.0,0.0,0.0,0.0,0.0,0.0,0.0,0.0,0.0,0.0,0.0,0.0,0.0,0.0,0.0,0.0,0.0,0.0,0.0,0.0,0.0,0.0,0.0,0.0,0.0,0.0,0.0,0.0,0.0,0.0,1.5026,1.4148,1.2765,1.0447,0.9741,0.8788,0.5682,0.3637,0.2422,0.2547,0.1204,0.0,0.0,0.0,0.0,0.0,0.0,0.0,0.0,0.0,0.0,0.0,0.0,0.0,0.0,0.0,0.0,0.0,0.0,0.0,0.0,0.0,0.0,0.0,0.0,0.0,0.0,0.0,0.0,0.0,0.0,0.0,0.0,0.0,0.0,0.0,0.0,0.0,0.0,0.0,0.0,0.0,0.0,0.0,0.0,0.0,0.0,0.0,0.0,0.0,0.0,0.0,0.0,0.0,0.0,0.0,0.0,0.0,0.0,0.0,0.0,0.0,0.0,0.0,0.0,0.0,0.0,0.0,0.0,0.0,0.0,0.0,0.0,0.0,0.0,0.0,0.0,0.0,0.0,0.0,0.0,0.0,0.0,0.0,0.0,0.0,0.0,0.0,0.0,0.0,0.0,0.0,0.0,0.0,0.0,0.0,0.0,0.0,0.0,0.0,0.0,0.0,1.2726,1.1714,1.0481,0.8793,0.6381,0.4207,0.3476,0.1934,0.0648,0.0684,0.0333,0.0,0.0,0.0,0.0,0.0,0.0,0.0,0.0,0.0,0.0,0.0,0.0,0.0,0.0,0.0,0.0,0.0,0.0,0.0,0.0,0.0,0.0,0.0,0.0,0.0,0.0,0.0,0.0,0.0,0.0,0.0,0.0,0.0,0.0,0.0,0.0,0.0,0.0,0.0,0.0,0.0,0.0,0.0,0.0,0.0,0.0,0.0,0.0,0.0,0.0,0.0,0.0,0.0,0.0,0.0,0.0,0.0,0.0,0.0,0.0,0.0,0.0,0.0,0.0,0.0,0.0,0.0,0.0,0.0,0.0,0.0,0.0,0.0,0.0,0.0,0.0,0.0,0.0,0.0,0.0,0.0,0.0,0.0,0.0,0.0,0.0,0.0,0.0,0.0,0.0,0.0,0.0,0.0,0.0,0.0,0.0,0.0,0.0,0.0,0.0,0.0,1.1376,1.0681,0.9851,0.8274,0.6358,0.4446,0.3039,0.1885,0.0874,0.0148,0.0,0.0,0.0,0.0,0.0,0.0,0.0,0.0,0.0,0.0,0.0,0.0,0.0,0.0,0.0,0.0,0.0,0.0,0.0,0.0,0.0,0.0,0.0,0.0,0.0,0.0,0.0,0.0,0.0,0.0,0.0,0.0,0.0,0.0,0.0,0.0,0.0,0.0,0.0,0.0,0.0,0.0,0.0,0.0,0.0,0.0,0.0,0.0,0.0,0.0,0.0,0.0,0.0,0.0,0.0,0.0,0.0,0.0,0.0,0.0,0.0,0.0,0.0,0.0,0.0,0.0,0.0,0.0,0.0,0.0,0.0,0.0,0.0,0.0,0.0,0.0,0.0,0.0,0.0,0.0,0.0,0.0,0.0,0.0,0.0,0.0,0.0,0.0,0.0,0.0,0.0,0.0,0.0,0.0,0.0,0.0,0.0,0.0,0.0,0.0,0.0,0.0,1.0664,1.0345,0.9823,0.8375,0.7553,0.6344,0.3377,0.2416,0.1768,0.0308,0.0,0.0,0.0,0.0,0.0,0.0,0.0,0.0,0.0,0.0,0.0,0.0,0.0,0.0,0.0,0.0,0.0,0.0,0.0,0.0,0.0,0.0,0.0,0.0,0.0,0.0,0.0,0.0,0.0,0.0,0.0,0.0,0.0,0.0,0.0,0.0,0.0,0.0,0.0,0.0,0.0,0.0,0.0,0.0,0.0,0.0,0.0,0.0,0.0,0.0,0.0,0.0,0.0,0.0,0.0,0.0,0.0,0.0,0.0,0.0,0.0,0.0,0.0,0.0,0.0,0.0,0.0,0.0,0.0,0.0,0.0,0.0,0.0,0.0,0.0,0.0,0.0,0.0,0.0,0.0,0.0,0.0,0.0,0.0,0.0,0.0,0.0,0.0,0.0,0.0,0.0,0.0,0.0,0.0,0.0,0.0,0.0,0.0,0.0,0.0,0.0,0.0,1.0497,0.9488,0.8375,0.8059,0.5763,0.3444,0.2839,0.1524,0.0,0.0,0.0,0.0,0.0,0.0,0.0,0.0,0.0,0.0,0.0,0.0,0.0,0.0,0.0,0.0,0.0,0.0,0.0,0.0,0.0,0.0,0.0,0.0,0.0,0.0,0.0,0.0,0.0,0.0,0.0,0.0,0.0,0.0,0.0,0.0,0.0,0.0,0.0,0.0,0.0,0.0,0.0,0.0,0.0,0.0,0.0,0.0,0.0,0.0,0.0,0.0,0.0,0.0,0.0,0.0,0.0,0.0,0.0,0.0,0.0,0.0,0.0,0.0,0.0,0.0,0.0,0.0,0.0,0.0,0.0,0.0,0.0,0.0,0.0,0.0,0.0,0.0,0.0,0.0,0.0,0.0,0.0,0.0,0.0,0.0,0.0,0.0,0.0,0.0,0.0,0.0,0.0,0.0,0.0,0.0,0.0,0.0,0.0,0.0,0.0,0.0,0.0,0.0,1.0548,1.0029,0.9392,0.9321,0.7298,0.5115,0.416,0.0,0.0,0.0,0.0,0.0,0.0,0.0,0.0,0.0,0.0,0.0,0.0,0.0,0.0,0.0,0.0,0.0,0.0,0.0,0.0,0.0,0.0,0.0,0.0,0.0,0.0,0.0,0.0,0.0,0.0,0.0,0.0,0.0,0.0,0.0,0.0,0.0,0.0,0.0,0.0,0.0,0.0,0.0,0.0,0.0,0.0,0.0,0.0,0.0,0.0,0.0,0.0,0.0,0.0,0.0,0.0,0.0,0.0,0.0,0.0,0.0,0.0,-0.0252,-0.142,-0.0876,-0.0292,-0.1491,-0.0865,0.0,0.0,0.0,0.0,0.0,0.0,0.0,0.0,0.0,0.0,0.0,0.0,0.0,0.0,0.0,0.0,0.0,0.0,0.0,0.0,0.0,0.0,0.0,0.0,0.0,0.0,0.0,0.0,0.0,0.0,0.0,0.0,0.0,0.0,0.0,0.0,0.0,1.0588,1.0697,1.0584,1.0097,0.8629,0.6801,0.5006,0.323,0.0,0.0,0.0,0.0,0.0,0.0,0.0,0.0,0.0,0.0,0.0,0.0,0.0,0.0,0.0,0.0,0.0,0.0,0.0,0.0,0.0,0.0,-0.0042,-0.0461,-0.0715,-0.0715,-0.1178,-0.1429,-0.1429,-0.1429,-0.1429,-0.1429,-0.1429,-0.1429,-0.1429,-0.1429,-0.1178,-0.0715,-0.0715,0.0,0.0,0.0,0.0,0.0,0.0,0.0,0.0,0.0,0.0,0.0,0.0,0.0,-0.0084,-0.0589,-0.0379,0.0,0.0,-0.0337,-0.0715,-0.0715,-0.1051,-0.1849,-0.3566,-0.2729,-0.1889,-0.3639,-0.2327,-0.0699,-0.0682,-0.032,0.0,0.0,0.0,0.0,0.0,0.0,0.0,0.0,0.0,0.0,0.0,0.0,0.0,0.0,0.0,0.0,0.0,0.0,0.0,0.0,0.0,0.0,0.0,0.0,0.0,0.0,0.0,0.0,0.0,0.0,0.0,0.0,0.0,0.0,1.0432,1.0616,1.0313,0.865,0.6928,0.5141,0.333,0.0,0.0,0.0,0.0,0.0,0.0,0.0,0.0,0.0,0.0,-0.0621,0.0,0.0,0.0,0.0,0.0,0.0,0.0,0.0,0.0,0.0,0.0,0.0,-0.0126,-0.1973,-0.3107,-0.3107,-0.503,-0.6076,-0.6076,-0.6076,-0.6076,-0.6076,-0.6076,-0.6076,-0.6076,-0.6076,-0.4947,-0.2981,-0.2981,0.0,0.0,0.0,0.0,0.0,0.0,0.0,0.0,0.0,0.0,0.0,0.0,0.0,-0.0337,-0.2394,-0.1681,0.0,0.0,-0.1429,-0.3065,-0.3023,-0.4486,-0.6118,-0.6324,-0.6241,-0.61,-0.6202,-0.4578,-0.2952,-0.2843,-0.1317,0.0,0.0,0.0,0.0,0.0,0.0,0.0,0.0,0.0,0.0,0.0,0.0,0.0,0.0,0.0,0.0,0.0,0.0,0.0,0.0,0.0,0.0,0.0,0.0,0.0,0.0,0.0,0.0,0.0,0.0,0.0,0.0,0.0,0.0,1.0385,1.0602,1.0261,0.8366,0.6616,0.509,0.3874,0.0,0.099,0.1062,0.1027,0.0762,0.0123,0.0,0.0,0.0,-0.0676,-0.1182,-0.1171,0.0,0.0,0.0,0.0,0.0,0.0,0.0,0.0,0.0,0.0,0.0,-0.4069,-0.4905,-0.5407,-0.5407,-0.6241,-0.67,-0.67,-0.67,-0.67,-0.67,-0.67,-0.67,-0.67,-0.67,-0.5491,-0.3358,-0.3358,0.0,0.0,0.0,0.0,0.0,0.0,0.0,0.0,0.0,0.0,-0.021,-0.1513,-0.1974,-0.2352,-0.4654,-0.4779,-0.4027,-0.4027,-0.4654,-0.5365,-0.5365,-0.599,-0.6992,-0.8332,-0.8707,-0.8319,-0.6953,-0.493,-0.3287,-0.3274,-0.1564,0.0,0.0,0.0,0.0,0.0,0.0,0.0,0.0,0.0,0.0,0.0,0.0,0.0,0.0,0.0,0.0,0.0,0.0,0.0,0.0,0.0,0.0,0.0,0.0,0.0,0.0,0.0,0.0,0.0,0.0,0.0,0.0,0.0,0.0,1.0168,1.0439,1.0143,0.8258,0.686,0.5633,0.0,0.0,0.2122,0.1855,0.17,0.1264,0.0203,0.0,-0.0106,-0.0476,-0.1387,-0.2066,-0.2093,0.0,0.0,0.0,0.0,0.0,0.0,0.0,0.0,0.0,0.0,0.0,-0.766,-0.8332,-0.8373,-0.7706,-0.8332,-0.8665,-0.8665,-0.8665,-0.8665,-0.8665,-0.8665,-0.8665,-0.8665,-0.8665,-0.7118,-0.4363,-0.4363,0.0,0.0,0.0,0.0,0.0,0.0,0.0,-0.0084,-0.0715,-0.0967,-0.1304,-0.3524,-0.4319,-0.4695,-0.6954,-0.7706,-0.7789,-0.8457,-0.8207,-0.766,-0.766,-0.8165,-0.904,-1.059,-1.1006,-1.058,-0.9004,-0.69,-0.5068,-0.4445,-0.252,-0.0753,-0.0118,0.0,0.0,0.0,0.0,0.0,0.0,0.0,0.0,0.0,0.0,0.0,0.0,0.0,0.0,0.0,0.0,0.0,0.0,0.0,0.0,0.0,0.0,0.0,0.0,0.0,0.0,0.0,0.0,0.0,0.0,0.0,0.0,0.9707,1.0053,0.9895,0.822,0.7429,0.6628,0.0,0.4032,0.3235,0.2038,0.17,0.1264,0.0203,0.0,-0.0395,-0.1595,-0.2026,-0.3327,-0.657,0.0,0.0,0.0,0.0,0.0,0.0,0.0,0.0,0.0,0.0,0.0,-0.9961,-1.2098,-1.2305,-1.0044,-1.2139,-1.3321,-1.3321,-1.3321,-1.3321,-1.3321,-1.3321,-1.3321,-1.3321,-1.3321,-1.0882,-0.6658,0.0,0.0,0.0,0.0,0.0,0.0,0.0,0.0,-0.0253,-0.2478,-0.3273,-0.3608,-0.5867,-0.6658,-0.7034,-0.9337,-1.0003,-1.0382,-1.2644,-1.1766,-0.9961,-0.9961,-1.1594,-1.3362,-1.3355,-1.3355,-1.3321,-1.3166,-1.1381,-0.9151,-0.6937,-0.4692,-0.2467,-0.0392,0.0,0.0,0.0,0.0,0.0,0.0,0.0,0.0,0.0,0.0,0.0,0.0,0.0,0.0,0.0,0.0,0.0,0.0,0.0,0.0,0.0,0.0,0.0,0.0,0.0,0.0,0.0,0.0,0.0,0.0,0.0,0.0,0.9068,0.9435,0.9225,0.7378,0.688,0.6536,0.5385,0.487,0.4279,0.308,0.2715,0.2079,0.0317,0.0,-0.0128,-0.0508,-0.1406,-0.2501,0.0,0.0,0.0,0.0,0.0,0.0,0.0,0.0,0.0,0.0,0.0,-1.2347,-1.2305,-1.3024,-1.3065,-1.2347,-1.3024,-1.3403,-1.3403,-1.3403,-1.3403,-1.3403,-1.3403,-1.3403,-1.3355,-1.1801,-0.9462,0.0,0.0,0.0,0.0,0.0,-0.0883,-0.2268,-0.231,-0.3232,-0.4654,-0.5365,-0.5616,-0.5951,-0.8248,-0.904,-0.9378,-1.1635,-1.2347,-1.2478,-1.3189,-1.2893,-1.2305,-1.2305,-1.2851,-1.3403,-1.3403,-1.3403,-1.301,-1.1375,-0.9327,-0.7077,-0.4814,-0.2574,-0.0794,-0.0119,0.0,0.0,0.0,0.0,0.0,0.0,0.0,0.0,0.0,0.0,0.0,0.0,0.0,0.0,0.0,0.0,0.0,0.0,0.0,0.0,0.0,0.0,0.0,0.0,0.0,0.0,0.0,0.0,0.0,0.0,0.0,0.0,0.0,0.8899,0.8884,0.7791,0.7408,0.7157,0.6509,0.5766,0.4854,0.3596,0.2902,0.2007,0.0321,0.0,-0.0151,-0.0599,-0.146,-0.2321,0.0,0.0,0.0,0.0,0.0,0.0,0.0,0.0,0.0,-1.3403,-1.3403,-1.3403,-1.3403,-1.3403,-1.3403,-1.3403,-1.3403,-1.3403,-1.3403,-1.3403,-1.3403,-1.3403,-1.3403,-1.3403,-1.3355,-1.1932,-1.0044,0.0,0.0,0.0,0.0,-0.1597,-0.2562,-0.457,-0.4612,-0.5491,-0.6784,-0.7618,-0.7956,-0.829,-1.0549,-1.1344,-1.1552,-1.2941,-1.3403,-1.3403,-1.3403,-1.3403,-1.3403,-1.3403,-1.3403,-1.3403,-1.3403,-1.2768,-1.1973,-1.1427,-0.888,-0.6259,-0.4864,-0.2765,-0.0925,-0.0161,0.0,0.0,0.0,-0.0716,-0.0997,-0.0121,-0.0724,-0.0969,-0.0123,-0.0737,-0.0945,-0.0083,-0.1497,-0.2161,-0.1331,-0.05,-0.0376,-0.1219,-0.0463,0.0,0.0,0.0,0.0,0.0,0.0,0.0,0.0,0.0,0.0,0.0,0.0,0.0,0.0,0.8377,0.8662,0.8954,0.8614,0.8172,0.7959,0.6592,0.0,0.3648,0.2423,0.1273,0.0188,0.0,-0.0364,-0.1479,-0.1879,-0.256,0.0,0.0,0.0,0.0,0.0,0.0,0.0,0.0,-1.3403,-1.3403,-1.3403,-1.3403,-1.3403,-1.3403,-1.3403,-1.3403,-1.3403,-1.3403,-1.3403,-1.3403,-1.3321,-1.3189,-1.3321,-1.3321,-1.3148,-1.3148,-1.2015,0.0,0.0,-0.67,-0.6533,-0.4402,-0.4905,-0.6951,-0.6951,-0.7034,-0.741,-0.9503,-1.0294,-1.0632,-1.2685,-1.3403,-1.3403,-1.3403,-1.3403,-1.3403,-1.3403,-1.3403,-1.3403,-1.3403,-1.3403,-1.3403,-1.3403,-1.1718,-1.0507,-1.2478,-0.9509,-0.6307,-0.6433,-0.4704,-0.2559,-0.0611,-0.0366,-0.0407,-0.0285,-0.2111,-0.2921,-0.0814,-0.2276,-0.2855,-0.0744,-0.2274,-0.2739,-0.0715,-0.4195,-0.5909,-0.3944,-0.1597,-0.1135,-0.3274,-0.1262,0.0,0.0,0.0,0.0,0.0,0.0,0.0,0.0,0.0,0.0,0.0,0.0,0.0,0.6973,0.0,0.7479,0.7438,0.7405,0.7317,0.0,0.6056,0.4785,0.3437,0.0,0.1273,0.0188,0.0,-0.0087,-0.0387,-0.0485,-0.1504,0.0,0.0,0.0,0.0,0.0,0.0,0.0,0.0,-1.3403,-1.3403,-1.3403,-1.3403,-1.3403,-1.3403,-1.3403,-1.3403,-1.3403,-1.3403,-1.3403,-1.3403,-1.2561,-1.0882,-1.2602,-1.2478,-1.0798,-1.084,-1.059,0.0,0.0,-0.67,-0.6658,-0.6115,-0.7243,-0.9295,-0.9295,-1.0341,-1.189,-1.2395,-1.2602,-1.2685,-1.3231,-1.3403,-1.3403,-1.3403,-1.3403,-1.3403,-1.3403,-1.3403,-1.3403,-1.3403,-1.3403,-1.3403,-1.3403,-1.1718,-0.9711,-0.854,-0.6103,-0.4053,-0.4095,-0.3645,-0.3124,-0.2631,-0.3915,-0.4579,-0.2881,-0.4457,-0.5726,-0.5204,-0.5581,-0.5728,-0.521,-0.5593,-0.5683,-0.5195,-0.6076,-0.7205,-0.8415,-0.4863,-0.2813,-0.3358,-0.1262,0.0,0.0,0.0,0.0,0.0,0.0,0.0,0.0,0.0,0.0,0.0,0.0,0.0,0.6498,0.6865,0.7244,0.7215,0.7222,0.7183,0.6931,0.556,0.0,0.0,0.0,0.0688,0.0106,0.0,-0.0224,-0.0908,-0.1086,0.0,0.0,0.0,0.0,0.0,0.0,0.0,0.0,-1.3403,-1.3403,-1.3403,-1.3403,-1.3403,-1.3403,-1.3403,-1.3403,-1.3403,-1.3403,-1.3403,-1.3403,-1.3403,-1.281,-1.1635,-1.281,-1.2768,-1.1552,-1.1594,-1.1594,0.0,0.0,-0.8832,-0.9711,-0.8665,-0.9545,-1.1594,-1.1594,-1.2353,-1.3403,-1.3403,-1.3403,-1.3403,-1.3403,-1.3403,-1.3403,-1.3403,-1.3403,-1.3403,-1.3403,-1.3403,-1.3403,-1.3403,-1.3403,-1.3403,-1.3403,-1.1718,-1.0003,-0.9836,-0.7243,-0.5156,-0.6199,-0.5588,-0.486,-0.486,-0.5866,-0.6335,-0.5103,-0.6745,-0.7868,-0.6842,-0.7594,-0.79,-0.6822,-0.7581,-0.7831,-0.6825,-0.854,-0.942,-0.8624,-0.6327,-0.4905,-0.4905,-0.1807,0.0,0.0,0.0,0.0,0.0,0.0,0.0,0.0,0.0,0.0,0.0,0.0,0.0,0.632,0.669,0.7054,0.7139,0.7109,0.6943,0.6574,0.0,0.0,0.0,0.0,0.0,0.0,0.0,0.0,0.0,0.0,0.0,0.0,0.0,0.0,0.0,0.0,0.0,-1.3348,-1.3403,-1.3403,-1.3403,-1.3403,-1.3403,-1.3403,-1.3403,-1.3403,-1.3403,-1.3403,-1.3403,-1.3403,-1.3403,-1.3231,-1.2899,-1.3231,-1.3231,-1.2893,-1.3231,-1.3403,-1.3314,0.0,0.0,-1.3231,-1.1303,-1.1677,-1.3403,-1.3403,-1.3403,-1.3403,-1.3403,-1.3403,-1.3403,-1.3403,-1.3403,-1.3403,-1.3403,-1.3403,-1.3403,-1.3403,-1.3403,-1.3403,-1.3403,-1.3403,-1.3403,-1.3403,-1.1766,-1.0549,-1.2436,-0.9711,-0.7326,-0.9586,-0.8582,-0.7201,-0.7201,-0.7497,-0.7622,-0.7243,-0.904,-0.9878,-0.7998,-0.9373,-0.9795,-0.7497,-0.8832,-0.9165,-0.6951,-1.0128,-1.084,-0.7034,-0.6411,-0.6202,-0.6202,-0.231,0.0,0.0,0.0,0.0,0.0,0.0,0.0,0.0,0.0,0.0,0.0,0.0,0.0,0.6389,0.5967,0.5395,0.5204,0.5305,0.5146,0.3973,0.2771,0.0,0.0,0.0,0.0,0.0,0.0,0.0,0.0,0.0,0.0,0.0,0.0,0.0,0.0,0.0,-1.1321,-1.3231,-1.3403,-1.3403,-1.3403,-1.3403,-1.3403,-1.3403,-1.3403,-1.3403,-1.3403,-1.3403,-1.3403,-1.3403,-1.3403,-1.2478,-1.0632,-1.2519,-1.2395,-1.059,-1.2519,-1.3403,-1.3403,0.0,-1.3106,-1.3355,-1.3024,-1.3065,-1.3403,-1.3403,-1.3403,-1.3403,-1.3403,-1.3403,-1.3403,-1.3403,-1.3403,-1.3403,-1.3403,-1.3403,-1.3403,-1.3403,-1.3403,-1.3403,-1.3403,-1.3403,-1.3403,-1.3403,-1.1718,-1.0128,-1.0507,-0.8624,-0.7326,-0.954,-0.9795,-0.9586,-0.9586,-1.1095,-1.1766,-0.9836,-1.1386,-1.2768,-1.2436,-1.2685,-1.2056,-0.9795,-0.9836,-0.9212,-0.6951,-0.7326,-0.7452,-0.6742,-0.4989,-0.3902,-0.3902,-0.1429,0.0,0.0,0.0,0.0,0.0,0.0,0.0,0.0,0.0,0.0,0.0,0.0,0.0,0.5399,0.4877,0.4086,0.3235,0.3659,0.412,0.3519,0.2449,0.0,0.0,0.0,0.0,0.0,0.0,0.0,0.0,0.0,0.0,0.0,0.0,0.0,0.0,0.0,-1.2264,-1.3314,-1.3403,-1.3403,-1.3403,-1.3403,-1.3403,-1.3403,-1.3403,-1.3403,-1.3403,-1.3403,-1.3403,-1.3403,-1.3403,-1.2899,-1.189,-1.2893,-1.2851,-1.1884,-1.2941,-1.3403,-1.3403,0.0,-1.3403,-1.3403,-1.3403,-1.3403,-1.3403,-1.3403,-1.3403,-1.3403,-1.3403,-1.3403,-1.3403,-1.3403,-1.3403,-1.3403,-1.3403,-1.3403,-1.3403,-1.3403,-1.3403,-1.3403,-1.3403,-1.3403,-1.3403,-1.3403,-1.2602,-1.1849,-1.189,-1.1089,-1.059,-1.1635,-1.1849,-1.189,-1.189,-1.2685,-1.3065,-1.2015,-1.2727,-1.3403,-1.3403,-1.3403,-1.3024,-1.1973,-1.084,-0.967,-0.8582,-0.7414,-0.6199,-0.503,-0.3985,-0.2855,-0.1639,-0.0589,0.0,0.0,0.0,0.0,0.0,0.0,0.0,0.0,0.0,0.0,0.0,0.0,0.0,0.4654,0.3908,0.291,0.1942,0.2454,0.3141,0.2825,0.196,0.1217,0.0,0.0,0.0,0.0,-0.0585,0.0,0.0,0.0,0.0,0.0,0.0,0.0,0.0,-1.3014,-1.3403,-1.3403,-1.3403,-1.3403,-1.3403,-1.3403,-1.3403,-1.3403,-1.3403,-1.3403,-1.3403,-1.3403,-1.3403,-1.3403,-1.3403,-1.3403,-1.3403,-1.3403,-1.3403,-1.3403,-1.3403,-1.3403,-1.3403,-1.3403,-1.3403,-1.3403,-1.3403,-1.3403,-1.3403,-1.3403,-1.3403,-1.3403,-1.3403,-1.3403,-1.3403,-1.3403,-1.3403,-1.3403,-1.3403,-1.3403,-1.3403,-1.3403,-1.3403,-1.3403,-1.3403,-1.3403,-1.3403,-1.3403,-1.3403,-1.3403,-1.3403,-1.3431,-1.3451,-1.3451,-1.3478,-1.3505,-1.3505,-1.3505,-1.3505,-1.3505,-1.3505,-1.3505,-1.3505,-1.3505,-1.329,-1.2782,-1.1221,-0.9743,-0.8605,-0.7004,-0.5069,-0.2792,-0.2618,-0.1856,-0.0127,0.0,0.0,0.0,0.0,0.0,0.0,0.0,0.0,0.0,0.0,0.0,0.0,0.0,0.0,0.5001,0.3433,0.1773,0.1942,0.2035,0.1781,0.0545,0.0178,0.0,0.0104,0.0,0.0,0.0,-0.2314,0.0,0.0,0.0,0.0,0.0,0.0,-1.2066,-1.0422,-1.2101,-1.3403,-1.3403,-1.3403,-1.3403,-1.3403,-1.3403,-1.3403,-1.3403,-1.3403,-1.3403,-1.3403,-1.3403,-1.3403,-1.3403,-1.3403,-1.3403,-1.3403,-1.3403,-1.3403,-1.3403,-1.3403,-1.3403,-1.3403,-1.3403,-1.3403,-1.3403,-1.3403,-1.3403,-1.3403,-1.3403,-1.3403,-1.3403,-1.3403,-1.3403,-1.3403,-1.3403,-1.3403,-1.3403,-1.3403,-1.3403,-1.3403,-1.3403,-1.3403,-1.3403,-1.3403,-1.3403,-1.3403,-1.3403,-1.3403,-1.3403,-1.3403,-1.3512,-1.3572,-1.3572,-1.3673,-1.3768,-1.3768,-1.3768,-1.3768,-1.3768,-1.3768,-1.3768,-1.3768,-1.3768,-1.3028,-1.0956,-1.057,-0.8843,-0.4536,-0.3934,-0.2855,-0.0434,-0.0258,-0.0171,0.0,0.0,0.0,0.0,0.0,0.0,0.0,0.0,0.0,0.0,0.0,0.0,0.0,0.0,0.0,0.2749,0.1691,0.0619,0.0732,0.0758,0.063,0.0,0.0,0.0,0.0,0.0,0.0,0.0,0.0,0.0,0.0,0.0,-1.0246,-1.1466,-1.2357,-1.2695,-1.2199,-1.2866,-1.3403,-1.3403,-1.3403,-1.3403,-1.3403,-1.3403,-1.3403,-1.3403,-1.3403,-1.3403,-1.3403,-1.3403,-1.3403,-1.3403,-1.3403,-1.3403,-1.3403,-1.3403,-1.3403,-1.3403,-1.3403,-1.3403,-1.3403,-1.3403,-1.3403,-1.3403,-1.3403,-1.3403,-1.3403,-1.3403,-1.3403,-1.3403,-1.3403,-1.3403,-1.3403,-1.3403,-1.3403,-1.3403,-1.3403,-1.3403,-1.3403,-1.3403,-1.3464,-1.3504,-1.3504,-1.3565,-1.3612,-1.3566,-1.3504,-1.3566,-1.3612,-1.368,-1.372,-1.372,-1.3761,-1.3795,-1.3795,-1.3795,-1.3795,-1.3795,-1.3795,-1.3795,-1.3795,-1.3795,-1.2974,-1.0677,-0.9123,-0.7051,-0.3812,-0.2212,-0.0999,-0.0087,0.0,0.0,0.0,0.0,0.0,0.0,0.0,0.0,0.0,0.0,0.0,0.0,0.0,0.0,0.0,0.0,0.0,0.1505,0.0752,0.0,0.0,0.0,0.0,0.0,0.0,0.0,0.0,-0.084,0.0,0.0,0.0,0.0,0.0,-0.9767,-1.167,-1.2841,-1.3003,-1.3111,-1.3363,-1.3403,-1.3403,-1.3403,-1.3403,-1.3403,-1.3403,-1.3403,-1.3403,-1.3403,-1.3403,-1.3403,-1.3403,-1.3403,-1.3403,-1.3403,-1.3403,-1.3403,-1.3403,-1.3403,-1.3403,-1.3403,-1.3403,-1.3403,-1.3403,-1.3403,-1.3403,-1.3403,-1.3403,-1.3403,-1.3403,-1.3403,-1.3403,-1.3403,-1.3403,-1.3403,-1.3403,-1.3403,-1.3403,-1.3403,-1.3403,-1.3403,-1.341,-1.3458,-1.3546,-1.3599,-1.3639,-1.3727,-1.3788,-1.3783,-1.3693,-1.368,-1.3774,-1.3835,-1.3869,-1.3869,-1.391,-1.3944,-1.3944,-1.3944,-1.3944,-1.3944,-1.3944,-1.372,-1.2935,-1.3461,-1.3108,-1.0743,-0.9083,-0.6906,-0.3808,-0.1404,0.0,0.0,0.0,0.0,0.0,0.0,0.0,0.0,0.0,0.0,0.0,0.0,0.0,0.0,0.0,0.0,0.0,0.0,0.0,0.1792,0.0918,0.0,0.0,0.0,0.0,0.0,0.0,-0.0031,-0.0066,-0.2656,-0.5548,-0.7606,0.0,0.0,-1.1026,-1.0288,-1.0257,-1.2655,-1.3003,-1.3111,-1.3363,-1.3403,-1.3403,-1.3403,-1.3403,-1.3403,-1.3403,-1.3403,-1.3403,-1.3403,-1.3403,-1.3403,-1.3403,-1.3403,-1.3403,-1.3403,-1.3403,-1.3403,-1.3403,-1.3403,-1.3403,-1.3403,-1.3403,-1.3403,-1.3403,-1.3403,-1.3403,-1.3403,-1.3403,-1.3403,-1.3403,-1.3403,-1.3403,-1.3403,-1.3403,-1.3403,-1.3403,-1.3403,-1.3403,-1.3403,-1.3403,-1.3403,-1.3431,-1.3545,-1.3592,-1.3619,-1.3761,-1.3802,-1.3835,-1.4034,-1.396,-1.3802,-1.3802,-1.396,-1.4119,-1.4119,-1.419,-1.4299,-1.4299,-1.4299,-1.4299,-1.4299,-1.4299,-1.3489,-1.1072,-1.2774,-1.3401,-1.0984,-1.0629,-0.8797,-0.4072,-0.1434,0.0,0.0,0.0,0.0,0.0,0.0,0.0,0.0,0.0,0.0,0.0,0.0,0.0,0.0,0.0,0.0,0.0,0.0,0.0,0.0537,0.0281,0.0,0.0,0.0,0.0,0.0,-0.1059,0.0,0.0,-0.4847,-0.5646,-0.6431,0.0,0.0,-0.9691,-1.0761,-1.1818,-1.2855,-1.3003,-1.3111,-1.3363,-1.3403,-1.3403,-1.3403,-1.3403,-1.3403,-1.3403,-1.3403,-1.3403,-1.3403,-1.3403,-1.3403,-1.3403,-1.3403,-1.3403,-1.3403,-1.3403,-1.3403,-1.3403,-1.3403,-1.3403,-1.3403,-1.3403,-1.3403,-1.3403,-1.3403,-1.3403,-1.3403,-1.3403,-1.3403,-1.3403,-1.3403,-1.3403,-1.3403,-1.3403,-1.3403,-1.3403,-1.3403,-1.3403,-1.3403,-1.3403,-1.3471,-1.3566,-1.3572,-1.3777,-1.3953,-1.3994,-1.4082,-1.4177,-1.4224,-1.4197,-1.4163,-1.4163,-1.4197,-1.4231,-1.4231,-1.4272,-1.4299,-1.4299,-1.4299,-1.4299,-1.4299,-1.4299,-1.4078,-1.3356,-1.385,-1.2819,-0.8708,-0.5231,-0.2642,-0.1211,-0.0449,0.0,0.0,0.0,0.0,0.0,0.0,0.0,0.0,0.0,0.0,0.0,0.0,0.0,0.0,0.0,0.0,0.0,0.0,0.0,0.0,0.0,0.0,0.0,0.0,-0.0405,-0.2008,0.0,0.0,0.0,0.0,-0.7131,-0.8128,-0.9145,0.0,-1.0304,-1.1471,-1.2488,-1.282,-1.2962,-1.3091,-1.3281,-1.3363,-1.3403,-1.3403,-1.3403,-1.3403,-1.3403,-1.3403,-1.3403,-1.3403,-1.3403,-1.3403,-1.3403,-1.3403,-1.3403,-1.3403,-1.3403,-1.3403,-1.3403,-1.3403,-1.3403,-1.3403,-1.3403,-1.3403,-1.3403,-1.3403,-1.3403,-1.3403,-1.3403,-1.3403,-1.3403,-1.3403,-1.3403,-1.3403,-1.3403,-1.3403,-1.3403,-1.3403,-1.3403,-1.3403,-1.3403,-1.3505,-1.3599,-1.3653,-1.3878,-1.4125,-1.4143,-1.4231,-1.4299,-1.4299,-1.4299,-1.4299,-1.4299,-1.4299,-1.4299,-1.4299,-1.4299,-1.4299,-1.4299,-1.4299,-1.4299,-1.4299,-1.4299,-1.3982,-1.2996,-1.2059,-1.0407,-0.7458,-0.3803,-0.1076,-0.009,0.0,0.0,0.0,0.0,0.0,0.0,0.0,0.0,0.0,0.0,0.0,0.0,0.0,0.0,0.0,0.0,0.0,0.0,0.0,0.0,0.0,0.0,-0.0053,-0.0228,-0.0387,0.0,-0.5178,-0.4777,-0.4206,-0.6173,0.0,-0.9398,-1.1466,-1.1693,-1.171,-1.206,-1.2318,-1.2556,-1.2672,-1.2854,-1.303,-1.318,-1.3288,-1.3376,-1.3376,-1.339,-1.3403,-1.3403,-1.3403,-1.3403,-1.3403,-1.3403,-1.3403,-1.3403,-1.3403,-1.3403,-1.3403,-1.3403,-1.3403,-1.3403,-1.3403,-1.3403,-1.3403,-1.3403,-1.3403,-1.3403,-1.3403,-1.3403,-1.3403,-1.3403,-1.3403,-1.3403,-1.3403,-1.3403,-1.3403,-1.3403,-1.3403,-1.3403,-1.3403,-1.3403,-1.3403,-1.3417,-1.3526,-1.3632,-1.3774,-1.3973,-1.4122,-1.4265,-1.4299,-1.4299,-1.4299,-1.4299,-1.4299,-1.4299,-1.4299,-1.4299,-1.4299,-1.4299,-1.4299,-1.4299,-1.4299,-1.4299,-1.4299,-1.4299,-1.3578,-1.1344,-0.8797,-0.7102,-0.7102,-0.4874,-0.2419,-0.0224,0.0,0.0,0.0,0.0,0.0,0.0,0.0,0.0,0.0,0.0,0.0,0.0,0.0,0.0,0.0,0.0,0.0,0.0,0.0,0.0,0.0,0.0,0.0,-0.1899,-0.3431,-0.4817,-0.5776,-0.6988,-0.8468,-1.0521,-1.0031,-0.9856,-1.1825,-1.0934,-1.0441,-1.1985,-1.2386,-1.2556,-1.2672,-1.2759,-1.2834,-1.303,-1.3173,-1.322,-1.322,-1.3329,-1.3403,-1.3403,-1.3403,-1.3403,-1.3403,-1.3403,-1.3403,-1.3403,-1.3403,-1.3403,-1.3403,-1.3403,-1.3403,-1.3403,-1.3403,-1.3403,-1.3403,-1.3403,-1.3403,-1.3403,-1.3403,-1.3403,-1.3403,-1.3403,-1.3403,-1.3403,-1.3403,-1.3403,-1.3403,-1.3403,-1.3403,-1.3403,-1.3403,-1.3403,-1.3417,-1.3497,-1.3632,-1.3781,-1.3973,-1.4129,-1.4258,-1.4292,-1.4299,-1.4299,-1.4299,-1.4299,-1.4299,-1.4299,-1.4299,-1.4299,-1.4299,-1.4299,-1.4299,-1.4299,-1.4299,-1.4299,-1.4299,-1.4299,-1.4122,-1.3584,-0.9869,-0.7102,-0.7102,-0.3401,-0.0583,-0.0045,0.0,0.0,0.0,0.0,0.0,0.0,0.0,0.0,0.0,0.0,0.0,0.0,0.0,0.0,0.0,0.0,0.0,0.0,0.0,0.0,0.0,-0.062,0.0,-0.3694,0.0,-0.7258,-0.7468,-0.911,-1.0939,-1.2154,-1.1593,-1.1193,-1.2208,-1.1554,-1.1225,-1.2246,-1.2454,-1.2528,-1.261,-1.2645,-1.2786,-1.2982,-1.3125,-1.3241,-1.3275,-1.3356,-1.3403,-1.3403,-1.3403,-1.3403,-1.3403,-1.3403,-1.3403,-1.3403,-1.3403,-1.3403,-1.3403,-1.3403,-1.3403,-1.3403,-1.3403,-1.3403,-1.3403,-1.3403,-1.3403,-1.3403,-1.3403,-1.3403,-1.3403,-1.3403,-1.3403,-1.3403,-1.3403,-1.3403,-1.3403,-1.3403,-1.3403,-1.3403,-1.3403,-1.3403,-1.3424,-1.358,-1.368,-1.3829,-1.4027,-1.4177,-1.4299,-1.4299,-1.4299,-1.4299,-1.4299,-1.4299,-1.4299,-1.4299,-1.4299,-1.4299,-1.4299,-1.4299,-1.4299,-1.4299,-1.4299,-1.4299,-1.4299,-1.4299,-1.4299,-1.4299,-1.2148,-0.9735,-0.7417,-0.2955,0.0,0.0,0.0,0.0,0.0,0.0,0.0,0.0,0.0,0.0,0.0,0.0,0.0,0.0,0.0,0.0,0.0,0.0,0.0,0.0,0.0,0.0,0.0,-0.1567,-0.3658,-0.5594,-0.7634,0.0,-0.9631,-1.0959,-1.2186,-1.244,-1.2501,-1.2501,-1.2501,-1.2501,-1.2501,-1.2501,-1.2501,-1.2501,-1.2501,-1.261,-1.2739,-1.2907,-1.305,-1.3159,-1.3308,-1.3349,-1.337,-1.3397,-1.3403,-1.3403,-1.3403,-1.3403,-1.3403,-1.3403,-1.3403,-1.3403,-1.3403,-1.3403,-1.3403,-1.3403,-1.3403,-1.3403,-1.3403,-1.3403,-1.3403,-1.3403,-1.3403,-1.3403,-1.3403,-1.3403,-1.3403,-1.3403,-1.3403,-1.3403,-1.3403,-1.3403,-1.3403,-1.3403,-1.3403,-1.3417,-1.3464,-1.3572,-1.372,-1.3912,-1.4061,-1.4197,-1.4299,-1.4299,-1.4299,-1.4299,-1.4299,-1.4299,-1.4299,-1.4299,-1.4299,-1.4299,-1.4299,-1.4299,-1.4299,-1.4299,-1.4299,-1.4299,-1.4299,-1.4299,-1.4299,-1.4299,-1.4299,-1.2553,-0.7729,-0.2955,0.0,0.0,0.0,0.0,0.0,0.0,0.0,0.0,0.0,0.0,0.0,0.0,0.0,0.0,0.0,0.0,0.0,0.0,0.0,0.0,0.0,-0.0227,0.0,-0.2546,-0.5646,0.0,-0.9486,-1.1148,0.0,0.0,-1.2186,0.0,-1.2501,-1.2501,-1.2501,-1.2501,-1.2501,-1.2501,-1.2501,-1.2501,-1.2501,-1.2522,-1.2542,-1.2562,-1.2698,-1.2847,-1.3043,-1.3173,-1.3261,-1.339,-1.3403,-1.3403,-1.3403,-1.3403,-1.3403,-1.3403,-1.3403,-1.3403,-1.3403,-1.3403,-1.3403,-1.3403,-1.3403,-1.3403,-1.3403,-1.3403,-1.3403,-1.3403,-1.3403,-1.3403,-1.3403,-1.3403,-1.3403,-1.3403,-1.3403,-1.3403,-1.3403,-1.3403,-1.3403,-1.3403,-1.3403,-1.3485,-1.3578,-1.3727,-1.3912,-1.4068,-1.4224,-1.4285,-1.4299,-1.4299,-1.4299,-1.4299,-1.4299,-1.4299,-1.4299,-1.4299,-1.4299,-1.4299,-1.4299,-1.4299,-1.4299,-1.4299,-1.4299,-1.4299,-1.4299,-1.4299,-1.4299,-1.4299,-1.4299,-1.2553,-0.7729,-0.2955,0.0,0.0,0.0,0.0,0.0,0.0,0.0,0.0,0.0,0.0,0.0,0.0,0.0,0.0,0.0,0.0,0.0,0.0,0.0,0.0,0.0,-0.1199,-0.1244,-0.3447,-0.5949,0.0,-0.9853,-1.1417,-1.183,0.0,-1.2159,-1.2338,-1.2447,-1.2501,-1.2501,-1.2501,-1.2501,-1.2501,-1.2501,-1.2501,-1.2501,-1.2501,-1.2535,-1.2617,-1.2652,-1.2793,-1.2989,-1.3057,-1.3125,-1.3193,-1.3268,-1.3275,-1.3275,-1.3356,-1.3403,-1.3403,-1.3403,-1.3363,-1.3275,-1.3356,-1.3356,-1.3275,-1.3275,-1.3275,-1.3275,-1.3363,-1.3403,-1.3403,-1.3403,-1.3403,-1.3403,-1.3403,-1.3403,-1.3403,-1.3403,-1.3403,-1.3403,-1.3403,-1.3403,-1.341,-1.3498,-1.3531,-1.3626,-1.3899,-1.4014,-1.4146,-1.4251,-1.4299,-1.4299,-1.4299,-1.4299,-1.4299,-1.4299,-1.4299,-1.4299,-1.4299,-1.4299,-1.4299,-1.4299,-1.4299,-1.4299,-1.4299,-1.4299,-1.4299,-1.4299,-1.4299,-1.4299,-1.4299,-1.4584,-1.4048,-1.1916,-0.4814,0.0,0.0,0.0,0.0,0.0,0.0,0.0,0.0,0.0,0.0,0.0,0.0,0.0,0.0,0.0,0.0,0.0,0.0,0.0,0.0,0.0,-0.1345,-0.252,-0.4129,-0.5806,-0.8221,-0.9948,-1.1166,0.0,0.0,-1.2145,0.0,-1.2406,-1.2501,-1.2501,-1.2501,-1.2501,-1.2501,-1.2501,-1.2501,-1.2501,-1.2501,-1.2542,-1.2657,-1.2632,-1.2732,-1.2928,-1.2901,-1.2955,-1.2996,-1.3098,-1.3173,-1.3214,-1.3281,-1.3363,-1.3397,-1.3403,-1.3329,-1.3214,-1.3247,-1.3247,-1.3214,-1.3214,-1.3214,-1.322,-1.3329,-1.3376,-1.3342,-1.3383,-1.3403,-1.3403,-1.3403,-1.3403,-1.3403,-1.3403,-1.3403,-1.3403,-1.3403,-1.3403,-1.3424,-1.3531,-1.3612,-1.3687,-1.3987,-1.4139,-1.415,-1.4265,-1.4299,-1.4299,-1.4299,-1.4299,-1.4299,-1.4299,-1.4299,-1.4299,-1.4299,-1.4299,-1.4299,-1.4299,-1.4326,-1.434,-1.4306,-1.434,-1.436,-1.4306,-1.4299,-1.4353,-1.4502,-1.4903,-1.5181,-1.5181,-0.6316,0.0,0.0,0.0,0.0,0.0,0.0,0.0,0.0,0.0,0.0,0.0,0.0,0.0,0.0,0.0,0.0,0.0,0.0,0.0,0.0,-0.0653,-0.2337,-0.3374,-0.4415,-0.5551,-0.8894,-1.0145,-1.0724,0.0,0.0,-1.2145,-1.2257,-1.2406,-1.2501,-1.2501,-1.2501,-1.2501,-1.2501,-1.2501,-1.2501,-1.2501,-1.2501,-1.2508,-1.2515,-1.2515,-1.2576,-1.2686,-1.2706,-1.28,-1.2989,-1.3009,-1.3071,-1.3207,-1.322,-1.3254,-1.3397,-1.3403,-1.3329,-1.3214,-1.3091,-1.3091,-1.3214,-1.3214,-1.3214,-1.322,-1.3329,-1.3322,-1.3234,-1.3336,-1.3403,-1.3403,-1.3403,-1.3403,-1.3403,-1.3403,-1.3403,-1.3403,-1.3403,-1.3403,-1.3424,-1.3531,-1.3673,-1.3815,-1.4021,-1.417,-1.4292,-1.4299,-1.4299,-1.4299,-1.4299,-1.4299,-1.4299,-1.4299,-1.4299,-1.4299,-1.4299,-1.4299,-1.4299,-1.4299,-1.4407,-1.4462,-1.4326,-1.4448,-1.4509,-1.4333,-1.4299,-1.4489,-1.5052,-1.516,-1.5181,-1.5181,-0.6316,0.0,0.0,0.0,0.0,0.0,0.0,0.0,0.0,0.0,0.0,0.0,0.0,0.0,0.0,0.0,0.0,0.0,0.0,0.0,-0.0048,-0.2471,-0.4981,-0.1222,-0.2909,-0.4747,-0.6275,-0.8354,-1.0209,-1.0772,-1.1355,-1.1816,-1.1965,-1.2196,-1.2393,-1.2481,-1.2501,-1.2501,-1.2501,-1.2501,-1.2501,-1.2501,-1.2501,-1.2501,-1.2501,-1.2501,-1.2522,-1.2576,-1.2583,-1.261,-1.2664,-1.2759,-1.2881,-1.3071,-1.3166,-1.3241,-1.3397,-1.3308,-1.3227,-1.3077,-1.2833,-1.2793,-1.3077,-1.3077,-1.3125,-1.322,-1.3329,-1.337,-1.3322,-1.3376,-1.3403,-1.3403,-1.3403,-1.3403,-1.3403,-1.3403,-1.3403,-1.3403,-1.3403,-1.3464,-1.3566,-1.3673,-1.3822,-1.4014,-1.417,-1.4258,-1.4299,-1.4299,-1.4299,-1.4299,-1.4299,-1.4299,-1.4299,-1.4299,-1.4299,-1.4326,-1.4414,-1.4557,-1.4658,-1.4597,-1.4579,-1.4599,-1.459,-1.4593,-1.4665,-1.4545,-1.474,-1.4936,-1.5153,-1.5181,-1.5181,-1.5181,-0.6316,0.0,0.0,-0.2903,-0.3567,-0.0286,-0.2,-0.2333,-0.0143,0.0,0.0,0.0,0.0,0.0,0.0,0.0,0.0,0.0,-0.162,-0.2427,-0.2522,-0.5036,-0.7595,-0.0504,-0.2272,0.0,0.0,-0.7517,-0.9598,-1.0453,-1.1002,-1.1428,-1.1671,-1.1999,-1.2257,-1.2406,-1.2433,-1.2447,-1.2494,-1.2501,-1.2501,-1.2501,-1.2501,-1.2501,-1.2501,-1.2501,-1.2501,-1.2501,-1.2501,-1.2501,-1.2501,-1.2596,0.0,-1.2989,-1.3091,-1.3193,-1.3397,-1.3248,-1.3118,-1.3071,-1.2732,-1.2732,-1.3071,-1.3023,-1.305,-1.3146,-1.3254,-1.3302,-1.3261,-1.3356,-1.3403,-1.3403,-1.3403,-1.3403,-1.3403,-1.3403,-1.3403,-1.341,-1.3458,-1.3497,-1.3612,-1.3808,-1.3987,-1.4139,-1.4251,-1.4299,-1.4299,-1.4299,-1.4299,-1.4299,-1.4299,-1.4299,-1.4312,-1.436,-1.4407,-1.4468,-1.4563,-1.474,-1.4862,-1.4801,-1.4787,-1.4787,-1.4787,-1.4841,-1.4889,-1.4889,-1.5052,-1.5181,-1.5181,-1.5181,-1.5181,-1.5181,-0.7785,-0.2571,-0.2571,-0.4042,-0.5085,-0.5085,-0.5083,-0.4611,-0.3474,-0.2048,-0.1667,-0.2523,-0.0906,-0.0811,-0.2523,-0.1715,-0.1715,-0.2571,-0.3377,-0.4231,-0.513,-0.769,-1.0248,0.0,0.0,0.0,0.0,0.0,0.0,-1.0468,0.0,-1.0995,-1.1462,-1.1823,-1.2111,-1.225,-1.2284,-1.2332,-1.2474,-1.2501,-1.2501,-1.2501,-1.2501,-1.2501,-1.2501,-1.2501,-1.2501,-1.2501,-1.2501,-1.2501,-1.2501,-1.2501,-1.2637,-1.2975,-1.3003,-1.3139,-1.3383,-1.3159,-1.3071,-1.3207,-1.2874,-1.2881,-1.3214,-1.3071,-1.3009,-1.3016,-1.3159,-1.3146,-1.303,-1.3275,-1.3403,-1.3403,-1.3403,-1.3403,-1.3403,-1.3403,-1.3403,-1.3417,-1.3531,-1.3592,-1.3632,-1.3973,-1.4119,-1.4146,-1.4251,-1.4299,-1.4299,-1.4299,-1.4299,-1.4299,-1.4299,-1.4306,-1.434,-1.4482,-1.4586,-1.4701,-1.4701,-1.4821,-1.4889,-1.4889,-1.4889,-1.4889,-1.4889,-1.5052,-1.5181,-1.5181,-1.4946,-1.4845,-1.5134,-1.5181,-1.5181,-1.5181,-1.0861,-0.7738,-0.7545,-0.2998,-0.3995,-1.3899,-0.8869,-0.6553,-0.9728,-0.6124,-0.5036,-0.7501,-0.2857,-0.2571,-0.7501,-0.5178,-0.5178,-0.769,-0.5225,-0.5273,-0.7785,-1.0342,-1.2857,-0.041,0.0,0.0,0.0,0.0,0.0,0.0,0.0,-0.9903,-1.0752,-1.1036,-1.1301,-1.2036,-1.2166,-1.2213,-1.2325,-1.2433,-1.2501,-1.2501,-1.2501,-1.2501,-1.2501,-1.2501,-1.2501,-1.2501,-1.2501,-1.2501,0.0,-1.2501,-1.2589,-1.2786,-1.2996,-1.3193,-1.3234,-1.32,-1.3125,-1.3064,-1.2827,-1.2881,-1.3214,-1.3071,-1.3111,-1.3281,-1.3322,-1.3315,-1.3281,-1.3363,-1.3403,-1.3403,-1.3403,-1.3403,-1.3403,-1.3403,-1.3403,-1.3417,-1.3531,-1.3653,-1.3768,-1.4007,-1.4143,-1.4245,-1.4285,-1.4299,-1.4299,-1.4299,-1.4299,-1.4299,-1.4299,-1.4373,-1.4489,-1.4593,-1.4794,-1.4896,-1.4855,-1.4977,-1.5099,-1.5099,-1.5099,-1.5099,-1.5099,-1.5147,-1.5181,-1.5181,-0.9109,-0.6695,-1.4087,-1.5181,-1.5181,-1.5181,-1.3993,-1.1239,-0.6316,-0.2333,-0.1144,-0.3947,-0.5889,-0.6506,-0.5605,-0.6174,-0.6885,-0.7595,-0.6269,-0.6174,-0.7595,-0.6929,-0.7785,-1.0342,-0.9634,-0.9681,-1.0389,-1.2952,-1.4516,0.0,0.0,0.0,0.0,0.0,0.0,-0.7951,-0.8615,-0.9444,0.0,-1.0683,-1.0995,-1.1615,-1.1826,-1.1925,-1.2074,-1.2223,-1.2359,-1.2481,-1.2501,-1.2501,-1.2501,-1.2501,-1.2501,-1.2501,-1.2501,-1.2501,-1.2501,-1.2501,-1.2569,-1.2679,-1.301,-1.3214,-1.3214,-1.3214,-1.3207,-1.3186,-1.299,-1.3037,-1.3268,-1.3159,-1.2685,-1.193,-1.289,-1.2307,-1.0598,-1.157,-1.1469,-1.059,-1.059,-1.1718,-1.3403,-1.3403,-1.3437,-1.3512,-1.3619,-1.381,-1.396,-1.4116,-1.4224,-1.4299,-1.4299,-1.4299,-1.4299,-1.4299,-1.4299,-1.4312,-1.4373,-1.4543,-1.4726,-1.4814,-1.495,-1.5052,-1.5018,-1.5099,-1.5181,-1.5181,-1.5181,-1.5181,-1.5181,-1.5181,-1.5181,-1.5181,-1.029,-0.8353,-1.4322,-1.5181,-1.5181,-1.5181,-1.5181,-1.2045,-0.3852,-0.1191,-0.043,-0.1485,-0.4305,-0.5841,-0.5433,-0.6824,-0.8167,-0.922,-0.8229,-0.8691,-1.0835,-0.9746,-1.0437,-1.2999,-1.1909,-1.1956,-1.2999,-1.4516,-1.5181,0.0,0.0,0.0,0.0,0.0,0.0,-0.7293,-0.8114,-0.906,0.0,-1.0426,-1.0732,-1.1009,-1.1267,-1.1504,-1.1577,-1.183,-1.2139,-1.2433,-1.2481,-1.2481,-1.2501,-1.2501,-1.2501,-1.2501,-1.2501,-1.2501,-1.2501,-1.2501,-1.2569,-1.2679,-1.2996,-1.32,-1.3214,-1.3227,-1.3261,-1.3397,-1.3247,-1.3124,-1.3017,-1.2872,-1.1651,-0.9522,-1.154,-1.0306,-0.6646,-0.8709,-0.8498,-0.67,-0.67,-0.904,-1.2644,-1.2644,-1.2733,-1.2832,-1.2966,-1.315,-1.3341,-1.3438,-1.3489,-1.3489,-1.3489,-1.3489,-1.3533,-1.3805,-1.373,-1.3547,-1.3649,-1.4114,-1.46,-1.4613,-1.4899,-1.5181,-1.5181,-1.5181,-1.5181,-1.5181,-1.5181,-1.5181,-1.5181,-1.5181,-1.5181,-1.5181,-1.5181,-1.5181,-1.5181,-1.5181,-1.5181,-1.5181,-1.4228,-1.0054,-0.0954,0.0,-0.091,-0.3184,-0.3385,-0.4463,-0.7037,-0.7817,-0.9225,-1.1523,-0.9687,-1.0802,-1.5336,-1.3086,-1.2963,-1.5181,-1.2952,-1.2999,-1.5181,-1.5181,-1.5181,0.0,-0.0973,-0.1953,0.0,0.0,0.0,-0.5555,-0.6073,-0.6824,0.0,-0.9083,-0.9311,-0.9964,-1.0337,-1.0507,-1.038,-1.1029,-1.1714,-1.2257,-1.2332,-1.2372,-1.2488,-1.2501,-1.2501,-1.2501,-1.2501,-1.2501,-1.2501,-1.2501,-1.2569,-1.2679,-1.2901,-1.3098,-1.3207,-1.3295,-1.337,-1.3403,-1.3247,-1.2332,-1.0668,-1.0549,-0.9341,-0.7304,-0.7762,-0.747,-0.668,-0.7152,-0.7118,-0.67,-0.67,-0.7201,-0.7998,-0.7998,-0.8009,-0.8055,-0.8183,-0.8271,-0.8316,-0.8453,-0.8486,-0.8486,-0.8486,-0.8486,-0.8886,-1.0806,-1.0059,-0.8537,-0.8735,-1.0296,-1.1987,-1.2085,-1.3645,-1.5181,-1.5181,-1.5181,-1.5181,-1.5181,-1.5181,-1.5181,-1.5181,-1.5181,-1.5181,-1.5181,-1.5181,-1.5181,-1.5181,-1.5181,-1.5181,-1.5181,-0.8022,-0.2191,-0.0191,0.0,-0.0192,-0.0679,-0.0735,-0.182,-0.4356,-0.8499,-1.1081,-1.1571,-1.3208,-1.4568,-1.5546,-1.4961,-1.4823,-1.5181,-1.4704,-1.4704,-1.5181,-1.5181,-1.5181,0.0,-0.0869,-0.1637,-0.0968,0.0,0.0,0.0,-0.4367,-0.5454,-0.7414,-0.7795,-0.8162,-0.9386,-0.9727,-0.9883,-1.0025,-1.0555,-1.1104,-1.1558,-1.1938,-1.2241,-1.2277,-1.2284,-1.2311,-1.2386,-1.2393,-1.2427,-1.2494,-1.2501,-1.2535,-1.261,-1.2766,-1.2915,-1.3105,-1.3248,-1.3322,-1.3403,-1.3322,-1.2206,-1.0045,-0.9943,-0.8213,-0.5073,-0.619,-0.546,-0.3399,-0.4528,-0.4363,-0.3358,-0.3358,-0.3358,-0.3566,-0.5825,-0.6726,-0.6827,-0.6865,-0.6949,-0.7007,-0.7091,-0.7102,-0.7102,-0.7102,-0.7102,-0.7324,-0.853,-0.8125,-0.7291,-0.7356,-0.8349,-0.9616,-1.0517,-1.2952,-1.5181,-1.5181,-1.1333,-0.9015,-1.4087,-1.5181,-1.3704,-0.8589,-0.7643,-0.9251,-1.4322,-1.5181,-1.5181,-1.5181,-1.0861,-0.944,-1.4563,-0.6316,0.0,0.0,0.0,0.0,0.0,0.0,-0.0546,-0.184,-0.5603,-0.842,-0.9756,-1.2324,-1.4286,-1.5593,-1.5512,-1.5486,-1.5411,-1.5411,-1.533,-1.5181,-1.5262,-1.5296,0.0,0.0,0.0,0.0,0.0,-0.2908,0.0,0.0,0.0,-0.6297,0.0,0.0,0.0,0.0,0.0,0.0,0.0,0.0,0.0,-1.1219,0.0,-1.1907,-1.1975,-1.2064,-1.2149,-1.2135,-1.2223,-1.2481,-1.2393,-1.2379,-1.2494,-1.2651,-1.28,-1.2996,-1.3139,-1.3247,-1.3397,-1.2982,-1.1653,-0.9426,-0.893,-0.6629,-0.2807,-0.4576,-0.3445,-0.0084,-0.1891,-0.1639,0.0,0.0,0.0,-0.0379,-0.3996,-0.5489,-0.5586,-0.5553,-0.5627,-0.5722,-0.5722,-0.5722,-0.5722,-0.5722,-0.604,-0.6323,-0.5887,-0.615,-0.6574,-0.6129,-0.6418,-0.7166,-0.8542,-1.1286,-1.3751,-1.3751,-0.6695,-0.2238,-1.0479,-1.2281,-0.9818,-0.162,0.0,-0.2619,-1.0861,-1.2281,-1.2281,-1.2281,-0.5275,-0.295,-1.1192,-0.5072,0.0,0.0,0.0,0.0,0.0,0.0,0.0,0.0,-0.2519,-0.498,-0.7136,-1.0221,-1.3054,-1.5634,-1.5683,-1.5621,-1.5593,-1.5593,-1.5513,-1.5276,-1.5398,-1.5165,0.0,0.0,0.0,0.0,-0.0219,0.0,0.0,0.0,-0.2957,-0.5404,0.0,0.0,0.0,0.0,0.0,0.0,0.0,0.0,-0.9417,-0.989,-1.0488,-1.122,-1.1504,-1.1674,-1.1694,-1.1572,-1.1775,-1.2447,-1.2013,-1.1945,-1.2474,-1.2651,-1.28,-1.2996,-1.3139,-1.3247,-1.3397,-1.1469,-0.9321,-0.708,-0.5028,-0.2766,-0.0414,-0.0662,-0.05,0.0,-0.0253,-0.0253,0.0,0.0,0.0,-0.0042,-0.0553,-0.0774,-0.0783,-0.079,-0.0799,-0.0807,-0.0807,-0.0807,-0.0807,-0.0807,-0.2254,-0.3591,-0.147,-0.2321,-0.3564,-0.1423,-0.2472,-0.4276,-0.4466,-0.6456,-0.8447,-0.8447,-0.4137,-0.0334,-0.1477,-0.1715,-0.1382,-0.0239,0.0,-0.0382,-0.1525,-0.1715,-0.1715,-0.1715,-0.0763,-0.0429,-0.1573,-0.0737,0.0,0.0,0.0,0.0,0.0,0.0,0.0,0.0,-0.2519,-0.4125,-0.4427,-0.9378,-1.3277,-1.5832,-1.5874,-1.5764,-1.5593,-1.5593,-1.5573,-1.5539,-1.556,-1.429,0.0,0.0,0.0,0.0,0.0,0.0,0.0,0.0,-0.1618,0.0,0.0,0.0,0.0,0.0,0.0,0.0,-0.6932,0.0,0.0,0.0,-0.8854,0.0,0.0,0.0,-1.1029,-1.1192,-1.1499,-1.1952,-1.1726,-1.1803,-1.2223,-1.2467,-1.2712,-1.2996,-1.3057,-1.2544,-1.1441,-1.0511,-0.8256,-0.4735,-0.3758,-0.2133,0.0,0.0,0.0,0.0,0.0,0.0,0.0,0.0,0.0,0.0,0.0,0.0,0.0,0.0,0.0,0.0,0.0,0.0,0.0,0.0,-0.0681,-0.1325,-0.0325,-0.0702,-0.1318,-0.0285,-0.0763,-0.1572,-0.1572,-0.2381,-0.3188,-0.3188,-0.1573,0.0,0.0,0.0,0.0,0.0,0.0,0.0,0.0,0.0,0.0,0.0,0.0,0.0,0.0,0.0,0.0,0.0,0.0,0.0,0.0,0.0,0.0,0.0,-0.2519,-0.4678,-0.6233,-1.004,-1.3328,-1.5938,-1.6037,-1.5954,-1.5893,-1.5893,-1.5893,-1.5893,-1.5805,-1.5165,0.0,0.0,0.0,0.0,0.0,0.0,0.0,0.0,0.0,0.0,0.0,0.0,0.0,0.0,0.0,0.0,0.0,0.0,0.0,0.0,0.0,0.0,0.0,0.0,0.0,-1.0643,-1.0934,-1.145,-1.1301,-1.1443,-1.207,-1.2264,-1.2594,-1.2989,-1.2388,-1.1415,-1.0045,-0.8796,-0.6543,-0.3325,-0.2687,-0.1555,0.0,0.0,0.0,0.0,0.0,0.0,0.0,0.0,0.0,0.0,0.0,0.0,0.0,0.0,0.0,0.0,0.0,0.0,0.0,0.0,0.0,0.0,0.0,0.0,0.0,0.0,0.0,0.0,0.0,0.0,0.0,0.0,0.0,0.0,0.0,0.0,0.0,0.0,0.0,0.0,0.0,0.0,0.0,0.0,0.0,0.0,0.0,0.0,0.0,0.0,0.0,0.0,0.0,0.0,0.0,0.0,-0.1815,-0.4127,-0.6785,-0.954,-1.2253,-1.4968,-1.5728,-1.6083,-1.6083,-1.6083,-1.6083,-1.6076,-1.6017,-1.5562,0.0,0.0,0.0,0.0,0.0,0.0,0.0,0.0,-0.0407,0.0,0.0,0.0,0.0,0.0,0.0,0.0,0.0,0.0,0.0,0.0,0.0,0.0,0.0,0.0,0.0,-0.9805,-0.9954,0.0,-1.0475,-1.0644,-1.203,-1.2111,-1.2383,-1.2982,-1.085,-0.982,-1.0081,-0.5739,-0.3485,-0.3366,-0.1151,-0.0082,0.0,0.0,0.0,0.0,0.0,0.0,0.0,0.0,0.0,0.0,0.0,0.0,0.0,0.0,0.0,0.0,0.0,0.0,0.0,0.0,0.0,0.0,0.0,0.0,0.0,0.0,0.0,0.0,0.0,0.0,0.0,0.0,0.0,0.0,0.0,0.0,0.0,0.0,0.0,0.0,0.0,0.0,0.0,0.0,0.0,0.0,0.0,0.0,0.0,0.0,0.0,0.0,0.0,0.0,0.0,0.0,-0.0101,-0.1311,-0.4026,-0.6684,-0.944,-1.2148,-1.4769,-1.6083,-1.6083,-1.6083,-1.6083,-1.6083,-1.6076,-1.4707,0.0,0.0,0.0,0.0,0.0,0.0,0.0,0.0,0.0,0.0,0.0,0.0,0.0,0.0,0.0,0.0,0.0,0.0,0.0,0.0,0.0,0.0,0.0,0.0,0.0,0.0,0.0,-1.0282,-1.0371,0.0,-1.1572,-1.1934,-1.1638,-1.0668,-0.9958,-0.8319,-0.5675,-0.4136,-0.2625,-0.1151,-0.0372,0.0,0.0,0.0,0.0,0.0,0.0,0.0,0.0,0.0,0.0,0.0,0.0,0.0,0.0,0.0,0.0,0.0,0.0,0.0,0.0,0.0,0.0,0.0,0.0,0.0,0.0,0.0,0.0,0.0,0.0,0.0,0.0,0.0,0.0,0.0,0.0,0.0,0.0,0.0,0.0,0.0,0.0,0.0,0.0,0.0,0.0,0.0,0.0,0.0,0.0,0.0,0.0,0.0,0.0,0.0,0.0,0.0,0.0,-0.1211,-0.3875,-0.4879,-0.7487,-1.1998,-1.3001,-1.4315,-1.6083,-1.6083,-1.6083,-1.6083,-1.6083,-1.4663,0.0,0.0,0.0,0.0,0.0,0.0,0.0,0.0,0.0,0.0,0.0,0.0,0.0,0.0,0.0,0.0,0.0,0.0,0.0,0.0,0.0,0.0,0.0,0.0,0.0,0.0,-0.75,-0.8958,-0.9682,0.0,0.0,-1.166,-1.1145,-0.939,-0.8748,-0.6811,-0.3404,-0.2594,-0.1463,0.0,0.0,0.0,0.0,0.0,0.0,0.0,0.0,0.0,0.0,0.0,0.0,0.0,0.0,0.0,0.0,0.0,0.0,0.0,0.0,0.0,0.0,0.0,0.0,0.0,0.0,0.0,0.0,0.0,0.0,0.0,0.0,0.0,0.0,0.0,0.0,0.0,0.0,0.0,0.0,0.0,0.0,0.0,0.0,0.0,0.0,0.0,0.0,0.0,0.0,0.0,0.0,0.0,0.0,0.0,0.0,0.0,0.0,0.0,0.0,-0.0757,-0.2519,-0.3473,-0.563,-0.9136,-1.1144,-1.2951,-1.4669,-1.5628,-1.6083,-1.6083,-1.6083,-1.4165]},{"header":{"parameterUnit":"m.s-1","parameterCategory":1,"la1":30.6,"la2":29.2853,"lo1":-89.7004,"lo2":-87.6739,"dy":0.0162,"dx":0.0183,"nx":112,"ny":82,"refTime":"2026-04-20T12:00:00:Z","depth":0,"parameterNumber":3,"parameterNumberName":"V-component_of_WINDS"},"data":[0.0,0.0,0.0,0.0,0.0,0.0,0.0,0.0,0.0,0.0,0.0,0.0,0.0,0.0,0.0,0.0,0.0,0.0,0.0,0.0,0.0,0.0,0.0,0.0,0.0,0.0,0.0,0.0,0.0,0.0,0.0,0.0,0.0,0.0,0.0,0.0,0.0,0.0,0.0,0.0,0.0,0.0,0.0,0.0,0.0,0.0,0.0,0.0,0.0,0.0,0.0,0.0,0.0,0.0,0.0,0.0,0.0,0.0,0.0,0.0,0.0,0.0,0.0,0.0,0.0,0.0,0.0,0.0,0.0,0.0,0.0,0.0,0.0,0.0,0.0,0.0,0.0,0.0,0.0,0.0,0.0,0.0,0.0,0.0,0.0,0.0,0.0,0.0,0.0,0.0,0.0,2.6836,3.0679,3.3355,3.4115,3.266,3.0871,2.8917,0.0,0.0,0.0,0.0,0.0,0.0,0.0,0.0,0.0,0.0,0.0,0.0,0.0,0.0,0.0,0.0,0.0,0.0,0.0,0.0,0.0,0.0,0.0,0.0,0.0,0.0,0.0,0.0,0.0,0.0,0.0,0.0,0.0,0.0,0.0,0.0,0.0,0.0,0.0,0.0,0.0,0.0,0.0,0.0,0.0,0.0,0.0,0.0,0.0,0.0,0.0,0.0,0.0,0.0,0.0,0.0,0.0,0.0,0.0,0.0,0.0,0.0,0.0,0.0,0.0,0.0,0.0,0.0,0.0,0.0,0.0,0.0,0.0,0.0,0.0,0.0,0.0,0.0,0.0,0.0,0.0,0.0,0.0,0.0,0.0,0.0,0.0,0.0,0.0,0.0,0.0,0.0,0.0,0.0,0.0,0.0,0.0,0.0,0.0,0.0,0.0,0.0,0.0,0.0,2.507,3.0964,3.37,3.4826,3.4241,3.266,3.0871,2.8917,0.0,0.0,0.0,0.0,0.0,0.0,0.0,0.0,0.0,0.0,0.0,0.0,0.0,0.0,0.0,0.0,0.0,0.0,0.0,0.0,0.0,0.0,0.0,0.0,0.0,0.0,0.0,0.0,0.0,0.0,0.0,0.0,0.0,0.0,0.0,0.0,0.0,0.0,0.0,0.0,0.0,0.0,0.0,0.0,0.0,0.0,0.0,0.0,0.0,0.0,0.0,0.0,0.0,0.0,0.0,0.0,0.0,0.0,0.0,0.0,0.0,0.0,0.0,0.0,0.0,0.0,0.0,0.0,0.0,0.0,0.0,0.0,0.0,0.0,0.0,0.0,0.0,0.0,0.0,0.0,0.0,0.0,0.0,0.0,0.0,0.0,0.0,0.0,0.0,0.0,0.0,0.0,0.0,0.0,0.0,0.0,0.0,0.0,0.0,0.0,0.0,0.0,0.0,2.5813,2.8461,3.2966,3.4697,3.5346,3.493,3.3353,3.1594,2.9797,2.6669,0.0,0.0,0.0,0.0,0.0,0.0,0.0,0.0,0.0,0.0,0.0,0.0,0.0,0.0,0.0,0.0,0.0,0.0,0.0,0.0,0.0,0.0,0.0,0.0,0.0,0.0,0.0,0.0,0.0,0.0,0.0,0.0,0.0,0.0,0.0,0.0,0.0,0.0,0.0,0.0,0.0,0.0,0.0,0.0,0.0,0.0,0.0,0.0,0.0,0.0,0.0,0.0,0.0,0.0,0.0,0.0,0.0,0.0,0.0,0.0,0.0,0.0,0.0,0.0,0.0,0.0,0.0,0.0,0.0,0.0,0.0,0.0,0.0,0.0,0.0,0.0,0.0,0.0,0.0,0.0,0.0,0.0,0.0,0.0,0.0,0.0,0.0,0.0,0.0,0.0,0.0,0.0,0.0,0.0,0.0,0.0,0.0,0.0,0.0,0.0,0.0,0.0,3.0001,3.1656,3.4224,3.5119,3.55,3.55,3.3734,3.1965,3.05,2.6747,0.0,0.0,0.0,0.0,0.0,0.0,0.0,0.0,0.0,0.0,0.0,0.0,0.0,0.0,0.0,0.0,0.0,0.0,0.0,0.0,0.0,0.0,0.0,0.0,0.0,0.0,0.0,0.0,0.0,0.0,0.0,0.0,0.0,0.0,0.0,0.0,0.0,0.0,0.0,0.0,0.0,0.0,0.0,0.0,0.0,0.0,0.0,0.0,0.0,0.0,0.0,0.0,0.0,0.0,0.0,0.0,0.0,0.0,0.0,0.0,0.0,0.0,0.0,0.0,0.0,0.0,0.0,0.0,0.0,0.0,0.0,0.0,0.0,0.0,0.0,0.0,0.0,0.0,0.0,0.0,0.0,0.0,0.0,0.0,0.0,0.0,0.0,0.0,0.0,0.0,0.0,0.0,0.0,0.0,0.0,0.0,0.0,0.0,0.0,0.0,0.0,0.0,3.0868,3.3207,3.5175,3.5462,3.55,3.55,3.3234,3.1388,3.0462,2.6165,0.0,0.0,0.0,0.0,0.0,0.0,0.0,0.0,0.0,0.0,0.0,0.0,0.0,0.0,0.0,0.0,0.0,0.0,0.0,0.0,0.0,0.0,0.0,0.0,0.0,0.0,0.0,0.0,0.0,0.0,0.0,0.0,0.0,0.0,0.0,0.0,0.0,0.0,0.0,0.0,0.0,0.0,0.0,0.0,0.0,0.0,0.0,0.0,0.0,0.0,0.0,0.0,0.0,0.0,0.0,0.0,0.0,0.0,0.0,0.0,0.0,0.0,0.0,0.0,0.0,0.0,0.0,0.0,0.0,0.0,0.0,0.0,0.0,0.0,0.0,0.0,0.0,0.0,0.0,0.0,0.0,0.0,0.0,0.0,0.0,0.0,0.0,0.0,0.0,0.0,0.0,0.0,0.0,0.0,0.0,0.0,0.0,0.0,0.0,0.0,0.0,0.0,3.1821,3.4288,0.0,3.6231,3.6231,3.6231,3.3926,3.1818,3.0308,0.0,0.0,0.0,0.0,0.0,0.0,0.0,0.0,0.0,0.0,0.0,0.0,0.0,0.0,0.0,0.0,0.0,0.0,0.0,0.0,0.0,0.0,0.0,0.0,0.0,0.0,0.0,0.0,0.0,0.0,0.0,0.0,0.0,0.0,0.0,0.0,0.0,0.0,0.0,0.0,0.0,0.0,0.0,0.0,0.0,0.0,0.0,0.0,0.0,0.0,0.0,0.0,0.0,0.0,0.0,0.0,0.0,0.0,0.0,0.0,0.0,0.0,0.0,0.0,0.0,0.0,0.0,0.0,0.0,0.0,0.0,0.0,0.0,0.0,0.0,0.0,0.0,0.0,0.0,0.0,0.0,0.0,0.0,0.0,0.0,0.0,0.0,0.0,0.0,0.0,0.0,0.0,0.0,0.0,0.0,0.0,0.0,0.0,0.0,0.0,0.0,0.0,2.9771,3.2797,3.5238,0.0,3.7119,3.7004,3.6734,3.4349,3.2106,3.0234,0.0,0.0,0.0,0.0,0.0,0.0,0.0,0.0,0.0,0.0,0.0,0.0,0.0,0.0,0.0,0.0,0.0,0.0,0.0,0.0,0.0,0.0,0.0,0.0,0.0,0.0,0.0,0.0,0.0,0.0,0.0,0.0,0.0,0.0,0.0,0.0,0.0,0.0,0.0,0.0,0.0,0.0,0.0,0.0,0.0,0.0,0.0,0.0,0.0,0.0,0.0,0.0,0.0,0.0,0.0,0.0,0.0,0.0,0.0,0.0,0.0,0.0,0.0,0.0,0.0,0.0,0.0,0.0,0.0,0.0,0.0,0.0,0.0,0.0,0.0,0.0,0.0,0.0,0.0,0.0,0.0,0.0,0.0,0.0,0.0,0.0,0.0,0.0,0.0,0.0,0.0,0.0,0.0,0.0,0.0,0.0,0.0,0.0,0.0,0.0,0.0,0.0,3.0679,3.3681,3.6157,3.7853,3.8007,3.7661,3.6773,3.4388,3.2106,0.0,0.0,0.0,0.0,0.0,0.0,0.0,0.0,0.0,0.0,0.0,0.0,0.0,0.0,0.0,0.0,0.0,0.0,0.0,0.0,0.0,0.0,0.0,0.0,0.0,0.0,0.0,0.0,0.0,0.0,0.0,0.0,0.0,0.0,0.0,0.0,0.0,0.0,0.0,0.0,0.0,0.0,0.0,0.0,0.0,0.0,0.0,0.0,0.0,0.0,0.0,0.0,0.0,0.0,0.0,0.0,0.0,0.0,0.0,0.0,0.0,0.0,0.0,0.0,0.0,0.0,0.0,0.0,0.0,0.0,0.0,0.0,0.0,0.0,0.0,0.0,0.0,0.0,0.0,0.0,0.0,0.0,0.0,0.0,0.0,0.0,0.0,0.0,0.0,0.0,0.0,0.0,0.0,0.0,0.0,0.0,0.0,0.0,0.0,0.0,0.0,0.0,0.0,3.0948,3.4779,3.77,3.8819,3.8934,3.855,3.77,3.5276,3.2762,3.0272,0.0,0.0,0.0,0.0,0.0,0.0,0.0,0.0,0.0,0.0,0.0,0.0,0.0,0.0,0.0,0.0,0.0,0.0,0.0,0.0,0.0,0.0,0.0,0.0,0.0,0.0,0.0,0.0,0.0,0.0,0.0,0.0,0.0,0.0,0.0,0.0,0.0,0.0,0.0,0.0,0.0,0.0,0.0,0.0,0.0,0.0,0.0,0.0,0.0,0.0,0.0,0.0,0.0,0.0,0.0,0.0,0.0,0.0,0.0,0.0,0.0,0.0,0.0,0.0,0.0,0.0,0.0,0.0,0.0,0.0,0.0,0.0,0.0,0.0,0.0,0.0,0.0,0.0,0.0,0.0,0.0,0.0,0.0,0.0,0.0,0.0,0.0,0.0,0.0,0.0,0.0,0.0,0.0,0.0,0.0,0.0,0.0,0.0,0.0,0.0,0.0,0.0,3.1546,3.5771,3.8857,3.9704,3.9785,3.9434,3.8588,3.6469,3.3873,3.0803,0.0,0.0,0.0,0.0,0.0,0.0,0.0,0.0,0.0,0.0,0.0,0.0,0.0,0.0,0.0,0.0,0.0,0.0,0.0,0.0,0.0,0.0,0.0,0.0,0.0,0.0,0.0,0.0,0.0,0.0,0.0,0.0,0.0,0.0,0.0,0.0,0.0,0.0,0.0,0.0,0.0,0.0,0.0,0.0,0.0,0.0,0.0,0.0,0.0,0.0,0.0,0.0,0.0,0.0,0.0,0.0,0.0,0.0,0.0,0.0,0.0,0.0,0.0,0.0,0.0,0.0,0.0,0.0,0.0,0.0,0.0,0.0,0.0,0.0,0.0,0.0,0.0,0.0,0.0,0.0,0.0,0.0,0.0,0.0,0.0,0.0,0.0,0.0,0.0,0.0,0.0,0.0,0.0,0.0,0.0,0.0,0.0,0.0,0.0,0.0,0.0,0.0,3.2412,3.6665,3.9742,4.0669,4.0746,4.04,3.9473,3.7892,3.5412,3.1781,0.0,0.0,0.0,0.0,0.0,0.0,0.0,0.0,0.0,0.0,0.0,0.0,0.0,0.0,0.0,0.0,0.0,0.0,0.0,0.0,0.0,0.0,0.0,0.0,0.0,0.0,0.0,0.0,0.0,0.0,0.0,0.0,0.0,0.0,0.0,0.0,0.0,0.0,0.0,0.0,0.0,0.0,0.0,0.0,0.0,0.0,0.0,0.0,0.0,0.0,0.0,0.0,0.0,0.0,0.0,0.0,0.0,0.0,0.0,0.0,2.6213,0.0,0.0,0.0,0.0,0.0,0.0,0.0,0.0,0.0,0.0,0.0,0.0,0.0,0.0,0.0,0.0,0.0,0.0,0.0,0.0,0.0,0.0,0.0,0.0,0.0,0.0,0.0,0.0,0.0,0.0,0.0,0.0,0.0,0.0,0.0,0.0,0.0,0.0,0.0,0.0,0.0,3.3517,3.7612,4.0819,4.2393,4.2547,4.1935,4.04,3.9319,3.6996,3.2849,0.0,0.0,0.0,0.0,0.0,0.0,0.0,0.0,0.0,0.0,0.0,0.0,0.0,0.0,0.0,0.0,0.0,0.0,0.0,0.0,0.0,0.0,0.0,0.0,0.0,0.0,0.0,0.0,0.0,0.0,0.0,0.0,0.0,0.0,0.0,0.0,0.0,0.0,0.0,0.0,0.0,0.0,0.0,0.0,0.0,0.0,0.0,0.0,0.0,0.0,0.0,0.0,0.0,0.0,0.0,0.0,0.0,0.0,0.0,0.0,0.0,2.9156,0.0,0.0,0.0,0.0,0.0,0.0,0.0,0.0,0.0,0.0,0.0,0.0,0.0,0.0,0.0,0.0,0.0,0.0,0.0,0.0,0.0,0.0,0.0,0.0,0.0,0.0,0.0,0.0,0.0,0.0,0.0,0.0,0.0,0.0,0.0,0.0,0.0,0.0,0.0,0.0,3.4438,3.8507,4.1623,4.297,4.3085,4.2739,4.182,4.0589,3.8588,3.5545,3.2233,0.0,0.0,0.0,0.0,0.0,0.0,0.0,0.0,0.0,0.0,0.0,0.0,0.0,0.0,0.0,0.0,0.0,0.0,0.0,0.0,0.0,0.0,0.0,0.0,0.0,0.0,0.0,0.0,0.0,0.0,0.0,0.0,0.0,0.0,0.0,0.0,0.0,0.0,0.0,0.0,0.0,0.0,0.0,0.0,0.0,0.0,0.0,0.0,0.0,0.0,0.0,0.0,0.0,3.6681,3.7815,3.8899,3.9135,3.962,4.0066,3.6937,3.5122,3.4123,3.152,0.0,0.0,0.0,0.0,0.0,0.0,0.0,0.0,0.0,0.0,0.0,0.0,0.0,0.0,0.0,0.0,0.0,0.0,0.0,0.0,0.0,0.0,0.0,0.0,3.6243,3.601,0.0,0.0,0.0,0.0,0.0,0.0,0.0,0.0,0.0,0.0,0.0,0.0,3.578,3.9735,4.2581,4.3431,4.3547,4.347,4.3316,4.1974,4.0319,3.8354,3.5081,3.2074,0.0,0.0,0.0,0.0,0.0,0.0,0.0,0.0,0.0,0.0,0.0,0.0,0.0,0.0,0.0,0.0,0.0,0.0,0.0,0.0,0.0,0.0,0.0,0.0,0.0,0.0,0.0,0.0,0.0,0.0,0.0,0.0,2.3748,2.6283,0.0,0.0,0.0,0.0,0.0,0.0,0.0,0.0,0.0,0.0,0.0,0.0,0.0,3.3359,3.4756,3.7532,3.9325,4.0174,4.2803,4.4234,4.4484,4.564,4.6225,4.6354,4.6287,0.0,3.8229,3.5908,0.0,0.0,0.0,0.0,0.0,0.0,0.0,0.0,0.0,0.0,0.0,0.0,0.0,0.0,0.0,0.0,0.0,0.0,0.0,0.0,0.0,0.0,4.0904,4.0657,4.1596,4.1926,0.0,3.5211,3.1195,2.9594,2.8815,0.0,0.0,0.0,0.0,0.0,0.0,0.0,3.8397,4.182,4.4316,4.5167,4.5282,4.4975,4.4201,4.3936,4.2474,3.9319,3.778,3.5699,3.2883,2.9655,0.0,0.0,0.0,0.0,0.0,0.0,0.0,0.0,0.0,0.0,0.0,0.0,0.0,0.0,0.0,0.0,0.0,0.0,0.0,0.0,0.0,0.0,0.0,0.0,0.0,0.0,0.0,0.0,0.0,2.3977,2.6235,2.728,2.7552,2.7415,0.0,0.0,0.0,0.0,0.0,0.0,0.0,0.0,0.0,3.6528,3.7718,3.9185,4.1114,4.3249,4.4673,4.5337,4.7074,4.808,4.8487,4.9086,4.9362,4.9372,4.9611,4.8182,4.5432,4.1668,3.9467,3.8195,0.0,0.0,0.0,0.0,3.6116,3.6261,3.8409,3.9026,0.0,3.8194,0.0,0.0,0.0,0.0,0.0,0.0,0.0,0.0,0.0,0.0,4.376,4.453,4.5138,4.5338,4.46,4.2057,3.8775,0.0,3.4261,3.3065,2.9251,0.0,0.0,0.0,0.0,0.0,4.0326,4.2816,4.4628,4.5518,4.5594,4.5436,4.5051,4.459,4.3666,4.2205,4.0193,3.8278,3.6572,3.3398,3.0735,0.0,0.0,0.0,0.0,0.0,0.0,0.0,0.0,0.0,0.0,0.0,0.0,0.0,0.0,0.0,0.0,0.0,0.0,0.0,0.0,0.0,0.0,0.0,0.0,0.0,0.0,0.0,0.0,2.7045,2.887,2.8834,3.0525,3.1002,0.0,0.0,0.0,0.0,0.0,0.0,3.5284,3.6703,3.8859,4.1866,4.3213,4.4859,4.6898,4.8234,4.9336,5.0185,5.0707,5.134,5.2013,5.2013,5.2013,5.2013,5.2013,5.1903,5.1353,4.6654,4.4011,4.2766,4.0853,4.0094,4.0205,4.1267,4.1505,4.1668,4.4231,4.4929,4.4562,4.3599,4.2718,4.1609,3.925,0.0,0.0,0.0,0.0,4.1152,4.4518,4.5881,4.6765,4.8167,4.8605,4.8593,4.8397,4.7694,4.556,0.0,3.9612,3.8565,3.4358,0.0,0.0,0.0,0.0,3.9802,4.2142,4.3701,4.4898,4.5518,4.5594,4.5594,4.5594,4.5013,4.4551,4.4316,4.2333,4.0768,3.989,3.7017,3.4459,3.2297,0.0,0.0,0.0,0.0,0.0,0.0,0.0,0.0,0.0,0.0,0.0,0.0,0.0,0.0,0.0,0.0,0.0,0.0,0.0,0.0,0.0,0.0,0.0,0.0,0.0,0.0,0.0,0.0,0.0,3.2658,3.4658,0.0,0.0,0.0,0.0,3.3236,3.5804,3.8358,4.0583,4.2046,4.4207,4.7216,4.8175,4.9329,5.0715,5.1581,5.269,5.411,5.4136,5.4598,5.5365,5.5365,5.5365,5.5365,5.5365,5.4924,5.3885,4.9774,4.8003,4.7783,4.6122,4.5498,4.5599,4.6415,4.6708,4.6837,4.7754,4.8067,4.8196,4.894,4.7058,4.4715,4.5658,4.4334,0.0,0.0,4.6592,4.8242,4.9967,5.0752,5.1292,5.2113,5.2629,5.2661,5.1854,5.1014,4.9245,0.0,4.3948,4.2959,4.0865,0.0,4.1008,4.0979,4.1791,4.2862,4.403,4.4975,4.5556,4.5594,4.5594,4.5594,4.5594,4.5556,4.5167,4.4355,4.4154,4.3596,4.2453,4.0015,3.7963,3.6521,3.2531,0.0,0.0,0.0,0.0,0.0,0.0,0.0,0.0,0.0,0.0,0.0,0.0,0.0,0.0,0.0,0.0,0.0,0.0,0.0,0.0,0.0,0.0,0.0,0.0,0.0,0.0,0.0,0.0,3.6872,3.8752,0.0,3.7921,3.8735,3.9545,4.0111,4.2192,4.4246,4.6094,4.747,4.9201,5.1299,5.2106,5.296,5.3953,5.4234,5.4663,5.5181,5.5181,5.5574,5.6345,5.5842,5.6049,5.6803,5.6294,5.6057,5.5966,5.4495,5.2949,5.1416,5.0829,5.0608,5.0645,5.0939,5.1049,5.1086,5.1342,5.164,5.2002,5.2612,5.1645,5.0215,5.0138,4.91,4.8176,4.9144,4.9879,5.064,5.1988,5.2455,5.2648,5.2905,5.3096,5.3121,5.2813,5.251,5.1888,5.0457,4.8222,4.588,4.3518,4.4144,4.4377,4.2727,4.3695,4.4716,4.5086,4.5398,4.5594,4.5594,4.5594,4.5594,4.5594,4.5594,4.5475,4.5167,4.4628,4.4132,4.3707,4.1614,3.963,3.7934,3.5175,3.1635,0.0,0.0,0.0,0.0,0.0,0.0,0.0,0.0,0.0,0.0,0.0,0.0,0.0,0.0,0.0,0.0,0.0,0.0,0.0,0.0,0.0,0.0,0.0,0.0,0.0,0.0,3.9443,4.0093,4.2776,4.392,4.2368,4.3722,4.4953,4.5566,4.7418,4.9067,5.0402,5.1687,5.3116,5.4773,5.5495,5.6324,5.732,5.7444,5.7555,5.7718,5.7718,5.8015,5.8513,5.7978,5.8171,5.8943,5.8428,5.8368,5.8656,5.8656,5.7648,5.6,5.4751,5.4337,5.4449,5.4297,5.4347,5.4469,5.4469,5.468,5.4986,5.5306,5.4843,5.4072,5.3684,5.3151,5.2772,5.3179,5.3492,5.3916,5.4699,5.4928,5.4928,5.4928,5.4703,5.4395,5.4126,5.3818,5.3549,5.3274,5.112,4.8851,4.7163,4.7615,4.7568,4.5522,4.6198,4.6839,4.6484,4.6436,4.6436,4.6436,4.6206,4.6052,4.6052,4.5782,4.5594,4.5594,4.4782,4.4316,4.4316,4.2369,4.0672,3.9352,3.6701,3.3198,2.8863,0.0,0.0,0.0,0.0,0.0,0.0,0.0,0.0,0.0,0.0,0.0,0.0,0.0,0.0,0.0,0.0,0.0,0.0,0.0,0.0,0.0,0.0,0.0,3.639,4.0239,4.2878,4.241,4.6702,4.8367,4.4993,4.7892,4.9737,4.9233,5.119,5.2722,5.3542,5.4673,5.6042,5.7694,5.8438,5.943,6.0722,6.106,6.1462,6.1887,6.1887,6.1924,6.1924,6.1924,6.1933,6.1951,6.1951,6.1913,6.1931,6.1931,6.1931,6.1585,5.7922,5.674,5.7096,5.6622,5.6758,5.7154,5.717,5.7178,5.7178,5.7195,5.6644,5.6079,5.6463,5.6534,5.6582,5.6982,5.7671,5.8313,5.8313,5.8313,5.8313,5.8313,5.7671,5.6824,5.5978,5.5164,5.4362,5.3482,5.2631,5.2015,5.1977,5.1374,5.06,4.9613,4.9532,0.0,4.8243,4.8086,4.8082,4.8082,4.7389,4.6928,4.6889,4.6124,4.5633,4.5556,4.4782,4.4316,4.4316,4.2417,4.1205,4.0922,3.7083,3.3812,3.1194,0.0,0.0,0.0,0.0,0.0,0.0,0.0,0.0,0.0,0.0,0.0,0.0,0.0,0.0,0.0,0.0,0.0,0.0,0.0,0.0,0.0,0.0,4.1043,4.1043,4.3879,4.6576,4.8211,5.012,5.1197,5.0836,5.2514,5.3578,5.342,5.5396,5.6987,5.7763,5.8651,5.9651,6.0688,6.0895,6.1185,6.1556,6.1675,6.175,6.1887,6.1887,6.2227,6.2746,6.2189,6.2403,6.3256,6.2655,6.2597,6.2926,6.2926,6.2926,6.2748,6.1026,6.0421,6.0519,6.0394,6.0421,6.0588,6.0941,6.1043,6.1127,6.1447,6.1037,6.0374,6.0488,5.963,5.8688,5.8764,5.8588,5.8313,5.8313,5.8313,5.8313,5.8313,5.8127,5.7896,5.7627,5.7396,5.7032,5.6259,5.5402,5.4401,5.3214,5.2372,5.1617,5.0769,5.0028,0.0,4.8342,4.8155,4.8082,4.8082,4.7889,4.7543,4.6966,4.6697,4.6009,4.4744,4.4436,4.4316,4.4316,4.3222,4.2158,4.1215,3.8795,3.6758,0.0,0.0,0.0,0.0,0.0,0.0,0.0,0.0,0.0,0.0,0.0,0.0,0.0,0.0,0.0,0.0,0.0,0.0,0.0,0.0,0.0,0.0,4.2804,4.6168,4.7549,4.8742,5.0102,5.1904,5.3264,5.44,5.5256,5.6313,5.7087,5.7443,5.8896,6.0016,6.0461,6.1141,6.1885,6.2711,6.3044,6.3516,6.4083,6.4297,6.4488,6.4624,6.4761,6.506,6.5427,6.5035,6.5199,6.5833,6.5346,6.5299,6.5572,6.5572,6.561,0.0,0.0,0.0,0.0,0.0,6.2505,6.2536,6.2796,6.2905,6.2967,6.3299,6.3097,6.2738,6.282,6.2118,6.1305,6.1305,6.0961,6.0536,6.0178,6.0101,6.0023,5.9627,5.9279,5.9013,5.9013,5.8742,5.8359,5.7899,5.7476,0.0,5.543,5.3937,5.2743,5.2169,5.1615,5.0917,4.993,4.9747,4.9543,4.924,4.8856,4.8471,4.8009,4.762,0.0,0.0,0.0,4.5008,4.4153,4.3339,0.0,0.0,0.0,0.0,0.0,0.0,0.0,0.0,3.5766,3.6033,0.0,0.0,0.0,0.0,0.0,0.0,0.0,0.0,0.0,0.0,0.0,0.0,0.0,0.0,0.0,0.0,4.7906,5.1152,5.4226,5.4009,5.3769,5.4315,5.6081,5.7607,5.8484,5.9349,6.0156,6.0875,6.1734,6.2223,6.2273,0.0,0.0,0.0,0.0,6.6096,6.7286,6.7773,6.8158,6.8442,6.876,6.8846,6.8737,6.8861,6.8843,6.8728,6.8728,6.8728,6.8728,6.8728,6.8777,6.8543,6.4766,6.3572,6.3933,6.3933,6.3933,6.3933,6.3933,0.0,0.0,6.4038,6.4072,6.4071,6.4098,6.4028,6.395,6.395,6.3872,6.3639,6.2932,6.2738,6.254,6.1756,6.0906,6.0289,6.0289,5.9591,5.8976,5.8875,5.8958,5.8815,5.8003,5.5782,5.3985,5.3643,5.3605,5.3216,5.2226,5.2078,5.1774,5.1053,0.0,0.0,4.9548,4.8856,4.8274,4.7966,4.7274,4.6114,4.4299,4.3596,4.3406,4.3771,4.3882,4.4291,4.4954,4.5896,4.6033,4.5285,4.0311,3.9775,0.0,0.0,0.0,0.0,0.0,0.0,0.0,0.0,0.0,0.0,0.0,0.0,0.0,0.0,0.0,4.6718,5.0729,5.4011,5.537,5.74,5.841,5.749,5.8333,5.9336,6.0158,6.131,6.2138,6.2458,6.3557,6.4322,6.4455,6.5906,6.6784,6.6978,6.7759,6.8284,6.8552,6.8633,6.875,6.8785,0.0,0.0,6.8843,6.8881,6.8877,6.8843,6.8843,6.8843,6.8843,6.8843,6.8864,6.8809,6.8004,6.7748,6.7821,6.7821,6.7821,6.7821,6.7821,6.7821,6.7708,6.7118,6.6892,6.6782,6.6111,6.542,0.0,6.484,6.4337,6.3756,6.36,6.3561,6.3522,6.3364,6.2699,6.2115,6.2115,6.1412,6.0625,6.002,5.9931,5.9726,5.9019,5.7303,5.5817,5.5064,5.416,5.3524,5.3312,5.3065,5.289,5.2741,5.2587,5.1933,5.0553,5.0284,4.9317,4.7274,4.7005,4.6717,4.633,4.6791,4.6772,4.6225,4.6973,4.7109,4.6658,4.8257,4.9335,4.9798,4.6265,4.5403,0.0,0.0,0.0,0.0,0.0,0.0,0.0,0.0,0.0,0.0,0.0,3.9265,4.2136,0.0,4.9258,5.1672,5.4683,5.7079,5.8155,6.0015,6.0725,5.9346,6.0585,6.1875,6.2674,6.3436,6.425,6.5242,6.5889,6.6457,6.698,6.7843,6.831,6.831,6.9127,6.9555,6.9555,7.006,7.0253,7.021,7.036,7.0384,7.0291,7.0426,7.0384,7.0289,7.0289,7.0289,7.0293,7.0428,7.0449,7.0449,7.0449,6.9803,6.8897,6.8897,6.8897,6.8897,6.8897,6.8897,6.8831,6.8551,6.8456,6.8388,6.805,6.7322,6.666,6.666,6.6037,6.5256,6.4827,6.471,6.4591,6.4162,6.3731,6.3458,6.3458,6.2754,6.2022,6.1661,6.1235,6.0694,5.9922,5.9062,5.8046,5.6708,5.6033,5.5295,5.4375,5.4113,5.3879,5.3456,5.3418,5.3073,5.2228,5.215,5.1608,5.0336,4.9878,4.9646,4.9646,4.9607,4.9607,4.9646,5.0118,5.0353,5.0353,5.1242,5.1933,5.2317,5.0822,5.0366,0.0,0.0,0.0,0.0,0.0,0.0,0.0,0.0,3.5846,3.8726,4.1869,4.5154,4.8588,5.1262,5.3863,5.6626,5.8361,5.982,6.1208,6.2243,6.2423,6.1306,6.2784,6.4136,6.4791,6.5298,6.6214,6.7648,6.7885,6.8288,6.8941,6.9177,6.9255,6.9255,7.011,7.0539,7.0539,7.1526,7.1952,7.1856,7.2286,7.2416,7.2263,7.2418,7.2416,7.2262,7.2262,7.2262,7.2266,7.2458,7.25,7.25,7.25,7.1498,6.9962,6.9648,6.9492,6.9492,6.9492,6.9492,6.9509,6.9473,6.9491,6.9501,6.949,6.8984,6.8437,6.8437,6.793,6.7187,6.6328,6.6094,6.5898,6.5,6.4687,6.4531,6.4531,6.3867,6.3242,6.3242,6.2539,6.1719,6.1015,6.0742,6.0037,5.8253,5.7963,5.7387,5.5864,5.5517,5.5112,5.4417,5.4183,5.4025,5.3872,5.3716,5.3599,5.3599,5.2986,5.264,5.264,5.1944,5.1905,5.2601,5.2663,5.3061,5.387,5.4089,5.4255,5.4451,5.4715,5.4587,3.0234,2.9828,3.0683,3.3152,3.3848,3.5297,0.0,0.0,4.2441,4.526,4.817,5.0624,5.197,5.4326,5.6822,5.9068,6.0348,6.1587,6.3233,6.4218,6.4721,6.4567,6.4788,6.4967,6.5045,6.6504,6.7545,6.7846,6.8596,6.9135,6.9332,7.0075,7.0505,7.0505,7.1325,7.1794,7.1794,7.2694,7.3123,7.3121,7.3906,7.4297,7.4296,7.4297,7.4297,7.4296,7.4296,7.4296,7.4296,7.4297,7.4297,7.4297,7.4297,7.4179,7.3786,7.2224,7.1637,7.1637,7.1637,7.1637,7.1521,7.078,7.0546,7.039,6.9726,6.9375,6.9258,6.9258,6.9219,6.8945,6.8125,6.789,6.7695,6.6836,6.6015,6.5469,6.5469,6.4765,6.414,6.414,6.3437,6.2812,6.2734,6.207,6.0976,5.9296,5.8886,5.8694,5.8492,5.7674,5.7097,5.698,5.6352,5.5613,5.484,5.4064,5.3599,5.3599,5.3524,5.3485,5.3485,5.3368,5.3368,5.3446,5.358,5.4085,5.4945,5.5848,5.6677,5.7459,5.8241,5.7686,3.5419,3.5226,0.0,0.0,3.896,4.0962,4.4088,4.5382,4.6813,5.0086,5.2289,5.4236,5.6249,5.8097,5.9808,0.0,6.2196,6.3175,6.4375,6.4525,6.4684,6.5149,6.532,6.5526,6.5938,6.7197,6.821,6.8738,6.9599,7.0307,7.0898,7.125,7.168,7.2187,7.2578,7.3008,7.3515,7.3867,7.4062,7.4062,7.4414,7.4609,7.4609,7.4609,7.4609,7.4609,7.4609,7.4609,7.4609,7.4609,7.4609,7.4609,7.4609,7.4609,7.4492,7.3789,7.3203,7.2773,7.2773,7.2422,7.1953,7.1562,7.1445,7.1406,7.1055,7.0586,7.0156,7.0156,6.9805,6.9336,6.9023,6.8945,6.875,6.7851,6.7383,6.6953,6.6484,6.5664,6.5078,6.5078,6.4336,6.375,6.375,6.3437,6.2812,6.1601,6.0466,5.96,5.9131,5.8727,5.8441,5.8441,5.8166,5.7816,5.7427,5.7078,5.6843,5.6843,5.6843,5.6843,5.6843,5.6843,5.6843,5.6843,5.69,5.7102,5.7493,5.7929,5.8281,5.8672,5.9023,5.9022,3.8821,0.0,0.0,4.1367,4.3697,4.6024,4.7397,4.9003,5.0968,5.3778,5.5579,5.7271,5.9196,6.0568,6.1712,6.2837,6.3531,6.4333,6.5422,6.4977,6.4735,6.5318,6.5307,6.5545,6.626,6.7651,6.8789,6.9375,7.043,7.1328,7.1953,7.2226,7.2656,7.3281,7.3515,7.3945,7.4609,7.4844,7.4961,7.4961,7.5195,7.5312,7.5312,7.5312,7.5312,7.5312,7.5312,7.5312,7.5312,7.5312,7.5312,7.5312,7.5312,7.5312,7.5312,7.5312,7.4609,7.3672,7.3672,7.3242,7.2695,7.2422,7.2344,7.2305,7.207,7.1562,7.1055,7.1055,7.0586,7.0078,6.9883,6.9844,6.9609,6.875,6.8555,6.832,6.7461,6.6758,6.625,6.6015,6.5234,6.4648,6.4648,6.4453,6.4101,6.3437,6.2265,6.1094,6.0039,5.9687,5.9453,5.9219,5.9219,5.9219,5.9219,5.9219,5.9219,5.9219,5.9219,5.9219,5.9219,5.9219,5.9219,5.9219,5.9219,5.9297,5.9531,5.9531,5.9648,5.9883,6.0156,6.0547,0.0,0.0,4.2479,4.5295,4.7599,4.9694,5.1727,5.3771,5.5437,5.6305,5.83,5.9891,5.9972,6.0815,6.2047,6.3767,6.4166,6.4882,6.6601,6.6094,6.5547,6.5586,6.4844,6.4687,0.0,6.789,6.9414,6.9492,7.1015,7.1953,7.1992,7.2812,7.3281,7.3281,7.4101,7.457,7.4609,7.543,7.5859,7.5859,7.6719,7.7109,7.7109,7.7109,7.7109,7.7109,7.7109,7.7109,7.7109,7.7109,7.7109,7.7109,7.7109,7.7109,7.7109,7.7109,7.6015,7.457,7.457,7.4531,7.4375,7.3555,7.3242,7.3086,7.2265,7.1992,7.1953,7.1953,7.1953,7.1719,7.0898,7.0664,7.043,6.957,6.9414,6.9219,6.8359,6.8125,6.7851,6.7031,6.6172,6.5547,6.5547,6.4844,6.4297,6.4258,6.4219,6.3555,6.1836,6.0898,6.0078,5.9297,5.9219,5.9219,5.9219,5.9219,5.9219,5.9219,5.9219,5.9219,5.9219,5.9219,5.9219,5.9219,5.9219,5.957,6.0351,6.0351,6.0781,6.164,6.25,6.289,0.0,0.0,4.676,4.9584,5.1615,5.3435,5.5578,5.6637,5.7377,5.8001,5.8295,5.8671,5.9344,6.0182,6.1321,6.3079,6.4374,6.5586,6.6758,6.6133,6.539,6.4805,6.5,0.0,0.0,0.0,0.0,6.9414,7.0508,7.164,7.2812,7.3125,7.3828,7.5,7.5312,7.5742,7.6328,7.6601,7.6758,7.6758,7.707,7.7187,7.7187,7.7187,7.7187,7.7187,7.7187,7.7187,7.7187,7.7187,7.7187,7.7187,7.7187,7.7187,7.7187,7.7187,7.6836,7.625,7.5664,7.5078,7.4531,7.4258,7.414,7.4101,7.3828,7.332,7.2851,7.2851,7.2461,7.1914,7.164,7.1562,7.1328,7.0469,7.0273,7.0078,6.9258,6.9023,6.875,6.793,6.7539,6.7148,6.6562,6.6211,6.582,6.5234,6.4687,6.3867,6.2695,6.2305,6.1797,6.0937,6.0859,6.0859,6.0859,6.0859,6.0859,6.0859,6.0859,6.0859,6.0859,6.0859,6.1133,6.1719,6.1719,6.2148,6.3008,6.3008,6.3125,6.3437,6.3711,6.3867,4.6231,4.8381,5.038,5.3581,5.5105,5.6355,5.8225,5.8505,5.8574,5.9222,5.8284,5.7485,5.8164,5.8164,5.8984,6.164,6.3008,6.4492,6.6601,6.6133,6.539,6.4844,6.5273,0.0,0.0,0.0,0.0,6.9375,7.0234,7.1445,7.3203,7.3594,7.4414,7.5859,7.6211,7.664,7.7187,7.7187,7.7187,7.7187,7.7187,7.7187,7.7187,7.7187,7.7187,7.7187,7.7187,7.7187,7.7187,7.7187,7.7187,7.7187,7.7187,7.7187,7.7187,7.7187,7.7187,7.7109,7.6562,7.6015,7.5469,7.5156,7.5078,7.5,7.4687,7.4219,7.375,7.375,7.3125,7.2461,7.2461,7.2226,7.1875,7.1289,7.1172,7.0937,7.0117,6.9883,6.9609,6.8789,6.8633,6.8476,6.789,6.7539,6.707,6.6211,6.5586,6.4805,6.3633,6.3476,6.3242,6.2695,6.2617,6.2617,6.2617,6.2617,6.2617,6.2617,6.2617,6.2617,6.2617,6.2617,6.289,6.3437,6.3476,6.375,6.4297,6.4297,6.4297,6.4297,6.4609,6.4765,5.0222,5.1895,5.3297,5.7059,5.8016,5.8365,5.9691,5.9459,5.9169,5.9828,5.8073,5.6445,0.0,0.0,5.539,5.9609,6.043,6.2031,6.6367,6.625,6.5742,0.0,0.0,0.0,0.0,0.0,0.0,6.9414,0.0,7.1484,7.3281,7.418,7.5078,7.5937,7.6758,7.7187,7.7187,7.7187,7.7187,7.7187,7.7187,7.7187,7.7187,7.7187,7.7187,7.7187,7.7187,7.7187,7.7187,7.7187,7.7187,7.7187,7.7187,7.7187,7.7187,7.7187,7.7187,7.7187,7.7187,7.7187,7.707,7.625,7.5976,7.582,7.4961,7.4687,7.4687,7.4687,7.4023,7.3359,7.332,7.2695,7.207,7.1992,7.1992,7.1758,7.0937,7.0781,7.0508,6.9648,6.9492,6.9492,6.9414,6.8789,6.7969,6.7109,6.6953,6.6328,6.4609,6.4375,6.4336,6.4297,6.4297,6.4297,6.4297,6.4297,6.4297,6.4297,6.4297,6.4297,6.4297,6.4297,6.4336,6.4375,6.4375,6.4375,6.4414,6.4414,6.4414,6.4453,6.5273,6.5703,5.2503,5.4817,5.6894,5.8839,5.9463,5.9696,6.0056,6.0086,5.9371,5.7027,5.5546,5.4062,0.0,0.0,0.0,5.8047,6.0664,0.0,6.7344,6.7695,0.0,0.0,0.0,6.8281,6.789,6.8398,0.0,0.0,7.0586,7.1758,7.414,7.5078,7.5976,7.6836,7.707,7.7187,7.7187,7.7187,7.7187,7.7187,7.7187,7.7187,7.7187,7.7187,7.7187,7.7187,7.7187,7.7187,7.7187,7.7187,7.7187,7.7187,7.7187,7.7187,7.7187,7.7187,7.7187,7.7187,7.7187,7.7187,7.7148,7.6953,7.6875,7.6836,7.6601,7.6094,7.5586,7.5586,7.4922,7.4101,7.3476,7.3125,7.2812,7.2148,7.1992,7.1953,7.1719,7.168,7.1406,7.0547,6.9883,6.9492,6.9492,6.9258,6.8828,6.8008,6.7851,6.7226,6.5508,6.5273,6.5039,6.4375,6.4297,6.4297,6.4297,6.4297,6.4297,6.4297,6.4297,6.4297,6.4297,6.4297,6.4609,6.5273,6.5273,6.5586,6.625,6.625,6.625,6.625,6.6484,6.6914,5.5606,5.7453,5.8869,6.0058,6.0173,5.9835,5.9219,5.8563,5.722,5.4218,5.2305,0.0,0.0,0.0,0.0,0.0,0.0,0.0,6.7031,6.7969,6.832,0.0,6.9453,0.0,6.9336,6.9726,7.0508,0.0,7.1484,7.2226,7.4492,7.543,7.6289,7.7187,7.7187,7.7187,7.7187,7.7187,7.7187,7.7187,7.7187,7.7187,7.7187,7.7187,7.7187,7.7187,0.0,7.7187,7.7187,7.7187,7.7187,7.7187,7.7187,7.7187,7.7187,7.7187,7.7187,7.7187,7.7187,7.7187,7.7187,7.7187,7.7187,7.7187,7.7187,7.6875,7.6484,7.6484,7.5859,7.5078,7.457,7.414,7.375,7.3242,7.2851,7.2578,7.2578,7.2265,7.1875,7.1367,7.0898,7.0469,7.0078,7.0,6.9687,6.8906,6.8789,6.8398,6.7383,6.664,6.5976,6.5508,6.543,6.543,6.543,6.543,6.543,6.543,6.543,6.543,6.543,6.543,6.5664,6.6172,6.6172,6.6601,6.7461,6.7461,6.7656,6.8047,6.8008,6.8242,5.8608,5.9617,5.9903,6.0793,6.0428,5.9428,5.7792,5.6042,5.3994,5.1288,0.0,0.0,4.5976,0.0,4.918,5.3476,0.0,6.1211,6.6484,6.789,6.8711,6.9648,7.039,7.0937,7.1015,7.1055,7.1719,7.3359,7.289,7.3164,7.4687,7.5586,7.6406,7.7187,7.7187,7.7187,7.7187,7.7187,7.7187,7.7187,7.7187,7.7187,7.7187,7.7187,7.7187,7.7187,7.7187,7.7187,7.7187,7.7187,7.7187,7.7187,7.7187,7.7187,7.7187,7.7187,7.7187,7.7187,7.7187,7.7187,7.7187,7.7187,7.7187,7.7187,7.7187,7.7187,7.7187,7.7187,7.664,7.6055,7.5937,7.5351,7.4726,7.4648,7.4023,7.3476,7.3476,7.2773,7.2148,7.2031,7.1992,7.1758,7.1015,7.0859,7.0586,6.9765,6.9648,6.9609,6.9414,6.8125,6.7226,6.7226,6.7226,6.7226,6.7226,6.7226,6.7226,6.7226,6.7226,6.7265,6.7265,6.7226,6.7226,6.7226,6.7265,6.7617,6.8359,6.8359,6.875,6.9492,6.9414,6.9453,5.9154,6.0115,6.0793,6.0954,6.0546,5.951,5.7156,5.4783,0.0,0.0,0.0,4.4961,4.3359,4.6133,0.0,5.4375,0.0,0.0,0.0,0.0,6.9844,0.0,0.0,0.0,0.0,0.0,0.0,0.0,0.0,7.5351,7.5664,7.6484,7.7031,7.7187,7.7187,7.7187,7.7187,7.7187,7.7187,7.7187,7.7187,7.7187,7.7187,7.7187,7.7187,7.7187,7.7187,0.0,7.7187,7.7187,7.7187,7.7187,7.7187,7.7187,7.7187,7.7187,7.7187,7.7187,7.7187,7.7187,7.7187,7.7187,7.7187,7.7187,7.7187,7.7187,7.7187,7.7187,7.7109,7.6797,7.6094,7.5781,7.5508,7.4765,7.4492,7.4375,7.4375,7.3672,7.2851,7.2148,7.1992,7.1953,7.1797,7.1758,7.1484,7.0625,7.0508,7.0234,6.957,6.918,6.8984,6.8984,6.8984,6.8984,6.9023,6.8984,6.8984,6.8984,6.9023,6.9062,6.9062,6.8984,6.8984,6.9062,6.9062,6.9101,6.918,6.9258,6.9336,6.9414,6.9414,6.9805,5.9819,6.0542,6.0802,6.0339,5.9436,5.7742,5.4372,0.0,0.0,0.0,0.0,4.2109,4.125,0.0,0.0,0.0,0.0,0.0,0.0,0.0,0.0,0.0,0.0,0.0,0.0,0.0,0.0,0.0,0.0,7.5898,7.5898,7.6719,7.7187,7.7187,7.7187,7.7187,7.7187,7.7187,7.7187,7.7187,7.7187,7.7187,7.7187,7.7187,7.7187,7.7187,7.7187,0.0,7.7187,7.7187,7.7187,7.7187,7.7187,7.7187,7.7187,7.7187,7.7187,7.7187,7.7187,7.7187,7.7187,7.7187,7.7187,7.7187,7.7187,7.7187,7.7187,7.7187,7.7187,7.707,7.6549,7.6518,7.6445,7.5923,7.5542,7.5039,7.4101,7.3594,7.3047,7.2187,7.1992,7.1992,7.1992,7.1992,7.1875,7.1445,7.1367,7.125,7.0859,7.0781,7.039,6.9492,6.9414,6.9414,6.9492,6.9453,6.9414,6.9453,6.9453,6.9453,6.9453,6.9414,6.9414,6.9492,6.9453,6.9648,7.0078,7.0117,7.0351,7.0742,7.0742,7.0976,6.005,6.0666,6.0606,5.9738,5.8389,5.6152,5.1986,4.8878,0.0,0.0,0.0,3.9414,3.9609,0.0,0.0,0.0,0.0,0.0,0.0,0.0,0.0,0.0,0.0,0.0,0.0,0.0,0.0,0.0,0.0,0.0,7.6172,7.6795,7.7145,7.7145,7.71,7.7057,7.7057,7.7057,7.7057,7.7057,7.7057,7.7057,7.7057,7.7057,7.71,7.7145,7.7145,0.0,7.7187,7.7187,7.7187,7.7187,7.7187,7.7187,7.7187,7.7187,7.7187,7.7187,7.7187,7.7187,7.7187,7.7146,7.7147,7.7187,7.7187,7.7187,7.7145,7.7145,7.7102,7.7048,7.687,7.6944,7.6969,7.6632,7.6175,7.5348,7.359,7.328,7.3047,7.2187,7.1992,7.1992,7.1992,7.1992,7.1992,7.1992,7.1992,7.1992,7.1992,7.1992,7.1484,7.0117,6.9961,6.9961,7.0039,7.0,6.9961,7.0039,7.0,6.9961,6.9961,6.9961,6.9961,7.0039,6.9961,7.0273,7.0976,7.1172,7.1601,7.2265,7.2461,7.2578,5.9165,6.0204,6.0613,5.9886,5.8537,5.6289,5.212,0.0,0.0,0.0,3.8711,3.7773,3.8555,4.0195,4.3047,4.7969,5.0312,5.4176,0.0,0.0,0.0,0.0,0.0,0.0,0.0,0.0,0.0,0.0,0.0,0.0,7.707,7.6967,7.6929,7.6929,7.6749,7.6673,7.6673,7.6673,7.6673,7.6673,7.6673,7.6673,7.6673,7.6673,7.6755,7.6934,7.6934,0.0,0.0,7.7187,7.7187,7.7187,7.7187,7.7187,7.7187,7.7187,7.7187,7.7187,7.7187,7.7187,7.7187,7.6994,7.7052,7.7187,7.7187,7.7057,7.6931,7.6933,7.6783,7.667,7.6614,7.6621,7.6437,7.5644,7.5525,7.5137,7.3382,7.3152,7.3047,7.2187,7.1992,7.1992,7.1992,7.1992,7.1992,7.1992,7.1992,7.1992,7.1992,7.1992,7.1953,7.1797,7.1758,7.1758,7.1758,7.1758,7.1758,7.1758,7.1758,7.1758,7.1758,7.1758,7.1758,7.1758,7.1758,7.1797,7.1875,7.2695,7.3086,7.3203,7.3984,7.4375,5.8896,6.0127,6.0503,5.9295,5.7786,5.5392,5.0633,0.0,4.3192,3.9712,3.7642,3.675,3.7656,3.8828,4.082,4.4414,4.5932,4.9244,5.6472,0.0,0.0,0.0,0.0,0.0,0.0,0.0,0.0,0.0,0.0,0.0,7.6845,7.6757,7.6724,7.6724,7.6621,7.6582,7.6582,7.6582,7.6582,7.6582,7.6582,7.6582,7.6582,7.6582,7.6718,7.6919,7.6919,0.0,0.0,7.7187,7.7187,7.7187,7.7187,7.7187,7.7187,7.7187,7.7187,7.7187,7.7055,7.7006,7.6995,7.6773,7.6765,7.6847,7.6847,7.6773,7.6727,7.6727,7.6641,7.6556,7.6461,7.6419,7.6345,7.6128,7.5855,7.528,7.4068,7.3538,7.3047,7.2187,7.1992,7.1992,7.1992,7.1992,7.1992,7.1992,7.1992,7.1992,7.1992,7.1992,7.2187,7.2734,7.2305,7.2226,7.2734,7.2773,7.3008,7.3515,7.3555,7.3555,7.3555,7.3555,7.3555,7.3555,7.3555,7.3555,7.3555,7.3906,7.4062,7.4101,7.4453,7.4609,5.7665,5.9204,5.981,5.8758,5.6893,5.4161,0.0,0.0,4.2251,3.9057,3.707,3.6189,3.7148,3.7812,3.9023,4.1599,4.3103,4.6165,5.2536,0.0,0.0,0.0,0.0,0.0,0.0,0.0,0.0,0.0,0.0,0.0,7.6492,7.6461,7.6457,7.6527,7.6461,7.6424,7.6424,7.6424,7.6424,7.6424,7.6424,7.6424,7.6424,7.6424,7.6545,7.6829,7.6829,0.0,0.0,7.7187,7.7187,7.7187,7.7187,7.7187,7.7187,7.7145,7.7103,7.7098,7.6872,7.6793,7.677,7.6599,7.6527,7.6518,7.6448,7.6475,7.6492,7.6492,7.6479,7.6381,7.626,7.6201,7.6183,7.607,7.5545,7.4828,7.4007,7.3316,7.2652,7.2109,7.1992,7.1992,7.1992,7.1992,7.1992,7.1992,7.1992,7.2109,7.2344,7.2383,7.2734,7.3594,7.3125,7.3008,7.3633,7.3672,7.3945,7.457,7.4609,7.4609,7.4609,7.4609,7.4609,7.4609,7.4609,7.4609,7.4609,7.4844,7.4961,7.5,7.5234,7.5351,5.5049,5.7011,5.8346,5.8488,5.5954,5.2789,0.0,4.5799,4.1397,3.8892,3.707,3.6189,3.7148,3.7305,3.8123,4.0594,4.3156,4.6483,5.1418,0.0,0.0,0.0,0.0,0.0,0.0,0.0,0.0,0.0,0.0,0.0,7.6306,7.6115,7.6081,7.6295,7.6108,7.6029,7.6029,7.6029,7.6029,7.6029,7.6029,7.6029,7.6029,7.6029,7.6219,7.6586,0.0,0.0,0.0,7.7187,7.7187,7.7187,7.7187,7.7187,7.7187,7.6991,7.6883,7.6868,7.669,7.6586,7.6552,7.6384,7.63,7.6289,7.6066,7.6167,7.6306,7.6306,7.6154,7.6022,7.5984,7.5984,7.5791,7.4906,7.421,7.3534,7.2874,7.2191,7.1754,7.1952,7.1992,7.1992,7.1992,7.1992,7.1992,7.1992,7.1992,7.2305,7.3164,7.3281,7.3633,7.4492,7.457,7.457,7.4609,7.4609,7.4609,7.4609,7.4609,7.4609,7.4609,7.4609,7.4609,7.4609,7.4609,7.4609,7.4609,7.5469,7.5898,7.5898,7.6758,7.7187,5.1592,5.351,5.4577,5.3557,5.2481,5.0713,4.7036,4.4028,4.1145,3.8079,3.654,3.5916,3.6327,3.7383,3.9218,4.2341,4.4431,4.7238,0.0,0.0,0.0,0.0,0.0,0.0,0.0,0.0,0.0,0.0,0.0,7.6075,7.6081,7.6041,7.6034,7.6075,7.6041,7.6015,7.6015,7.6015,7.6015,7.6015,7.6015,7.6015,7.5984,7.6122,7.6369,0.0,0.0,0.0,0.0,7.7187,7.7104,7.6998,7.6996,7.6924,7.6773,7.6727,7.6709,7.6683,7.647,7.6381,7.6379,7.6147,7.6075,7.6093,7.6012,7.6024,7.6081,7.6081,7.6031,7.6015,7.6015,7.6015,7.5964,7.5831,7.5284,7.4783,7.4689,7.3705,7.2808,7.289,7.2422,7.1992,7.1992,7.1992,7.2187,7.2812,7.289,7.3203,7.4062,7.418,7.4531,7.539,7.5508,7.5508,7.5508,7.5508,7.5742,7.6328,7.6367,7.6367,7.6367,7.6367,7.6367,7.6367,7.6367,7.6367,7.6367,7.664,7.6797,7.6797,7.707,7.7187,0.0,5.0471,5.1703,5.1365,5.0317,4.8616,4.5592,4.2895,4.0255,3.7563,3.6369,3.6038,3.6834,3.7851,3.9492,4.2222,4.4585,4.7248,0.0,0.0,0.0,0.0,0.0,0.0,0.0,0.0,0.0,7.6015,7.6015,7.6015,7.6015,7.6015,7.6015,7.6015,7.6015,7.6015,7.6015,7.6015,7.6015,7.6015,7.6015,7.6015,7.5984,7.6141,7.6295,0.0,0.0,0.0,0.0,7.7054,7.6988,7.6778,7.6775,7.6718,7.6575,7.6496,7.6501,7.6466,7.6266,7.6191,7.616,7.6055,7.6015,7.6015,7.6015,7.6015,7.6015,7.6015,7.6015,7.6015,7.6015,7.6045,7.6134,7.6179,7.5731,7.5326,7.5468,7.4519,7.3705,7.3789,7.3359,7.2969,7.2969,7.2926,7.3079,7.3711,7.3746,7.4017,7.4961,7.5035,7.5345,7.6289,7.6235,7.618,7.6277,7.6365,7.66,7.706,7.7147,7.7187,7.7187,7.7187,7.7187,7.7187,7.7187,7.7187,7.7187,7.7187,7.7187,7.7187,7.7187,7.7187,0.0,4.7509,4.9125,5.062,4.8697,4.6197,4.5282,4.2065,0.0,3.7244,3.6365,3.6462,3.8281,3.8594,3.9217,4.1067,4.414,4.6883,0.0,0.0,0.0,0.0,0.0,0.0,0.0,0.0,7.6015,7.6015,7.6015,7.6015,7.6015,7.6015,7.6015,7.6015,7.6015,7.6015,7.6015,7.6015,7.6029,7.6012,7.6029,7.6029,7.602,7.602,7.6128,0.0,0.0,7.6582,7.6597,7.6788,7.6757,7.656,7.656,7.6552,7.6517,7.6364,7.6261,7.6254,7.6059,7.6015,7.6015,7.6015,7.6015,7.6015,7.6015,7.6015,7.6015,7.6015,7.6015,7.6015,7.6015,7.6135,7.6272,7.6093,7.5733,7.5401,7.5429,7.4891,7.4448,7.4646,7.4608,7.4569,7.457,7.4423,7.4357,7.4605,7.4496,7.475,7.5816,7.5786,7.6044,7.7067,7.6839,7.6687,7.6852,7.7054,7.7101,7.6922,7.7099,7.7187,7.7187,7.7187,7.7187,7.7187,7.7187,7.7187,7.7187,7.7187,7.7187,7.7187,7.7187,7.7187,3.9546,0.0,4.2551,4.232,4.2128,4.1627,0.0,3.9064,3.7942,3.6322,0.0,3.6462,3.8281,3.8594,4.0039,4.4334,4.6833,4.9235,0.0,0.0,0.0,0.0,0.0,0.0,0.0,0.0,7.6015,7.6015,7.6015,7.6015,7.6015,7.6015,7.6015,7.6015,7.6015,7.6015,7.6015,7.6015,7.6079,7.6219,7.6072,7.6093,7.6231,7.6225,7.626,0.0,0.0,7.6582,7.6586,7.6631,7.6533,7.639,7.639,7.6294,7.6147,7.6106,7.6072,7.6059,7.6005,7.6015,7.6015,7.6015,7.6015,7.6015,7.6015,7.6015,7.6015,7.6015,7.6015,7.6015,7.6015,7.6135,7.6338,7.6438,7.6475,7.6533,7.6531,7.5889,7.5326,7.5345,7.4702,7.4195,7.4358,7.4202,7.4311,7.5015,7.5105,7.5408,7.6307,7.6397,7.6469,7.6699,7.6673,7.6576,7.6452,7.676,7.6941,7.6919,7.7099,7.7187,7.7187,7.7187,7.7187,7.7187,7.7187,7.7187,7.7187,7.7187,7.7187,7.7187,7.7187,7.7187,3.6734,3.8931,4.1085,4.105,4.1089,4.0739,3.9434,3.8349,0.0,0.0,0.0,3.7103,3.8867,3.9531,4.1054,4.4991,4.7409,0.0,0.0,0.0,0.0,0.0,0.0,0.0,0.0,7.6015,7.6015,7.6015,7.6015,7.6015,7.6015,7.6015,7.6015,7.6015,7.6015,7.6015,7.6015,7.6015,7.6038,7.6147,7.6038,7.6045,7.616,7.6154,7.6154,0.0,0.0,7.6405,7.6338,7.6424,7.6359,7.6154,7.6154,7.6113,7.6015,7.6015,7.6015,7.6015,7.6015,7.6015,7.6015,7.6015,7.6015,7.6015,7.6015,7.6015,7.6015,7.6015,7.6015,7.6015,7.6015,7.6135,7.63,7.6322,7.6533,7.6741,7.6624,7.6319,7.6056,7.6056,7.5593,7.5241,7.5335,7.5206,7.5254,7.5825,7.5831,7.5957,7.6532,7.6539,7.6514,7.6571,7.6438,7.6374,7.6429,7.6653,7.6757,7.6757,7.7049,7.7187,7.7187,7.7187,7.7187,7.7187,7.7187,7.7187,7.7187,7.7187,7.7187,7.7187,7.7187,7.7187,3.5615,3.8683,4.1871,4.2094,4.1782,4.1216,4.0367,0.0,0.0,0.0,0.0,0.0,0.0,4.1094,0.0,0.0,0.0,0.0,0.0,0.0,0.0,0.0,0.0,0.0,7.5945,7.6015,7.6015,7.6015,7.6015,7.6015,7.6015,7.6015,7.6015,7.6015,7.6015,7.6015,7.6015,7.6015,7.6005,7.6062,7.6005,7.6005,7.6024,7.6005,7.6015,7.5991,0.0,0.0,7.6005,7.6197,7.6141,7.6015,7.6015,7.6015,7.6015,7.6015,7.6015,7.6015,7.6015,7.6015,7.6015,7.6015,7.6015,7.6015,7.6015,7.6015,7.6015,7.6015,7.6015,7.6015,7.6015,7.6167,7.6266,7.61,7.6338,7.6525,7.6353,7.6434,7.6537,7.6537,7.6548,7.6535,7.6533,7.6381,7.6316,7.6497,7.6341,7.6327,7.6548,7.6405,7.6366,7.656,7.6284,7.6225,7.6552,7.6646,7.6663,7.6663,7.6996,7.7187,7.7187,7.7187,7.7187,7.7187,7.7187,7.7187,7.7187,7.7187,7.7187,7.7187,7.7187,7.7187,3.6119,3.9197,4.1329,3.8556,3.8819,3.9589,3.8821,3.8416,0.0,0.0,0.0,0.0,0.0,0.0,0.0,0.0,0.0,0.0,0.0,0.0,0.0,0.0,0.0,7.6037,7.6005,7.6015,7.6015,7.6015,7.6015,7.6015,7.6015,7.6015,7.6015,7.6015,7.6015,7.6015,7.6015,7.6015,7.6093,7.6254,7.6086,7.6106,7.626,7.6086,7.6015,7.6015,0.0,7.6027,7.5984,7.6041,7.6034,7.6015,7.6015,7.6015,7.6015,7.6015,7.6015,7.6015,7.6015,7.6015,7.6015,7.6015,7.6015,7.6015,7.6015,7.6015,7.6015,7.6015,7.6015,7.6015,7.6015,7.6135,7.6284,7.6272,7.6429,7.6525,7.632,7.6327,7.6353,7.6353,7.6228,7.6167,7.6322,7.6185,7.6045,7.61,7.6059,7.6121,7.6327,7.6322,7.64,7.656,7.6525,7.6513,7.6579,7.6752,7.6854,7.6854,7.7057,7.7187,7.7187,7.7187,7.7187,7.7187,7.7187,7.7187,7.7187,7.7187,7.7187,7.7187,7.7187,7.7187,3.5332,3.8009,4.0576,3.9986,4.1048,4.2064,4.1256,4.0395,0.0,0.0,0.0,0.0,0.0,0.0,0.0,0.0,0.0,0.0,0.0,0.0,0.0,0.0,0.0,7.6088,7.5991,7.6015,7.6015,7.6015,7.6015,7.6015,7.6015,7.6015,7.6015,7.6015,7.6015,7.6015,7.6015,7.6015,7.6062,7.6147,7.6024,7.6031,7.6109,7.6055,7.6015,7.6015,0.0,7.6015,7.6015,7.6015,7.6015,7.6015,7.6015,7.6015,7.6015,7.6015,7.6015,7.6015,7.6015,7.6015,7.6015,7.6015,7.6015,7.6015,7.6015,7.6015,7.6015,7.6015,7.6015,7.6015,7.6015,7.6072,7.6154,7.6147,7.6189,7.626,7.6147,7.6154,7.6147,7.6147,7.6059,7.6034,7.6128,7.6052,7.6015,7.6015,7.6015,7.6041,7.6134,7.6225,7.6343,7.6434,7.6556,7.6624,7.6749,7.685,7.6939,7.7053,7.7146,7.7187,7.7187,7.7187,7.7187,7.7187,7.7187,7.7187,7.7187,7.7187,7.7187,7.7187,7.7187,7.7187,3.5201,3.7374,4.0051,4.1869,4.3212,4.4224,4.4598,4.3276,4.2092,0.0,0.0,0.0,0.0,4.8785,0.0,0.0,0.0,0.0,0.0,0.0,0.0,0.0,7.5488,7.6015,7.6015,7.6015,7.6015,7.6015,7.6015,7.6015,7.6015,7.6015,7.6015,7.6015,7.6015,7.6015,7.6015,7.6015,7.6015,7.6015,7.6015,7.6015,7.6015,7.6015,7.6015,7.6015,7.6015,7.6015,7.6015,7.6015,7.6015,7.6015,7.6015,7.6015,7.6015,7.6015,7.6015,7.6015,7.6015,7.6015,7.6015,7.6015,7.6015,7.6015,7.6015,7.6015,7.6015,7.6015,7.6015,7.6015,7.6015,7.6015,7.6015,7.6015,7.6169,7.6284,7.6284,7.6438,7.6592,7.6592,7.6592,7.6592,7.6592,7.6592,7.6592,7.6592,7.6592,7.659,7.6637,7.6802,7.6924,7.7021,7.7143,7.7334,7.7528,7.7377,7.7321,7.75,7.7305,7.7187,7.7187,7.7187,7.7187,7.7187,7.7187,7.7187,7.7187,7.7187,7.7305,7.75,7.75,7.7617,3.7204,3.8754,4.0117,4.1869,4.2373,4.3518,4.7575,4.6523,0.0,4.7812,0.0,0.0,0.0,5.3661,0.0,0.0,0.0,0.0,0.0,0.0,7.2835,7.4746,7.56,7.6015,7.6015,7.6015,7.6015,7.6015,7.6015,7.6015,7.6015,7.6015,7.6015,7.6015,7.6015,7.6015,7.6015,7.6015,7.6015,7.6015,7.6015,7.6015,7.6015,7.6015,7.6015,7.6015,7.6015,7.6015,7.6015,7.6015,7.6015,7.6015,7.6015,7.6015,7.6015,7.6015,7.6015,7.6015,7.6015,7.6015,7.6015,7.6015,7.6015,7.6015,7.6015,7.6015,7.6015,7.6015,7.6015,7.6015,7.6015,7.6015,7.6015,7.6015,7.663,7.7215,7.7215,7.7792,7.833,7.833,7.833,7.833,7.833,7.833,7.833,7.833,7.833,7.8378,7.8576,7.8628,7.8763,7.9128,7.9199,7.9284,7.9491,7.8828,7.8398,7.8398,7.7656,7.7187,7.7187,7.7187,7.7187,7.7187,7.7187,7.7187,7.7187,7.7187,7.7617,7.8398,7.8398,7.8828,3.6459,3.8244,4.0503,4.3275,4.4798,4.6167,0.0,4.9375,5.0391,5.2461,5.3125,0.0,0.0,0.0,0.0,0.0,0.0,6.8812,7.2141,7.2866,7.364,7.5426,7.587,7.6015,7.6015,7.6015,7.6015,7.6015,7.6015,7.6015,7.6015,7.6015,7.6015,7.6015,7.6015,7.6015,7.6015,7.6015,7.6015,7.6015,7.6015,7.6015,7.6015,7.6015,7.6015,7.6015,7.6015,7.6015,7.6015,7.6015,7.6015,7.6015,7.6015,7.6015,7.6015,7.6015,7.6015,7.6015,7.6015,7.6015,7.6015,7.6015,7.6015,7.6015,7.6015,7.6361,7.683,7.683,7.7176,7.7445,7.6938,7.683,7.6938,7.7445,7.783,7.8061,7.8061,7.8292,7.8484,7.8484,7.8484,7.8484,7.8484,7.8484,7.8484,7.8484,7.8484,7.8584,7.8772,7.8927,7.91,7.9361,7.95,7.9603,7.9687,7.9414,7.9258,7.9258,7.7969,7.7187,7.7187,7.7187,7.7187,7.7187,7.7187,7.7461,7.8008,7.8008,7.8437,7.9258,7.9258,7.9414,3.6766,3.8274,4.0664,4.3789,4.6094,4.8164,5.0391,5.2266,5.4258,5.6797,5.7025,0.0,0.0,0.0,0.0,0.0,6.7105,6.9971,7.306,7.3507,7.4123,7.5784,7.6015,7.6015,7.6015,7.6015,7.6015,7.6015,7.6015,7.6015,7.6015,7.6015,7.6015,7.6015,7.6015,7.6015,7.6015,7.6015,7.6015,7.6015,7.6015,7.6015,7.6015,7.6015,7.6015,7.6015,7.6015,7.6015,7.6015,7.6015,7.6015,7.6015,7.6015,7.6015,7.6015,7.6015,7.6015,7.6015,7.6015,7.6015,7.6015,7.6015,7.6015,7.6053,7.6322,7.6823,7.7369,7.7599,7.8099,7.8446,7.8169,7.7907,7.783,7.8369,7.8715,7.8907,7.8907,7.9138,7.9331,7.9331,7.9331,7.9331,7.9331,7.9331,7.933,7.9422,7.9374,7.9394,7.9591,7.9718,7.9936,8.0183,8.0417,8.0508,8.0508,8.0273,8.0117,8.0117,7.8789,7.8008,7.8008,7.8008,7.8008,7.8008,7.8008,7.8281,7.8867,7.8867,7.9297,8.0117,8.0117,8.0273,3.863,3.913,4.0547,4.3086,0.0,0.0,5.418,5.5351,5.6562,6.0859,6.084,6.0017,5.9791,0.0,0.0,6.4375,6.7581,7.0744,7.3171,7.3507,7.4123,7.5784,7.6015,7.6015,7.6015,7.6015,7.6015,7.6015,7.6015,7.6015,7.6015,7.6015,7.6015,7.6015,7.6015,7.6015,7.6015,7.6015,7.6015,7.6015,7.6015,7.6015,7.6015,7.6015,7.6015,7.6015,7.6015,7.6015,7.6015,7.6015,7.6015,7.6015,7.6015,7.6015,7.6015,7.6015,7.6015,7.6015,7.6015,7.6015,7.6015,7.6015,7.6015,7.6169,7.7061,7.733,7.7484,7.8292,7.8523,7.8715,7.9592,7.9169,7.8523,7.8523,7.9169,7.9815,7.9815,8.0477,8.1093,8.1093,8.1093,8.1093,8.1093,8.1093,8.1152,8.1359,8.1228,8.1167,8.1371,8.1418,8.1558,8.1969,8.2175,8.2304,8.2304,8.1523,8.1015,8.1015,8.0195,7.9726,7.9687,7.9687,7.9687,7.9687,7.9687,7.9687,7.9726,7.9726,8.0156,8.1015,8.1015,8.1484,3.7848,3.9608,0.0,4.5625,0.0,0.0,0.0,5.8818,0.0,0.0,6.4741,6.4127,6.2836,0.0,0.0,6.5577,6.7942,7.0619,7.3137,7.3507,7.4123,7.5784,7.6015,7.6015,7.6015,7.6015,7.6015,7.6015,7.6015,7.6015,7.6015,7.6015,7.6015,7.6015,7.6015,7.6015,7.6015,7.6015,7.6015,7.6015,7.6015,7.6015,7.6015,7.6015,7.6015,7.6015,7.6015,7.6015,7.6015,7.6015,7.6015,7.6015,7.6015,7.6015,7.6015,7.6015,7.6015,7.6015,7.6015,7.6015,7.6015,7.6015,7.6399,7.6938,7.7215,7.813,7.9131,7.9361,7.9862,8.04,8.0669,8.0516,8.0323,8.0323,8.0516,8.0708,8.0708,8.0939,8.1093,8.1093,8.1093,8.1093,8.1093,8.1093,8.1131,8.1174,8.1131,8.1221,8.1568,8.1864,8.2067,8.2217,8.2264,8.2304,8.2304,8.207,8.1914,8.1914,8.1679,8.0976,7.9765,7.9687,7.9687,7.9687,7.9687,8.0,8.0625,8.0625,8.1054,8.1914,8.1914,8.2031,3.9805,4.2109,0.0,4.875,5.2891,5.7186,6.1334,0.0,0.0,0.0,0.0,6.6454,6.5316,6.5852,0.0,6.6946,6.8776,7.0821,7.2706,7.3276,7.4007,7.5322,7.5784,7.6015,7.6015,7.6015,7.6015,7.6015,7.6015,7.6015,7.6015,7.6015,7.6015,7.6015,7.6015,7.6015,7.6015,7.6015,7.6015,7.6015,7.6015,7.6015,7.6015,7.6015,7.6015,7.6015,7.6015,7.6015,7.6015,7.6015,7.6015,7.6015,7.6015,7.6015,7.6015,7.6015,7.6015,7.6015,7.6015,7.6015,7.6015,7.6015,7.6592,7.7369,7.7676,7.8707,7.9854,8.0208,8.0708,8.1093,8.1093,8.1093,8.1093,8.1093,8.1093,8.1093,8.1093,8.1093,8.1093,8.1093,8.1093,8.1093,8.1093,8.1093,8.1108,8.1193,8.1298,8.1447,8.1652,8.1982,8.2219,8.2304,8.2304,8.2304,8.2304,8.2304,8.2304,8.2304,8.2304,8.1836,8.0781,8.0742,8.0742,8.0742,8.0742,8.0976,8.1523,8.1523,8.1797,8.2304,8.2304,8.2304,4.3047,4.5547,4.8555,5.2148,5.4608,0.0,6.4009,6.6743,6.8151,6.8825,0.0,6.7671,6.7391,6.7391,6.7706,6.8398,6.986,7.1206,7.2098,7.2899,7.3661,7.4507,7.5361,7.5861,7.5861,7.5938,7.6015,7.6015,7.6015,7.6015,7.6015,7.6015,7.6015,7.6015,7.6015,7.6015,7.6015,7.6015,7.6015,7.6015,7.6015,7.6015,7.6015,7.6015,7.6015,7.6015,7.6015,7.6015,7.6015,7.6015,7.6015,7.6015,7.6015,7.6015,7.6015,7.6015,7.6015,7.6015,7.6015,7.6015,7.6015,7.6092,7.6707,7.7561,7.8369,7.9246,8.0092,8.09,8.1093,8.1093,8.1093,8.1093,8.1093,8.1093,8.1093,8.1093,8.1093,8.1093,8.1093,8.1093,8.1093,8.1093,8.1093,8.1093,8.1137,8.1361,8.1558,8.1684,8.1684,8.1886,8.2113,8.2265,8.2304,8.2304,8.2304,8.2304,8.2304,8.2304,8.2304,8.2304,8.2304,8.2304,8.2304,8.2304,8.2304,8.2304,8.2304,8.2304,8.2304,8.2304,8.2304,8.2304,4.1445,4.5117,0.0,5.4381,5.9276,6.3881,6.7291,6.8276,6.8659,6.9363,6.9988,7.0131,6.9271,6.9773,7.0125,6.9521,7.0244,7.1206,7.2098,7.236,7.2783,7.3661,7.4469,7.4976,7.4976,7.5592,7.6015,7.6015,7.6015,7.6015,7.6015,7.6015,7.6015,7.6015,7.6015,7.6015,7.6015,7.6015,7.6015,7.6015,7.6015,7.6015,7.6015,7.6015,7.6015,7.6015,7.6015,7.6015,7.6015,7.6015,7.6015,7.6015,7.6015,7.6015,7.6015,7.6015,7.6015,7.6015,7.6015,7.6015,7.6092,7.6791,7.7561,7.8407,7.9246,8.0131,8.0862,8.1054,8.1093,8.1093,8.1093,8.1093,8.1093,8.1093,8.1093,8.1093,8.1093,8.1093,8.1093,8.1093,8.1093,8.1093,8.1093,8.1093,8.1124,8.1176,8.1475,8.1684,8.1684,8.2,8.2263,8.2304,8.2304,8.2304,8.2304,8.2304,8.2304,8.2304,8.2304,8.2304,8.2304,8.2304,8.2304,8.2304,8.2304,8.2304,8.2304,8.2304,8.2304,8.2304,8.2304,8.2304,4.3359,4.7379,0.0,5.7812,0.0,6.5615,6.8186,6.8617,6.8823,7.0047,7.0696,7.0919,7.0355,7.0703,7.0874,7.0348,7.0629,7.1052,7.1514,7.1944,7.2514,7.3392,7.4199,7.4853,7.5284,7.5745,7.6015,7.6015,7.6015,7.6015,7.6015,7.6015,7.6015,7.6015,7.6015,7.6015,7.6015,7.6015,7.6015,7.6015,7.6015,7.6015,7.6015,7.6015,7.6015,7.6015,7.6015,7.6015,7.6015,7.6015,7.6015,7.6015,7.6015,7.6015,7.6015,7.6015,7.6015,7.6015,7.6015,7.6015,7.613,7.7015,7.783,7.8677,7.9554,8.04,8.1093,8.1093,8.1093,8.1093,8.1093,8.1093,8.1093,8.1093,8.1093,8.1093,8.1093,8.1093,8.1093,8.1093,8.1093,8.1093,8.1093,8.1093,8.1093,8.1093,8.1285,8.1491,8.1695,8.2056,8.2304,8.2304,8.2304,8.2539,8.3086,8.3125,8.3242,8.3515,8.3554,8.3554,8.3554,8.3554,8.3164,8.2304,8.2304,8.2304,8.2304,8.2304,8.2304,8.2304,8.2304,8.2539,4.4805,4.9506,5.4447,6.0876,6.3606,0.0,6.7993,6.8464,6.8891,7.0552,7.0898,7.0898,7.0898,7.0898,7.0898,7.0898,7.0898,7.0898,7.0898,7.1514,7.2245,7.2969,7.3776,7.463,7.5476,7.5707,7.5822,7.5976,7.6015,7.6015,7.6015,7.6015,7.6015,7.6015,7.6015,7.6015,7.6015,7.6015,7.6015,7.6015,7.6015,7.6015,7.6015,7.6015,7.6015,7.6015,7.6015,7.6015,7.6015,7.6015,7.6015,7.6015,7.6015,7.6015,7.6015,7.6015,7.6015,7.6015,7.6015,7.6092,7.6361,7.7215,7.8061,7.89,7.9746,8.0516,8.1093,8.1093,8.1093,8.1093,8.1093,8.1093,8.1093,8.1093,8.1093,8.1093,8.1093,8.1093,8.1093,8.1093,8.1093,8.1093,8.1093,8.1093,8.1093,8.1093,8.1093,8.1263,8.1666,8.2056,8.2304,8.2304,8.2304,8.2695,8.3633,8.4062,8.4492,8.5,8.4961,8.4883,8.4883,8.4883,8.4219,8.2773,8.2734,8.2734,8.2734,8.2734,8.2734,8.2734,8.2734,8.3125,4.0078,4.7588,5.5769,0.0,6.3475,6.5305,0.0,0.0,6.8891,0.0,7.0898,7.0898,7.0898,7.0898,7.0898,7.0898,7.0898,7.0898,7.0898,7.1014,7.1129,7.1245,7.2014,7.286,7.3738,7.4469,7.5207,7.5938,7.6015,7.6015,7.6015,7.6015,7.6015,7.6015,7.6015,7.6015,7.6015,7.6015,7.6015,7.6015,7.6015,7.6015,7.6015,7.6015,7.6015,7.6015,7.6015,7.6015,7.6015,7.6015,7.6015,7.6015,7.6015,7.6015,7.6015,7.6015,7.6015,7.6015,7.6015,7.6476,7.7253,7.8099,7.89,7.9785,8.0669,8.1016,8.1093,8.1093,8.1093,8.1093,8.1093,8.1093,8.1093,8.1093,8.1093,8.1093,8.1093,8.1093,8.1093,8.1093,8.1093,8.1093,8.1093,8.1093,8.1093,8.1093,8.1093,8.1263,8.1666,8.2056,8.2304,8.2304,8.2304,8.2344,8.25,8.4336,8.5508,8.5586,8.5156,8.4883,8.4883,8.4883,8.4804,8.457,8.4531,8.4531,8.4531,8.4531,8.4531,8.4531,8.4531,8.4523,4.3029,4.9685,5.6013,0.0,6.3102,6.4545,6.709,0.0,6.8737,6.9975,7.0591,7.0898,7.0898,7.0898,7.0898,7.0898,7.0898,7.0898,7.0898,7.0898,7.1091,7.1552,7.1982,7.2552,7.343,7.3815,7.4199,7.4584,7.5007,7.5284,7.5284,7.5745,7.6015,7.6015,7.6015,7.5784,7.5284,7.5745,7.5745,7.5284,7.5284,7.5284,7.5284,7.5784,7.6015,7.6015,7.6015,7.6015,7.6015,7.6015,7.6015,7.6015,7.6015,7.6015,7.6015,7.6015,7.6015,7.6053,7.6553,7.6984,7.7522,7.8823,7.9477,7.9969,8.0823,8.1093,8.1093,8.1093,8.1093,8.1093,8.1093,8.1093,8.1093,8.1093,8.1093,8.1093,8.1093,8.1093,8.1093,8.1093,8.1093,8.1093,8.1093,8.1093,8.1093,8.1093,8.2708,8.395,8.4121,8.4785,8.5195,8.5195,8.5195,8.5195,8.5195,8.6133,8.6719,8.6719,8.6484,8.6367,8.6367,8.6367,8.6367,8.6367,8.539,8.4883,8.4883,8.4883,8.4883,8.4883,8.4883,8.5028,4.4382,4.9359,5.3553,5.9197,6.1505,6.3121,0.0,0.0,6.866,0.0,7.036,7.0898,7.0898,7.0898,7.0898,7.0898,7.0898,7.0898,7.0898,7.0898,7.1129,7.1783,7.1867,7.2206,7.3084,7.3168,7.3238,7.3469,7.4046,7.4469,7.47,7.5322,7.5784,7.5976,7.6015,7.5592,7.47,7.513,7.513,7.47,7.47,7.47,7.4738,7.5592,7.5861,7.5668,7.5899,7.6015,7.6015,7.6015,7.6015,7.6015,7.6015,7.6015,7.6015,7.6015,7.6015,7.613,7.6984,7.7445,7.7869,7.9323,7.9931,8.0246,8.09,8.1093,8.1093,8.1093,8.1093,8.1093,8.1093,8.1093,8.1093,8.1093,8.1093,8.1093,8.1093,8.1246,8.1323,8.1131,8.1323,8.1439,8.1131,8.1093,8.14,8.2247,8.4516,8.6094,8.6094,8.6919,8.75,8.75,8.75,8.75,8.75,8.75,8.75,8.75,8.75,8.75,8.75,8.75,8.75,8.75,8.6211,8.5547,8.5547,8.5547,8.5547,8.5547,8.5505,8.5671,3.9818,4.3134,4.6899,5.4236,5.7907,6.0819,0.0,0.0,6.866,6.9513,7.036,7.0898,7.0898,7.0898,7.0898,7.0898,7.0898,7.0898,7.0898,7.0898,7.0937,7.0975,7.0975,7.1321,7.2175,7.229,7.2591,7.343,7.3546,7.3892,7.4661,7.4738,7.5168,7.5976,7.6015,7.5592,7.47,7.4007,7.4007,7.47,7.47,7.47,7.4738,7.5592,7.5553,7.4815,7.563,7.6015,7.6015,7.6015,7.6015,7.6015,7.6015,7.6015,7.6015,7.6015,7.6015,7.613,7.6984,7.7792,7.86,7.9515,8.0362,8.1054,8.1093,8.1093,8.1093,8.1093,8.1093,8.1093,8.1093,8.1093,8.1093,8.1093,8.1093,8.1093,8.1093,8.1708,8.2016,8.1246,8.1939,8.2285,8.1285,8.1093,8.217,8.5363,8.5978,8.6094,8.6094,8.6919,8.75,8.75,8.75,8.75,8.75,8.75,8.75,8.75,8.75,8.75,8.75,8.75,8.75,8.75,8.7422,8.7344,8.7344,8.7344,8.7344,8.7344,8.7113,8.6888,3.8613,4.193,4.5888,5.1337,5.4875,5.7896,6.1089,6.4397,6.7013,6.7859,6.9167,7.0283,7.0783,7.0898,7.0898,7.0898,7.0898,7.0898,7.0898,7.0898,7.0898,7.0898,7.0898,7.1014,7.1321,7.136,7.1514,7.1822,7.236,7.3053,7.3892,7.443,7.5091,7.5976,7.5476,7.4776,7.393,7.2545,7.2552,7.393,7.393,7.4199,7.4738,7.5592,7.5822,7.5553,7.5861,7.6015,7.6015,7.6015,7.6015,7.6015,7.6015,7.6015,7.6015,7.6015,7.6361,7.6938,7.7792,7.8638,7.9477,8.0362,8.0862,8.1093,8.1093,8.1093,8.1093,8.1093,8.1093,8.1093,8.1093,8.1093,8.1246,8.1747,8.2554,8.3131,8.2785,8.2947,8.3062,8.2747,8.3024,8.317,8.2755,8.3593,8.4709,8.594,8.6094,8.6094,8.6094,8.6919,8.75,8.75,8.7217,8.7153,8.746,8.7282,8.7273,8.75,8.75,8.75,8.75,8.75,8.75,8.75,8.75,8.75,8.75,8.7329,8.7232,8.7229,8.7003,8.6817,3.695,4.0014,0.0,0.0,5.1841,5.4434,5.9281,6.2595,6.5019,6.6404,6.8052,6.9513,7.036,7.0514,7.0591,7.086,7.0898,7.0898,7.0898,7.0898,7.0898,7.0898,7.0898,7.0898,7.0898,7.0898,7.0898,7.0898,7.1437,0.0,7.343,7.4007,7.4822,7.5976,7.4892,7.4161,7.3892,7.2206,7.2206,7.3892,7.3623,7.3776,7.4315,7.5168,7.5438,7.5207,7.5745,7.6015,7.6015,7.6015,7.6015,7.6015,7.6015,7.6015,7.6053,7.6322,7.6791,7.7445,7.8561,7.9323,7.9931,8.0823,8.1093,8.1093,8.1093,8.1093,8.1093,8.1093,8.1093,8.117,8.1439,8.1708,8.2054,8.2593,8.3593,8.4286,8.3939,8.3862,8.3862,8.3862,8.417,8.4439,8.4439,8.5363,8.6094,8.6094,8.6094,8.6094,8.6094,8.68,8.7267,8.7267,8.7133,8.7039,8.7039,8.7,8.7065,8.7196,8.732,8.7328,8.7268,8.7417,8.7418,8.7268,8.7327,8.7327,8.7267,8.7161,8.7085,8.6997,8.6808,8.6583,0.0,0.0,0.0,0.0,0.0,0.0,5.9556,0.0,6.2557,6.5211,6.7051,6.8468,6.9475,6.9667,6.9937,7.0744,7.0898,7.0898,7.0898,7.0898,7.0898,7.0898,7.0898,7.0898,7.0898,7.0898,7.0898,7.0898,7.0898,7.1668,7.3353,7.3507,7.4276,7.5899,7.4392,7.3892,7.4661,7.3014,7.3053,7.47,7.3892,7.3546,7.3584,7.4392,7.4315,7.3661,7.5284,7.6015,7.6015,7.6015,7.6015,7.6015,7.6015,7.6015,7.6092,7.6984,7.733,7.7561,7.9246,7.9815,7.9969,8.0823,8.1093,8.1093,8.1093,8.1093,8.1093,8.1093,8.1131,8.1323,8.2131,8.2986,8.364,8.364,8.4055,8.4439,8.4439,8.4439,8.4439,8.4439,8.5363,8.6094,8.6094,8.6135,8.6112,8.6102,8.6094,8.6094,8.6094,8.6508,8.6804,8.6782,8.7214,8.7135,8.6231,8.6656,8.6901,8.6643,8.6894,8.7003,8.6825,8.7258,8.7267,8.6825,8.6994,8.6994,8.6808,8.6991,8.6989,8.68,8.6572,8.6353,3.5779,0.0,0.0,0.0,0.0,0.0,0.0,0.0,5.6165,6.1172,6.2589,6.4089,6.8045,6.8776,6.9045,6.9898,7.0514,7.0898,7.0898,7.0898,7.0898,7.0898,7.0898,7.0898,7.0898,7.0898,7.0898,0.0,7.0898,7.1398,7.2514,7.3707,7.4584,7.5053,7.4623,7.4199,7.3853,7.2745,7.3053,7.47,7.3892,7.4123,7.5322,7.5553,7.5515,7.5322,7.5784,7.6015,7.6015,7.6015,7.6015,7.6015,7.6015,7.6015,7.6092,7.6984,7.7676,7.833,7.9438,8.0208,8.0785,8.1016,8.1093,8.1093,8.1093,8.1093,8.1093,8.1093,8.1516,8.217,8.3024,8.3901,8.4478,8.4247,8.4939,8.5632,8.5632,8.5632,8.5632,8.5632,8.5901,8.6094,8.6094,8.6671,8.6891,8.62,8.6094,8.6094,8.6094,8.6215,8.646,8.6919,8.7273,8.7375,8.7137,8.6949,8.6905,8.6968,8.6929,8.6876,8.6817,8.6922,8.6929,8.6817,8.6833,8.68,8.6572,8.6653,8.6648,8.6566,8.6338,8.6168,0.0,0.0,0.0,0.0,0.0,0.0,4.8651,5.0798,5.339,0.0,6.0589,6.2358,6.566,6.6853,6.7628,6.8475,6.9321,7.009,7.0783,7.0898,7.0898,7.0898,7.0898,7.0898,7.0898,7.0898,7.0898,7.0898,7.0898,7.1283,7.2136,7.3783,7.47,7.47,7.47,7.4661,7.4546,7.3668,7.3937,7.5245,7.4392,7.4553,7.5588,7.5509,7.5567,7.5707,7.5999,7.6172,7.626,7.626,7.6135,7.6015,7.6015,7.6207,7.663,7.7484,7.8323,7.9169,8.0054,8.0669,8.1093,8.1093,8.1093,8.1093,8.1093,8.1093,8.117,8.1516,8.2477,8.3516,8.4016,8.4786,8.5363,8.517,8.5632,8.6094,8.6094,8.6094,8.6094,8.6094,8.6094,8.6094,8.6094,8.6539,8.6747,8.6161,8.6094,8.6094,8.6094,8.6094,8.6391,8.7141,8.7374,8.7616,8.7839,8.7628,8.7657,8.8035,8.7939,8.7824,8.772,8.7465,8.7263,8.7063,8.6798,8.656,8.6331,8.6449,8.6442,8.6331,8.6168,8.6094,3.9453,0.0,0.0,0.0,0.0,0.0,5.0492,5.1592,5.2386,0.0,5.9127,6.1056,6.2237,6.3897,6.5243,6.5865,6.709,6.8622,7.0514,7.0783,7.0783,7.0898,7.0898,7.0898,7.0898,7.0898,7.0898,7.0898,7.0898,7.1283,7.2136,7.3707,7.4623,7.47,7.4776,7.5207,7.5976,7.513,7.5151,7.6003,7.5156,7.488,7.518,7.4976,7.5116,7.5489,7.6065,7.6443,7.6582,7.6582,7.6381,7.6066,7.6066,7.6605,7.746,7.8269,7.911,7.9989,8.0844,8.1152,8.1152,8.1152,8.1152,8.1145,8.1138,8.123,8.1499,8.2393,8.378,8.4966,8.5043,8.5588,8.6094,8.6094,8.6094,8.6094,8.6094,8.6094,8.6094,8.6094,8.6094,8.6094,8.6094,8.6094,8.6094,8.6094,8.6094,8.6094,8.6094,8.6177,8.6566,8.7416,8.75,8.7769,8.8419,8.8607,8.8872,8.9411,8.9346,8.9172,8.9023,8.8455,8.7972,8.7534,8.6911,8.6416,8.6094,8.6338,8.6331,8.6094,8.6094,8.6094,4.1953,4.2489,4.312,0.0,0.0,0.0,4.3475,4.5179,4.7796,0.0,5.151,5.2977,5.6511,5.8627,5.9588,5.9056,6.2551,6.6436,6.9513,6.9937,7.0167,7.0821,7.0898,7.0898,7.0898,7.0898,7.0898,7.0898,7.0898,7.1283,7.2136,7.3168,7.4046,7.4661,7.5399,7.5822,7.6015,7.513,7.5206,7.621,7.5359,7.54,7.6292,7.6246,7.6275,7.6349,7.6463,7.6545,7.6582,7.6582,7.6537,7.6497,7.6497,7.7006,7.7866,7.8677,7.9532,8.0391,8.128,8.1591,8.1591,8.1591,8.1591,8.1548,8.1395,8.1924,8.296,8.4432,8.5004,8.5294,8.5991,8.6152,8.6094,8.6094,8.6094,8.6094,8.6094,8.6094,8.6094,8.6094,8.6094,8.6094,8.6094,8.6094,8.6094,8.6094,8.6094,8.6094,8.6094,8.6778,8.7316,8.7461,8.75,8.7929,8.8943,8.988,9.0177,8.966,8.9284,8.904,8.9017,8.8709,8.8536,8.8449,8.7638,8.683,8.6094,8.6137,8.6137,8.6094,8.6094,8.6094,4.418,4.4249,4.4775,4.4364,0.0,0.0,0.0,4.5612,4.7186,4.9605,5.01,5.0991,5.3916,5.5164,5.6049,5.6857,5.9858,6.2974,6.5551,6.7705,6.9199,6.9629,6.9667,6.9821,7.0244,7.0283,7.0475,7.086,7.0898,7.1091,7.1514,7.2399,7.3245,7.4084,7.4892,7.5553,7.6015,7.5553,7.5464,7.5664,7.5205,7.5374,7.612,7.5998,7.6289,7.6878,7.678,7.6829,7.6919,7.6919,7.6919,7.687,7.6693,7.7364,7.8532,7.896,7.9933,8.1104,8.1567,8.1684,8.1684,8.1684,8.1684,8.1664,8.1586,8.2491,8.3863,8.5151,8.5727,8.6066,8.6433,8.6338,8.6094,8.6094,8.6448,8.6681,8.62,8.6094,8.6222,8.6724,8.6812,8.6656,8.6161,8.6094,8.6094,8.6094,8.6508,8.6635,8.616,8.6919,8.8164,8.9844,9.0039,9.0039,9.0039,9.0586,9.0975,9.1153,9.0804,9.0547,9.0452,8.9822,8.9254,8.8718,8.8256,8.7825,8.7401,8.7401,8.694,8.6094,8.6555,8.6748,0.0,0.0,0.0,0.0,0.0,4.6706,0.0,0.0,0.0,4.9287,0.0,0.0,0.0,0.0,0.0,0.0,0.0,0.0,0.0,6.3628,0.0,6.7314,6.7699,6.8199,6.8898,6.8821,6.9321,7.0783,7.0283,7.0206,7.086,7.1745,7.2591,7.3469,7.4276,7.513,7.5976,7.6048,7.571,7.5074,7.5096,7.5295,7.5651,7.5486,7.6055,7.7187,7.7047,7.7053,7.7187,7.7187,7.7187,7.7186,7.7045,7.7893,7.9256,7.9415,8.0467,8.1831,8.1831,8.1831,8.1831,8.1831,8.1887,8.2061,8.225,8.3367,8.4706,8.564,8.6363,8.6814,8.6729,8.6454,8.6215,8.6215,8.6891,8.7276,8.6516,8.6358,8.6593,8.7368,8.75,8.7265,8.6508,8.6358,8.6358,8.6358,8.7028,8.7216,8.6466,8.7627,8.9531,9.2304,9.2617,9.2226,9.1328,9.1211,9.1601,9.2539,9.2348,9.2131,9.195,9.1029,9.0035,8.8949,8.894,8.8872,8.8718,8.8718,8.7979,8.6632,8.7325,8.7682,0.0,0.0,0.0,0.0,5.0273,0.0,0.0,0.0,4.7917,4.5658,0.0,0.0,0.0,0.0,0.0,0.0,0.0,0.0,5.3236,5.6088,5.9671,6.3429,6.5243,6.6205,6.632,6.5628,6.6782,7.0591,6.8129,6.7744,7.0744,7.1745,7.2591,7.3469,7.4276,7.513,7.5976,7.6172,7.5914,7.5253,7.5457,7.5652,7.5858,7.5856,7.6326,7.7187,7.7187,7.7187,7.7187,7.7187,7.7187,7.7265,7.8006,7.8824,7.9723,8.0504,8.1402,8.2222,8.2222,8.2222,8.2222,8.2222,8.2625,8.3282,8.4245,8.5085,8.5942,8.698,8.7152,8.7043,8.7034,8.687,8.6738,8.6738,8.7128,8.746,8.737,8.7327,8.7372,8.746,8.75,8.746,8.7369,8.7327,8.7327,8.7327,8.7418,8.746,8.7368,9.0075,9.2187,9.2578,9.2617,9.2539,9.2422,9.2422,9.2461,9.2578,9.2348,9.2173,9.2159,9.163,9.0871,8.9787,8.9739,8.9402,8.8718,8.8718,8.8603,8.841,8.8526,8.866,0.0,0.0,0.0,0.0,0.0,0.0,0.0,0.0,4.7081,0.0,0.0,0.0,0.0,0.0,0.0,0.0,4.9714,0.0,0.0,0.0,5.5509,0.0,0.0,0.0,6.2749,6.3474,6.5006,6.7782,6.6712,6.6936,6.9321,7.0706,7.2091,7.3469,7.3815,7.4458,7.5426,7.5995,7.5762,7.4733,7.4827,7.5204,7.5898,7.539,7.5898,7.7187,7.7187,7.7187,7.7187,7.7187,7.75,7.8047,7.8867,7.9414,7.9805,8.0664,8.1562,8.2304,8.2304,8.2304,8.2383,8.289,8.3239,8.3739,8.5194,8.5856,8.6279,8.7226,8.7418,8.7329,8.7329,8.7272,8.7207,8.7207,8.7368,8.75,8.75,8.75,8.75,8.75,8.75,8.8125,9.0117,8.8828,8.8164,9.0156,9.0469,9.0469,9.0469,9.1719,9.2617,9.2617,9.2617,9.2617,9.2617,9.2617,9.2617,9.2617,9.2348,9.2147,9.2016,9.1678,9.1219,9.068,9.0663,9.0479,9.0133,9.0133,9.0133,9.0133,8.9633,8.9426,5.3711,0.0,0.0,0.0,0.0,0.0,0.0,0.0,0.0,0.0,0.0,0.0,0.0,0.0,0.0,0.0,0.0,0.0,0.0,0.0,0.0,0.0,0.0,0.0,0.0,6.0358,6.1814,6.4936,6.4089,6.4897,6.8237,6.9552,7.1199,7.343,7.3534,7.4166,7.5349,7.6095,7.5733,7.43,7.46,7.5023,7.5547,7.5156,7.5781,7.7187,7.7187,7.7187,7.7226,7.7461,7.793,7.8594,7.9648,8.0078,8.0156,8.1015,8.1758,8.2304,8.2304,8.2461,8.2773,8.3398,8.3906,8.4531,8.582,8.6367,8.6679,8.7304,8.75,8.75,8.75,8.75,8.75,8.75,8.75,8.75,8.75,8.7851,8.8203,8.8203,8.8554,8.9687,9.2187,9.0547,8.9726,9.2226,9.2617,9.2617,9.2617,9.2617,9.2617,9.2617,9.2617,9.2617,9.2617,9.2617,9.2617,9.2617,9.2404,9.2212,9.1976,9.1732,9.1527,9.1281,9.1232,9.121,9.121,9.121,9.121,9.1171,9.0547,9.027,0.0,0.0,0.0,5.2851,0.0,0.0,0.0,0.0,4.9803,0.0,0.0,0.0,0.0,0.0,0.0,0.0,0.0,0.0,0.0,0.0,0.0,0.0,0.0,0.0,0.0,5.5428,5.6275,0.0,5.9594,6.0556,6.8007,6.8468,7.0007,7.3392,7.3698,7.4591,7.625,7.666,7.6014,7.4299,7.5343,7.5429,7.4687,7.5508,7.6367,7.7187,7.7187,7.7187,7.7265,7.8125,7.8476,7.8672,8.0312,8.0976,8.1054,8.1953,8.2265,8.2304,8.2304,8.2851,8.3554,8.3594,8.4726,8.6133,8.6172,8.6797,8.7461,8.75,8.75,8.75,8.75,8.75,8.75,8.75,8.75,8.75,8.75,8.8789,8.9922,8.9922,9.1289,9.2461,9.2578,9.25,9.2461,9.2578,9.2617,9.2617,9.2617,9.2617,9.2617,9.2617,9.2617,9.2617,9.2617,9.2617,9.2617,9.2617,9.2578,9.2451,9.2217,9.1984,9.1742,9.1502,9.1313,9.121,9.121,9.121,9.121,9.121,9.1171,9.1244,0.0,0.0,6.1797,5.6914,0.0,0.0,0.0,0.0,0.0,0.0,0.0,0.0,0.0,0.0,0.0,0.0,0.0,0.0,0.0,0.0,0.0,0.0,0.0,0.0,0.0,0.0,0.0,5.8874,5.8819,0.0,6.5628,6.7468,6.9778,7.2737,7.3469,7.4458,7.5803,7.6529,7.6361,7.5343,7.5741,7.6055,7.6328,7.6015,7.6367,7.7187,7.7187,7.7187,7.7265,7.8125,7.8828,7.9414,8.0547,8.1367,8.1914,8.2187,8.2304,8.2383,8.2969,8.3359,8.3789,8.4961,8.5703,8.6328,8.6875,8.7265,8.75,8.75,8.75,8.75,8.75,8.75,8.75,8.75,8.789,8.8359,8.8594,8.9062,8.9922,9.1445,9.2187,9.2617,9.2617,9.2617,9.2617,9.2617,9.2617,9.2617,9.2617,9.2617,9.2617,9.2617,9.2617,9.2617,9.2617,9.2617,9.2617,9.2617,9.2617,9.2492,9.2223,9.2136,9.1922,9.1521,9.1424,9.1346,9.121,9.121,9.121,9.121,9.121,9.1291,6.4101,6.457,6.4258,6.0234,5.8398,0.0,5.2148,0.0,0.0,0.0,0.0,0.0,0.0,0.0,0.0,0.0,0.0,0.0,0.0,0.0,0.0,0.0,0.0,0.0,0.0,0.0,5.2948,5.6363,5.6718,0.0,0.0,6.6128,6.8909,7.1929,7.3229,7.4572,7.6057,7.6675,7.6626,7.5898,7.6211,7.6484,7.6719,7.6484,7.668,7.7187,7.7187,7.7383,7.7734,7.8594,7.9414,8.0234,8.1133,8.1797,8.2304,8.2304,8.25,8.2851,8.3398,8.4023,8.4726,8.582,8.6406,8.6758,8.7344,8.75,8.75,8.75,8.75,8.75,8.75,8.75,8.7617,8.8008,8.8398,8.8828,8.9375,8.9726,9.039,9.1836,9.2383,9.2617,9.2617,9.2617,9.2617,9.2617,9.2617,9.2617,9.2617,9.2617,9.2617,9.2617,9.2617,9.2617,9.2617,9.2617,9.2617,9.2617,9.2617,9.2536,9.2348,9.2239,9.2054,9.1733,9.159,9.1431,9.1329,9.1249,9.121,9.121,9.121,9.1369]}]]